[[{"header":{"parameterUnit":"m.s-1","parameterCategory":1,"la1":31.0,"la2":29.5877,"lo1":-88.7671,"lo2":-86.6584,"dy":0.0162,"dx":0.0185,"nx":115,"ny":88,"refTime":"2024-04-20T00:00:00:Z","depth":0,"parameterNumber":2,"parameterNumberName":"U-component_of_WINDS"},"data":[0.0,0.0,0.0,0.0,0.0,0.0,0.0,0.0,0.0,0.0,0.0,0.0,0.0,0.0,0.0,0.0,0.0,0.0,0.0,0.0,0.0,0.0,0.0,0.0,0.0,0.0,0.0,0.0,0.0,0.0,0.0,0.0,0.0,0.0,0.0,0.0,0.0,0.0,0.0,0.0,0.0,0.0,0.0,0.0,0.0,0.0,0.0,0.0,0.0,0.0,0.0,0.0,0.0,0.0,0.0,0.0,0.0,0.0,0.0,0.0,0.0,0.0,0.0,0.0,0.0,0.0,0.0,0.0,0.0,0.0,0.0,0.0,0.0,0.0,0.0,0.0,0.0,0.0,0.0,0.0,0.0,0.0,0.0,0.0,0.0,0.0,0.0,0.0,0.0,0.0,0.0,0.0,0.0,0.0,0.0,0.0,0.0,0.0,0.0,0.0,0.0,0.0,0.0,0.0,0.0,0.0,0.0,0.0,0.0,0.0,0.0,0.0,0.0,0.0,0.0,0.0,0.0,0.0,0.0,0.0,0.0,0.0,0.0,0.0,0.0,0.0,0.0,0.0,0.0,0.0,0.0,0.0,0.0,0.0,0.0,0.0,0.0,0.0,0.0,0.0,0.0,0.0,0.0,0.0,0.0,0.0,0.0,0.0,0.0,0.0,0.0,0.0,0.0,0.0,0.0,0.0,0.0,0.0,0.0,0.0,0.0,0.0,0.0,0.0,0.0,0.0,0.0,0.0,0.0,0.0,0.0,0.0,0.0,0.0,0.0,0.0,0.0,0.0,0.0,0.0,0.0,0.0,0.0,0.0,0.0,0.0,0.0,0.0,0.0,0.0,0.0,0.0,0.0,0.0,0.0,0.0,0.0,0.0,0.0,0.0,0.0,0.0,0.0,0.0,0.0,0.0,0.0,0.0,0.0,0.0,0.0,0.0,0.0,0.0,0.0,0.0,0.0,0.0,0.0,0.0,0.0,0.0,0.0,0.0,0.0,0.0,0.0,0.0,0.0,0.0,0.0,0.0,0.0,0.0,0.0,0.0,0.0,0.0,0.0,0.0,0.0,0.0,0.0,0.0,0.0,0.0,0.0,0.0,0.0,0.0,0.0,0.0,0.0,0.0,0.0,0.0,0.0,0.0,0.0,0.0,0.0,0.0,0.0,0.0,0.0,0.0,0.0,0.0,0.0,0.0,0.0,0.0,0.0,0.0,0.0,0.0,0.0,0.0,0.0,0.0,0.0,0.0,0.0,0.0,0.0,0.0,0.0,0.0,0.0,0.0,0.0,0.0,0.0,0.0,0.0,0.0,0.0,0.0,0.0,0.0,0.0,0.0,0.0,0.0,0.0,0.0,0.0,0.0,0.0,0.0,0.0,0.0,0.0,0.0,0.0,0.0,0.0,0.0,0.0,0.0,0.0,0.0,0.0,0.0,0.0,0.0,0.0,0.0,0.0,0.0,0.0,0.0,0.0,0.0,0.0,0.0,0.0,0.0,0.0,0.0,0.0,0.0,0.0,0.0,0.0,0.0,0.0,0.0,0.0,0.0,0.0,0.0,0.0,0.0,0.0,0.0,0.0,0.0,0.0,0.0,0.0,0.0,0.0,0.0,0.0,0.0,0.0,0.0,0.0,0.0,0.0,0.0,0.0,0.0,0.0,0.0,0.0,0.0,0.0,0.0,0.0,0.0,0.0,0.0,0.0,0.0,0.0,0.0,0.0,0.0,0.0,0.0,0.0,0.0,0.0,0.0,0.0,0.0,0.0,0.0,0.0,0.0,0.0,0.0,0.0,0.0,0.0,0.0,0.0,0.0,0.0,0.0,0.0,0.0,0.0,0.0,0.0,0.0,0.0,0.0,0.0,0.0,0.0,0.0,0.0,0.0,0.0,0.0,0.0,0.0,0.0,0.0,0.0,0.0,0.0,0.0,0.0,0.0,0.0,0.0,0.0,0.0,0.0,0.0,0.0,0.0,0.0,0.0,0.0,0.0,0.0,0.0,0.0,0.0,0.0,0.0,0.0,0.0,0.0,0.0,0.0,0.0,0.0,0.0,0.0,0.0,0.0,0.0,0.0,0.0,0.0,0.0,0.0,0.0,0.0,0.0,0.0,0.0,0.0,0.0,0.0,0.0,0.0,0.0,0.0,0.0,0.0,0.0,0.0,0.0,0.0,0.0,0.0,0.0,0.0,0.0,0.0,0.0,0.0,0.0,0.0,0.0,0.0,0.0,0.0,0.0,0.0,0.0,0.0,0.0,0.0,0.0,0.0,0.0,0.0,0.0,0.0,0.0,0.0,0.0,0.0,0.0,0.0,0.0,0.0,0.0,0.0,0.0,0.0,0.0,0.0,0.0,0.0,0.0,0.0,0.0,0.0,0.0,0.0,0.0,0.0,0.0,0.0,0.0,0.0,0.0,0.0,0.0,0.0,0.0,0.0,0.0,0.0,0.0,0.0,0.0,0.0,0.0,0.0,0.0,0.0,0.0,0.0,0.0,0.0,0.0,0.0,0.0,0.0,0.0,0.0,0.0,0.0,0.0,0.0,0.0,0.0,0.0,0.0,0.0,0.0,0.0,0.0,0.0,0.0,0.0,0.0,0.0,0.0,0.0,0.0,0.0,0.0,0.0,0.0,0.0,0.0,0.0,0.0,0.0,0.0,0.0,0.0,0.0,0.0,0.0,0.0,0.0,0.0,0.0,0.0,0.0,0.0,0.0,0.0,0.0,0.0,0.0,0.0,0.0,0.0,0.0,0.0,0.0,0.0,0.0,0.0,0.0,0.0,0.0,0.0,0.0,0.0,0.0,0.0,0.0,0.0,0.0,0.0,0.0,0.0,0.0,0.0,0.0,0.0,0.0,0.0,0.0,0.0,0.0,0.0,0.0,0.0,0.0,0.0,0.0,0.0,0.0,0.0,0.0,0.0,0.0,0.0,0.0,0.0,0.0,0.0,0.0,0.0,0.0,0.0,0.0,0.0,0.0,0.0,0.0,0.0,0.0,0.0,0.0,0.0,0.0,0.0,0.0,0.0,0.0,0.0,0.0,0.0,0.0,0.0,0.0,0.0,0.0,0.0,0.0,0.0,0.0,0.0,0.0,0.0,0.0,0.0,0.0,0.0,0.0,0.0,0.0,0.0,0.0,0.0,0.0,0.0,0.0,0.0,0.0,0.0,0.0,0.0,0.0,0.0,0.0,0.0,0.0,0.0,0.0,0.0,0.0,0.0,0.0,0.0,0.0,0.0,0.0,0.0,0.0,0.0,0.0,0.0,0.0,0.0,0.0,0.0,0.0,0.0,0.0,0.0,0.0,0.0,0.0,0.0,0.0,0.0,0.0,0.0,0.0,0.0,0.0,0.0,0.0,0.0,0.0,0.0,0.0,0.0,0.0,0.0,0.0,0.0,0.0,0.0,0.0,0.0,0.0,0.0,0.0,0.0,0.0,0.0,0.0,0.0,0.0,0.0,0.0,0.0,0.0,0.0,0.0,0.0,0.0,0.0,0.0,0.0,0.0,0.0,0.0,0.0,0.0,0.0,0.0,0.0,0.0,0.0,0.0,0.0,0.0,0.0,0.0,0.0,0.0,0.0,0.0,0.0,0.0,0.0,0.0,0.0,0.0,0.0,0.0,0.0,0.0,0.0,0.0,0.0,0.0,0.0,0.0,0.0,0.0,0.0,0.0,0.0,0.0,0.0,0.0,0.0,0.0,0.0,0.0,0.0,0.0,0.0,0.0,0.0,0.0,0.0,0.0,0.0,0.0,0.0,0.0,0.0,0.0,0.0,0.0,0.0,0.0,0.0,0.0,0.0,0.0,0.0,0.0,0.0,0.0,0.0,0.0,0.0,0.0,0.0,0.0,0.0,0.0,0.0,0.0,0.0,0.0,0.0,0.0,0.0,0.0,0.0,0.0,0.0,0.0,0.0,0.0,0.0,0.0,0.0,0.0,0.0,0.0,0.0,0.0,0.0,0.0,0.0,0.0,0.0,0.0,0.0,0.0,0.0,0.0,0.0,0.0,0.0,0.0,0.0,0.0,0.0,0.0,0.0,0.0,0.0,0.0,0.0,0.0,0.0,0.0,0.0,0.0,0.0,0.0,0.0,0.0,0.0,0.0,0.0,0.0,0.0,0.0,0.0,0.0,0.0,0.0,0.0,0.0,0.0,0.0,0.0,0.0,0.0,0.0,0.0,0.0,0.0,0.0,0.0,0.0,0.0,0.0,0.0,0.0,0.0,0.0,0.0,0.0,0.0,0.0,0.0,0.0,0.0,0.0,-3.9799,0.0,0.0,0.0,0.0,0.0,0.0,0.0,0.0,0.0,0.0,0.0,0.0,0.0,0.0,0.0,0.0,0.0,0.0,0.0,0.0,0.0,0.0,0.0,0.0,0.0,0.0,0.0,0.0,0.0,0.0,0.0,0.0,0.0,0.0,0.0,0.0,0.0,0.0,0.0,0.0,0.0,0.0,0.0,0.0,0.0,0.0,0.0,0.0,0.0,0.0,0.0,0.0,0.0,0.0,0.0,0.0,0.0,0.0,0.0,0.0,0.0,0.0,0.0,0.0,0.0,0.0,0.0,0.0,0.0,0.0,0.0,0.0,0.0,0.0,0.0,0.0,0.0,0.0,0.0,0.0,0.0,0.0,0.0,0.0,0.0,0.0,0.0,0.0,0.0,0.0,0.0,0.0,0.0,0.0,0.0,0.0,0.0,0.0,0.0,0.0,0.0,0.0,0.0,0.0,0.0,0.0,0.0,0.0,0.0,0.0,-3.9477,-3.9114,-3.9082,-3.9089,-3.9115,0.0,0.0,0.0,0.0,0.0,0.0,0.0,0.0,0.0,0.0,0.0,0.0,0.0,0.0,0.0,0.0,0.0,0.0,0.0,0.0,0.0,0.0,0.0,0.0,0.0,0.0,0.0,0.0,0.0,0.0,0.0,0.0,0.0,0.0,0.0,0.0,0.0,0.0,0.0,0.0,0.0,0.0,0.0,0.0,0.0,0.0,0.0,0.0,0.0,0.0,0.0,0.0,0.0,0.0,0.0,0.0,0.0,0.0,0.0,0.0,0.0,0.0,0.0,0.0,0.0,0.0,0.0,0.0,0.0,0.0,0.0,0.0,0.0,0.0,0.0,0.0,0.0,0.0,0.0,0.0,0.0,0.0,0.0,0.0,0.0,0.0,0.0,0.0,0.0,0.0,0.0,0.0,0.0,0.0,0.0,0.0,0.0,0.0,0.0,0.0,0.0,0.0,0.0,0.0,0.0,0.0,0.0,0.0,0.0,0.0,0.0,0.0,-3.8223,-3.8326,-3.8523,0.0,0.0,0.0,0.0,0.0,0.0,0.0,0.0,0.0,0.0,0.0,0.0,0.0,0.0,0.0,0.0,0.0,0.0,0.0,0.0,0.0,0.0,0.0,0.0,0.0,0.0,0.0,0.0,0.0,0.0,0.0,0.0,0.0,0.0,0.0,0.0,0.0,0.0,0.0,0.0,0.0,0.0,0.0,0.0,0.0,0.0,0.0,0.0,0.0,0.0,0.0,0.0,0.0,0.0,0.0,0.0,0.0,0.0,0.0,0.0,0.0,0.0,0.0,0.0,0.0,0.0,0.0,0.0,0.0,0.0,0.0,0.0,0.0,0.0,0.0,0.0,0.0,0.0,0.0,0.0,0.0,0.0,0.0,0.0,0.0,0.0,0.0,0.0,0.0,0.0,0.0,0.0,0.0,0.0,0.0,0.0,0.0,0.0,0.0,0.0,0.0,0.0,0.0,0.0,0.0,0.0,0.0,0.0,0.0,0.0,-3.8217,-3.7435,-3.7417,0.0,-3.8578,0.0,0.0,0.0,0.0,0.0,0.0,0.0,0.0,0.0,0.0,0.0,0.0,0.0,0.0,0.0,0.0,0.0,0.0,0.0,0.0,0.0,0.0,0.0,0.0,0.0,0.0,0.0,0.0,0.0,0.0,0.0,0.0,0.0,0.0,0.0,0.0,0.0,0.0,0.0,0.0,0.0,0.0,0.0,0.0,0.0,0.0,0.0,0.0,0.0,0.0,0.0,0.0,0.0,0.0,0.0,0.0,0.0,0.0,0.0,0.0,0.0,0.0,0.0,0.0,0.0,0.0,0.0,0.0,0.0,0.0,0.0,0.0,0.0,0.0,0.0,0.0,0.0,0.0,0.0,0.0,0.0,0.0,0.0,0.0,0.0,0.0,0.0,0.0,0.0,0.0,0.0,0.0,0.0,0.0,0.0,0.0,0.0,0.0,0.0,0.0,0.0,0.0,0.0,0.0,0.0,0.0,0.0,0.0,0.0,0.0,-3.6875,-3.6547,-3.653,-3.7197,0.0,0.0,0.0,0.0,0.0,0.0,0.0,0.0,0.0,0.0,0.0,0.0,0.0,0.0,0.0,0.0,0.0,0.0,0.0,0.0,0.0,0.0,0.0,0.0,0.0,0.0,0.0,0.0,0.0,0.0,0.0,0.0,0.0,0.0,0.0,0.0,0.0,0.0,0.0,0.0,0.0,0.0,0.0,0.0,0.0,0.0,0.0,0.0,0.0,0.0,0.0,0.0,0.0,0.0,0.0,0.0,0.0,0.0,0.0,0.0,0.0,0.0,0.0,0.0,0.0,0.0,0.0,0.0,0.0,0.0,0.0,0.0,0.0,0.0,0.0,0.0,0.0,0.0,0.0,0.0,0.0,0.0,0.0,0.0,0.0,0.0,0.0,0.0,0.0,0.0,0.0,0.0,0.0,0.0,0.0,0.0,0.0,0.0,0.0,0.0,0.0,0.0,0.0,0.0,0.0,0.0,0.0,0.0,0.0,0.0,-3.6327,-3.6019,-3.6006,-3.601,-3.6715,-3.8199,0.0,0.0,0.0,0.0,0.0,0.0,0.0,0.0,0.0,0.0,0.0,0.0,0.0,0.0,0.0,0.0,0.0,0.0,0.0,0.0,0.0,0.0,0.0,0.0,0.0,0.0,0.0,0.0,0.0,0.0,0.0,0.0,0.0,0.0,0.0,0.0,0.0,0.0,0.0,0.0,0.0,0.0,0.0,0.0,0.0,0.0,0.0,0.0,0.0,0.0,0.0,0.0,0.0,0.0,0.0,0.0,0.0,0.0,0.0,0.0,0.0,0.0,0.0,0.0,0.0,0.0,0.0,0.0,0.0,0.0,0.0,0.0,0.0,0.0,0.0,0.0,0.0,0.0,0.0,0.0,0.0,0.0,0.0,0.0,0.0,0.0,0.0,0.0,0.0,0.0,0.0,0.0,0.0,0.0,0.0,0.0,0.0,0.0,0.0,0.0,0.0,0.0,0.0,0.0,0.0,0.0,0.0,0.0,-3.607,-3.6019,-3.6006,-3.6011,-3.6013,-3.6444,0.0,0.0,0.0,0.0,0.0,0.0,0.0,0.0,0.0,0.0,0.0,0.0,0.0,0.0,0.0,0.0,0.0,0.0,0.0,0.0,0.0,0.0,0.0,0.0,0.0,0.0,0.0,0.0,0.0,0.0,0.0,0.0,0.0,0.0,0.0,0.0,0.0,0.0,0.0,0.0,0.0,0.0,0.0,0.0,0.0,0.0,0.0,0.0,0.0,0.0,0.0,0.0,0.0,0.0,0.0,0.0,0.0,0.0,0.0,0.0,0.0,0.0,0.0,0.0,0.0,0.0,0.0,0.0,0.0,0.0,0.0,0.0,0.0,0.0,0.0,0.0,0.0,0.0,0.0,0.0,0.0,0.0,0.0,0.0,0.0,0.0,0.0,0.0,0.0,0.0,0.0,0.0,0.0,0.0,0.0,0.0,0.0,0.0,0.0,0.0,0.0,0.0,0.0,0.0,0.0,0.0,0.0,0.0,0.0,-3.6021,-3.6009,-3.6012,-3.6013,-3.6015,-3.6406,0.0,0.0,0.0,0.0,0.0,0.0,0.0,0.0,0.0,0.0,0.0,0.0,0.0,0.0,0.0,0.0,0.0,0.0,0.0,0.0,0.0,0.0,0.0,0.0,0.0,0.0,0.0,0.0,0.0,0.0,0.0,0.0,0.0,0.0,0.0,0.0,0.0,0.0,0.0,0.0,0.0,0.0,0.0,0.0,0.0,0.0,0.0,0.0,0.0,0.0,0.0,0.0,0.0,0.0,0.0,0.0,0.0,0.0,0.0,0.0,0.0,0.0,0.0,0.0,0.0,0.0,0.0,0.0,0.0,0.0,0.0,0.0,0.0,0.0,0.0,0.0,0.0,0.0,0.0,0.0,0.0,0.0,0.0,0.0,0.0,0.0,0.0,0.0,0.0,0.0,0.0,0.0,0.0,0.0,0.0,0.0,0.0,0.0,0.0,0.0,0.0,0.0,0.0,0.0,0.0,0.0,0.0,0.0,0.0,-3.6006,0.0,-3.6014,-3.6015,-3.6015,-3.6289,0.0,0.0,0.0,0.0,0.0,0.0,0.0,0.0,0.0,0.0,0.0,0.0,0.0,0.0,0.0,0.0,0.0,0.0,0.0,0.0,0.0,0.0,0.0,0.0,0.0,0.0,0.0,0.0,0.0,0.0,0.0,0.0,0.0,0.0,0.0,0.0,0.0,0.0,0.0,0.0,0.0,0.0,0.0,0.0,0.0,0.0,0.0,0.0,0.0,0.0,0.0,0.0,0.0,0.0,0.0,0.0,0.0,0.0,0.0,0.0,0.0,0.0,0.0,0.0,0.0,0.0,0.0,0.0,0.0,0.0,0.0,0.0,0.0,0.0,0.0,0.0,0.0,0.0,0.0,0.0,0.0,0.0,0.0,0.0,0.0,0.0,0.0,0.0,0.0,0.0,0.0,0.0,0.0,0.0,0.0,0.0,0.0,0.0,0.0,0.0,0.0,0.0,0.0,0.0,0.0,0.0,0.0,0.0,-3.6039,-3.603,-3.6033,-3.6093,-3.6055,-3.6074,-3.6055,0.0,0.0,0.0,0.0,0.0,0.0,0.0,0.0,0.0,0.0,0.0,0.0,0.0,0.0,0.0,0.0,0.0,0.0,0.0,0.0,0.0,0.0,0.0,0.0,0.0,0.0,0.0,0.0,0.0,0.0,0.0,0.0,0.0,0.0,0.0,0.0,0.0,0.0,0.0,0.0,0.0,0.0,0.0,0.0,0.0,0.0,0.0,0.0,0.0,0.0,0.0,0.0,0.0,0.0,0.0,0.0,0.0,0.0,0.0,0.0,0.0,0.0,0.0,0.0,0.0,0.0,0.0,0.0,0.0,0.0,0.0,0.0,0.0,0.0,0.0,0.0,0.0,0.0,0.0,0.0,0.0,0.0,0.0,0.0,0.0,0.0,0.0,0.0,0.0,0.0,0.0,0.0,0.0,0.0,0.0,0.0,0.0,0.0,0.0,0.0,0.0,0.0,0.0,0.0,0.0,0.0,0.0,0.0,0.0,-3.689,-3.6893,-3.7187,-3.7734,-3.7207,-3.6894,0.0,0.0,0.0,0.0,0.0,0.0,0.0,0.0,0.0,0.0,0.0,0.0,0.0,0.0,0.0,0.0,0.0,0.0,0.0,0.0,0.0,0.0,0.0,0.0,0.0,0.0,0.0,0.0,0.0,0.0,0.0,0.0,0.0,0.0,0.0,0.0,0.0,0.0,0.0,0.0,0.0,0.0,0.0,0.0,0.0,0.0,0.0,0.0,0.0,0.0,0.0,0.0,0.0,0.0,0.0,0.0,0.0,0.0,0.0,0.0,0.0,0.0,0.0,0.0,0.0,0.0,0.0,0.0,0.0,0.0,0.0,0.0,0.0,0.0,0.0,0.0,0.0,0.0,0.0,0.0,0.0,0.0,0.0,0.0,0.0,0.0,0.0,0.0,0.0,0.0,0.0,0.0,0.0,0.0,0.0,0.0,0.0,0.0,0.0,0.0,0.0,0.0,0.0,0.0,0.0,0.0,0.0,0.0,0.0,-3.8237,-3.7949,-3.8047,-3.8594,-3.8066,-3.7617,-3.7324,0.0,0.0,0.0,0.0,0.0,0.0,0.0,0.0,0.0,0.0,0.0,0.0,0.0,0.0,0.0,0.0,0.0,0.0,0.0,0.0,0.0,0.0,0.0,0.0,0.0,0.0,0.0,0.0,0.0,0.0,0.0,0.0,0.0,0.0,0.0,0.0,0.0,0.0,0.0,0.0,0.0,0.0,0.0,0.0,0.0,0.0,0.0,0.0,0.0,0.0,0.0,0.0,0.0,0.0,0.0,0.0,0.0,0.0,0.0,0.0,0.0,0.0,0.0,0.0,0.0,0.0,0.0,0.0,0.0,0.0,0.0,0.0,0.0,0.0,0.0,0.0,0.0,0.0,0.0,0.0,0.0,0.0,0.0,0.0,0.0,0.0,0.0,0.0,0.0,0.0,0.0,0.0,0.0,0.0,0.0,0.0,0.0,0.0,0.0,0.0,0.0,0.0,0.0,0.0,0.0,0.0,0.0,0.0,-3.9857,-3.914,-3.875,-3.8769,-3.873,-3.8281,0.0,0.0,0.0,0.0,0.0,0.0,0.0,0.0,0.0,0.0,0.0,0.0,0.0,0.0,0.0,0.0,0.0,0.0,0.0,0.0,0.0,0.0,0.0,0.0,0.0,0.0,0.0,0.0,0.0,0.0,0.0,0.0,0.0,0.0,0.0,0.0,0.0,0.0,0.0,0.0,0.0,0.0,0.0,0.0,0.0,0.0,0.0,0.0,0.0,0.0,0.0,0.0,0.0,0.0,0.0,0.0,0.0,0.0,0.0,0.0,0.0,0.0,0.0,0.0,0.0,0.0,0.0,0.0,0.0,0.0,0.0,0.0,0.0,0.0,0.0,0.0,0.0,0.0,0.0,0.0,0.0,0.0,0.0,0.0,0.0,0.0,0.0,0.0,0.0,0.0,0.0,0.0,0.0,0.0,0.0,0.0,0.0,0.0,0.0,0.0,0.0,0.0,0.0,0.0,0.0,0.0,0.0,0.0,0.0,-3.9861,-4.0293,-4.0508,-4.0508,-3.9902,-3.9141,0.0,0.0,0.0,0.0,0.0,0.0,0.0,0.0,0.0,0.0,0.0,0.0,0.0,0.0,0.0,0.0,0.0,0.0,0.0,0.0,0.0,0.0,0.0,0.0,0.0,0.0,0.0,0.0,0.0,0.0,0.0,0.0,0.0,0.0,0.0,0.0,0.0,0.0,0.0,0.0,0.0,0.0,0.0,0.0,0.0,0.0,0.0,0.0,0.0,0.0,0.0,0.0,0.0,0.0,0.0,0.0,0.0,0.0,0.0,0.0,0.0,0.0,0.0,0.0,0.0,0.0,0.0,0.0,0.0,0.0,0.0,0.0,0.0,0.0,0.0,0.0,0.0,0.0,0.0,0.0,0.0,0.0,0.0,0.0,0.0,0.0,0.0,0.0,0.0,0.0,0.0,0.0,0.0,0.0,0.0,0.0,0.0,0.0,0.0,0.0,0.0,0.0,0.0,0.0,0.0,0.0,0.0,0.0,-3.9567,-4.0409,-4.0918,-4.1191,-4.1191,-4.0703,-4.0039,0.0,0.0,0.0,0.0,0.0,0.0,0.0,0.0,0.0,0.0,0.0,0.0,0.0,0.0,0.0,0.0,0.0,0.0,0.0,0.0,0.0,0.0,0.0,0.0,0.0,0.0,0.0,0.0,0.0,0.0,0.0,0.0,0.0,0.0,0.0,0.0,0.0,0.0,0.0,0.0,0.0,0.0,0.0,0.0,0.0,0.0,0.0,0.0,0.0,0.0,0.0,0.0,0.0,0.0,0.0,0.0,0.0,0.0,0.0,0.0,0.0,0.0,0.0,0.0,0.0,0.0,0.0,0.0,0.0,0.0,0.0,0.0,0.0,0.0,0.0,0.0,0.0,0.0,0.0,0.0,0.0,0.0,0.0,0.0,0.0,0.0,0.0,0.0,0.0,0.0,0.0,0.0,0.0,0.0,0.0,0.0,0.0,0.0,0.0,0.0,0.0,0.0,0.0,0.0,0.0,0.0,0.0,0.0,-4.0308,-4.1092,-4.1172,-4.1191,-4.1191,-4.1191,-4.0801,0.0,0.0,0.0,0.0,0.0,0.0,0.0,0.0,0.0,0.0,0.0,0.0,0.0,0.0,0.0,0.0,0.0,0.0,0.0,0.0,0.0,0.0,0.0,0.0,0.0,0.0,0.0,0.0,0.0,0.0,0.0,0.0,0.0,0.0,0.0,0.0,0.0,0.0,0.0,0.0,0.0,0.0,0.0,0.0,0.0,0.0,0.0,0.0,0.0,0.0,0.0,0.0,0.0,0.0,0.0,0.0,0.0,0.0,0.0,0.0,0.0,0.0,0.0,0.0,0.0,0.0,0.0,0.0,0.0,0.0,0.0,0.0,0.0,0.0,0.0,0.0,0.0,0.0,0.0,0.0,0.0,0.0,0.0,0.0,0.0,0.0,0.0,0.0,0.0,0.0,0.0,0.0,0.0,0.0,0.0,0.0,0.0,0.0,0.0,0.0,0.0,0.0,0.0,0.0,0.0,0.0,0.0,0.0,-4.0309,-4.1133,-4.1191,-4.1191,-4.1191,-4.1191,-4.0781,0.0,0.0,0.0,0.0,0.0,0.0,0.0,0.0,0.0,0.0,0.0,0.0,0.0,0.0,0.0,0.0,0.0,0.0,0.0,0.0,0.0,0.0,0.0,0.0,0.0,0.0,0.0,0.0,0.0,0.0,0.0,0.0,0.0,0.0,0.0,0.0,0.0,0.0,0.0,0.0,0.0,0.0,0.0,0.0,0.0,0.0,0.0,0.0,-3.9218,0.0,0.0,0.0,0.0,0.0,0.0,0.0,0.0,0.0,0.0,0.0,0.0,0.0,0.0,0.0,0.0,0.0,0.0,0.0,0.0,0.0,0.0,0.0,0.0,0.0,0.0,0.0,0.0,0.0,0.0,0.0,0.0,0.0,0.0,0.0,0.0,0.0,0.0,0.0,0.0,0.0,0.0,0.0,0.0,0.0,0.0,0.0,0.0,0.0,0.0,0.0,0.0,0.0,0.0,0.0,0.0,0.0,0.0,0.0,-4.0701,-4.1172,-4.1191,-4.1191,-4.1211,-4.1562,-4.1367,0.0,0.0,0.0,0.0,0.0,0.0,0.0,0.0,0.0,0.0,0.0,0.0,0.0,0.0,0.0,0.0,0.0,0.0,0.0,0.0,0.0,0.0,0.0,0.0,0.0,0.0,0.0,0.0,0.0,0.0,0.0,0.0,0.0,0.0,0.0,0.0,0.0,0.0,0.0,0.0,0.0,0.0,0.0,0.0,0.0,0.0,0.0,0.0,0.0,0.0,0.0,0.0,0.0,0.0,0.0,0.0,0.0,0.0,0.0,0.0,0.0,0.0,0.0,0.0,0.0,0.0,0.0,0.0,0.0,0.0,0.0,0.0,0.0,0.0,0.0,0.0,0.0,0.0,0.0,0.0,0.0,0.0,0.0,0.0,0.0,0.0,0.0,0.0,0.0,0.0,0.0,0.0,0.0,0.0,0.0,0.0,0.0,0.0,0.0,0.0,0.0,0.0,0.0,0.0,0.0,0.0,0.0,-4.07,-4.1132,-4.1191,-4.1191,-4.1191,-4.1211,-4.1875,-4.1894,-4.123,0.0,0.0,0.0,0.0,0.0,0.0,0.0,0.0,0.0,0.0,0.0,0.0,0.0,0.0,0.0,0.0,0.0,0.0,0.0,0.0,0.0,0.0,0.0,0.0,0.0,0.0,0.0,0.0,0.0,0.0,0.0,0.0,0.0,0.0,0.0,0.0,0.0,0.0,-3.8376,-4.0164,0.0,0.0,0.0,0.0,0.0,0.0,0.0,0.0,-4.3015,0.0,0.0,0.0,0.0,0.0,0.0,0.0,0.0,0.0,0.0,0.0,0.0,0.0,0.0,0.0,0.0,0.0,0.0,0.0,0.0,0.0,0.0,0.0,0.0,0.0,0.0,0.0,0.0,0.0,0.0,0.0,0.0,0.0,0.0,0.0,0.0,0.0,0.0,0.0,0.0,0.0,0.0,0.0,0.0,0.0,0.0,0.0,0.0,0.0,0.0,0.0,0.0,0.0,0.0,0.0,0.0,-3.9896,-4.0681,-4.1132,-4.1191,-4.1191,-4.1191,-4.1191,-4.1328,-4.1348,-4.1211,0.0,0.0,0.0,0.0,0.0,0.0,0.0,0.0,0.0,0.0,0.0,0.0,0.0,0.0,0.0,0.0,0.0,0.0,0.0,0.0,0.0,0.0,0.0,0.0,0.0,0.0,0.0,0.0,0.0,0.0,0.0,0.0,0.0,0.0,0.0,0.0,0.0,0.0,0.0,-4.0673,-4.193,0.0,0.0,0.0,0.0,0.0,0.0,0.0,0.0,-4.4769,0.0,0.0,0.0,0.0,0.0,0.0,0.0,0.0,0.0,0.0,0.0,0.0,0.0,0.0,0.0,0.0,0.0,0.0,0.0,0.0,0.0,0.0,0.0,0.0,0.0,0.0,0.0,0.0,0.0,0.0,0.0,0.0,0.0,0.0,0.0,0.0,0.0,0.0,0.0,0.0,0.0,0.0,0.0,0.0,0.0,0.0,0.0,0.0,0.0,0.0,0.0,0.0,0.0,0.0,0.0,-4.0541,-4.0936,-4.1172,-4.1191,-4.1191,-4.1191,-4.1211,-4.1601,-4.1641,0.0,0.0,0.0,0.0,0.0,0.0,0.0,0.0,0.0,0.0,0.0,0.0,0.0,0.0,0.0,0.0,0.0,0.0,0.0,0.0,0.0,0.0,0.0,0.0,0.0,0.0,0.0,0.0,0.0,0.0,0.0,0.0,0.0,0.0,0.0,0.0,0.0,0.0,0.0,0.0,-4.0812,-4.2244,-4.1836,0.0,0.0,0.0,0.0,0.0,0.0,-4.4085,-4.4578,0.0,0.0,0.0,0.0,0.0,0.0,0.0,0.0,0.0,0.0,0.0,0.0,0.0,0.0,0.0,0.0,0.0,0.0,0.0,0.0,0.0,0.0,0.0,0.0,0.0,0.0,0.0,0.0,0.0,0.0,0.0,0.0,0.0,0.0,0.0,0.0,0.0,0.0,0.0,0.0,0.0,0.0,0.0,0.0,0.0,0.0,0.0,0.0,0.0,0.0,0.0,0.0,0.0,0.0,0.0,-4.1108,-4.1151,-4.1191,-4.1191,-4.1191,-4.1191,-4.1211,-4.1816,-4.1855,0.0,0.0,0.0,0.0,0.0,0.0,0.0,0.0,0.0,0.0,0.0,0.0,0.0,0.0,0.0,0.0,0.0,0.0,0.0,0.0,0.0,0.0,0.0,0.0,0.0,0.0,0.0,0.0,0.0,0.0,0.0,0.0,0.0,0.0,0.0,0.0,0.0,0.0,0.0,0.0,0.0,-4.2343,-4.2167,-4.2445,0.0,0.0,0.0,0.0,-4.2092,-4.3492,0.0,0.0,0.0,0.0,0.0,0.0,0.0,0.0,0.0,0.0,0.0,0.0,0.0,0.0,0.0,0.0,0.0,0.0,0.0,0.0,0.0,0.0,0.0,0.0,0.0,0.0,0.0,0.0,0.0,0.0,0.0,0.0,0.0,0.0,0.0,0.0,0.0,0.0,0.0,0.0,0.0,0.0,0.0,0.0,0.0,0.0,0.0,0.0,0.0,0.0,0.0,0.0,0.0,0.0,0.0,0.0,-4.1108,-4.1111,-4.1132,-4.1191,-4.1191,-4.1191,-4.1191,-4.1289,-4.1289,0.0,0.0,0.0,0.0,0.0,0.0,0.0,0.0,0.0,0.0,0.0,0.0,0.0,0.0,0.0,0.0,0.0,0.0,0.0,0.0,0.0,0.0,0.0,0.0,0.0,0.0,0.0,0.0,0.0,0.0,0.0,0.0,0.0,0.0,0.0,0.0,0.0,0.0,0.0,0.0,0.0,-4.2109,-4.1366,-4.2566,-4.2963,0.0,0.0,-4.2144,-4.2034,-4.346,0.0,0.0,0.0,0.0,0.0,0.0,0.0,0.0,0.0,0.0,0.0,0.0,0.0,0.0,0.0,0.0,0.0,0.0,0.0,0.0,0.0,0.0,0.0,0.0,0.0,0.0,0.0,0.0,0.0,0.0,0.0,0.0,0.0,0.0,0.0,0.0,0.0,0.0,0.0,0.0,0.0,0.0,0.0,0.0,0.0,0.0,0.0,0.0,0.0,0.0,0.0,0.0,0.0,0.0,0.0,-4.11,-4.1103,-4.1109,-4.1112,-4.1132,-4.1191,-4.1191,-4.1191,-4.1641,-4.166,0.0,0.0,0.0,0.0,0.0,0.0,0.0,0.0,0.0,0.0,0.0,0.0,0.0,0.0,0.0,0.0,0.0,0.0,0.0,0.0,0.0,0.0,0.0,0.0,0.0,0.0,0.0,0.0,0.0,0.0,0.0,0.0,0.0,0.0,0.0,0.0,0.0,0.0,0.0,0.0,0.0,0.0,-4.181,-4.2454,0.0,0.0,0.0,-4.138,-4.1331,0.0,0.0,0.0,0.0,0.0,0.0,0.0,0.0,0.0,0.0,0.0,0.0,0.0,0.0,0.0,0.0,0.0,0.0,0.0,0.0,0.0,0.0,0.0,0.0,0.0,0.0,0.0,0.0,0.0,0.0,0.0,0.0,0.0,0.0,0.0,0.0,0.0,0.0,0.0,0.0,0.0,0.0,0.0,0.0,0.0,0.0,0.0,0.0,0.0,0.0,0.0,0.0,0.0,0.0,0.0,0.0,0.0,-4.1099,-4.1106,-4.111,-4.1111,-4.1132,-4.1172,-4.1211,-4.1797,0.0,0.0,0.0,0.0,0.0,0.0,0.0,0.0,0.0,0.0,0.0,0.0,0.0,0.0,0.0,0.0,0.0,0.0,0.0,0.0,0.0,0.0,0.0,0.0,0.0,0.0,0.0,-3.6012,0.0,0.0,0.0,0.0,0.0,0.0,0.0,0.0,0.0,0.0,0.0,0.0,0.0,0.0,-4.1343,-4.1978,-4.2202,-4.2208,0.0,0.0,-4.0834,-4.0803,-4.1467,-4.168,0.0,0.0,0.0,0.0,0.0,0.0,0.0,0.0,0.0,0.0,0.0,0.0,0.0,0.0,0.0,0.0,0.0,0.0,0.0,0.0,0.0,0.0,0.0,0.0,0.0,0.0,0.0,0.0,0.0,0.0,0.0,0.0,0.0,0.0,0.0,0.0,0.0,0.0,0.0,0.0,0.0,0.0,0.0,0.0,0.0,0.0,0.0,0.0,0.0,0.0,0.0,0.0,0.0,0.0,0.0,-4.1098,-4.1099,-4.1104,-4.1111,-4.1112,-4.1132,-4.1191,-4.1269,-4.0898,0.0,0.0,0.0,0.0,0.0,0.0,0.0,0.0,0.0,0.0,0.0,0.0,0.0,0.0,0.0,0.0,0.0,0.0,0.0,0.0,0.0,0.0,0.0,0.0,0.0,0.0,0.0,0.0,0.0,0.0,0.0,0.0,0.0,0.0,0.0,0.0,0.0,0.0,0.0,0.0,0.0,-4.1104,-4.1189,-4.1827,-4.1994,0.0,0.0,-4.087,-4.0809,-4.1474,-4.1654,-4.0756,0.0,0.0,0.0,0.0,0.0,0.0,0.0,0.0,0.0,0.0,0.0,0.0,0.0,0.0,0.0,0.0,0.0,0.0,0.0,0.0,0.0,0.0,0.0,0.0,0.0,0.0,0.0,0.0,0.0,0.0,0.0,0.0,0.0,0.0,0.0,0.0,0.0,0.0,0.0,0.0,0.0,0.0,0.0,0.0,0.0,0.0,0.0,0.0,0.0,0.0,0.0,0.0,0.0,-4.1111,-4.1112,-4.1116,-4.11,-4.1105,-4.1108,-4.111,-4.113,-4.1659,-4.1542,0.0,0.0,0.0,0.0,0.0,0.0,0.0,0.0,0.0,0.0,0.0,0.0,0.0,0.0,0.0,0.0,0.0,0.0,0.0,0.0,0.0,0.0,0.0,0.0,0.0,0.0,0.0,0.0,-3.6012,-3.6012,-3.6012,0.0,0.0,0.0,0.0,0.0,0.0,0.0,0.0,0.0,0.0,-4.0465,-4.0966,-4.1318,0.0,0.0,-4.0859,-4.0826,-4.0814,-4.1054,-4.1126,-4.0725,-3.9455,0.0,0.0,0.0,0.0,0.0,0.0,0.0,0.0,0.0,0.0,0.0,0.0,0.0,0.0,0.0,0.0,0.0,0.0,0.0,0.0,0.0,0.0,0.0,0.0,0.0,0.0,0.0,0.0,0.0,0.0,0.0,0.0,0.0,0.0,0.0,0.0,0.0,0.0,0.0,0.0,0.0,0.0,0.0,0.0,0.0,0.0,0.0,0.0,0.0,0.0,0.0,0.0,-4.0717,-4.0717,-4.0957,-4.1116,-4.1099,-4.1103,-4.1106,-4.1127,-4.1696,-4.1618,0.0,0.0,0.0,0.0,0.0,0.0,0.0,0.0,0.0,0.0,0.0,0.0,0.0,0.0,0.0,0.0,0.0,0.0,0.0,0.0,0.0,0.0,0.0,0.0,0.0,0.0,0.0,0.0,-3.6012,-3.6012,-3.6012,0.0,0.0,0.0,0.0,0.0,0.0,0.0,0.0,0.0,0.0,-4.0391,-4.092,-4.0986,-4.0991,-4.0912,-4.0868,-4.0826,-4.0806,-4.0802,-4.0771,-4.0707,0.0,0.0,0.0,0.0,0.0,0.0,0.0,0.0,0.0,0.0,0.0,0.0,0.0,0.0,0.0,0.0,0.0,0.0,0.0,0.0,0.0,0.0,0.0,0.0,0.0,0.0,0.0,0.0,0.0,0.0,0.0,0.0,0.0,0.0,0.0,0.0,0.0,0.0,0.0,0.0,0.0,0.0,0.0,0.0,0.0,0.0,0.0,0.0,0.0,0.0,0.0,0.0,0.0,-3.9839,-3.9858,-4.068,-4.1112,-4.1117,-4.1099,-4.1101,-4.1106,-4.1126,-4.0755,-3.9974,0.0,0.0,0.0,0.0,0.0,0.0,0.0,0.0,0.0,0.0,0.0,0.0,0.0,0.0,0.0,0.0,0.0,0.0,0.0,0.0,0.0,0.0,0.0,0.0,0.0,0.0,-3.6012,-3.6012,-3.6012,0.0,0.0,0.0,0.0,0.0,0.0,0.0,0.0,0.0,0.0,-4.0538,-4.1061,-4.1016,-4.0988,-4.0978,-4.0912,-4.0903,-4.0862,-4.0806,-4.08,-4.0776,0.0,0.0,0.0,0.0,0.0,0.0,0.0,0.0,0.0,0.0,0.0,0.0,0.0,0.0,0.0,0.0,0.0,0.0,0.0,0.0,0.0,0.0,0.0,0.0,0.0,0.0,0.0,-4.0843,-4.0813,0.0,0.0,0.0,0.0,0.0,0.0,0.0,0.0,0.0,0.0,0.0,-4.0515,-4.0508,0.0,0.0,0.0,0.0,0.0,0.0,0.0,0.0,0.0,0.0,0.0,0.0,-3.9795,-3.9839,-4.0678,-4.1111,-4.1112,-4.1106,-4.1104,-4.1108,-4.1101,-4.0707,-3.9866,0.0,0.0,0.0,0.0,0.0,0.0,0.0,0.0,0.0,0.0,0.0,0.0,0.0,0.0,0.0,0.0,0.0,0.0,0.0,0.0,0.0,0.0,0.0,0.0,0.0,-3.6017,0.0,0.0,0.0,0.0,0.0,0.0,0.0,0.0,0.0,0.0,0.0,-3.8886,-3.969,-4.0508,-4.1025,-4.1025,-4.0956,-4.0917,0.0,0.0,0.0,0.0,0.0,0.0,0.0,0.0,0.0,0.0,0.0,0.0,0.0,0.0,-3.7168,-3.6528,-3.6493,-3.6464,-3.6153,0.0,0.0,0.0,0.0,0.0,0.0,0.0,0.0,0.0,0.0,0.0,0.0,0.0,0.0,0.0,0.0,-3.9859,0.0,0.0,0.0,0.0,0.0,0.0,0.0,0.0,-4.0419,-4.04,-4.04,-4.04,-4.0457,0.0,-4.0265,-3.9934,0.0,0.0,0.0,0.0,0.0,0.0,0.0,0.0,-3.9481,-3.9778,-4.0619,-4.1068,-4.1068,-4.1079,-4.1074,-4.1054,-4.1067,-4.0647,-3.9797,-3.8923,-3.8063,0.0,0.0,0.0,0.0,0.0,0.0,0.0,0.0,0.0,0.0,0.0,0.0,0.0,0.0,0.0,0.0,0.0,0.0,0.0,0.0,0.0,0.0,0.0,-3.6009,0.0,0.0,0.0,0.0,0.0,0.0,0.0,0.0,0.0,-3.7615,-3.7968,-3.8555,-3.9652,-4.0003,-4.0223,-4.0508,0.0,0.0,0.0,0.0,0.0,0.0,0.0,-4.0826,-4.0806,-4.0281,-3.9867,-3.9959,-3.9242,-3.8737,-3.8946,0.0,0.0,-3.7499,-3.7368,-3.7355,-3.7014,-3.7358,-3.7692,-3.7504,-3.7953,-3.8502,0.0,0.0,0.0,0.0,0.0,0.0,0.0,0.0,-3.9464,-3.9489,0.0,-3.9693,0.0,0.0,0.0,0.0,0.0,0.0,0.0,0.0,-4.0398,-4.0398,-4.0398,-4.0407,-4.0438,-4.045,-3.9665,-3.9345,-3.9488,-4.0341,0.0,0.0,0.0,0.0,0.0,0.0,-3.8925,-3.9688,-4.0562,-4.099,-4.0994,-4.099,-4.0968,-4.0948,-4.0948,-4.0526,-3.9676,-3.8797,-3.7972,-3.7137,-3.7055,0.0,0.0,0.0,0.0,0.0,0.0,0.0,0.0,0.0,0.0,0.0,0.0,0.0,0.0,0.0,0.0,0.0,0.0,0.0,0.0,-3.6003,0.0,0.0,0.0,0.0,0.0,0.0,0.0,0.0,0.0,0.0,-3.8357,-3.785,-3.791,-3.9579,0.0,0.0,0.0,0.0,-4.0036,-4.0791,-4.0888,-4.0898,-4.0888,-4.0902,-4.0867,-4.0806,0.0,0.0,-4.1275,-4.1179,-4.1175,-4.1889,-4.1173,-4.0162,-3.8486,-3.8586,-3.8795,-3.8499,-3.8829,-3.9208,-3.914,-3.935,-3.9823,-4.3016,0.0,0.0,0.0,0.0,-4.0067,-3.9704,-3.9133,-3.9197,-3.9224,-3.9232,-3.9477,0.0,0.0,0.0,0.0,0.0,0.0,-4.0309,-4.0328,-4.0347,-4.0328,-4.0347,-4.0347,-4.0354,-4.043,-4.0181,-4.0087,-4.02,-4.0444,-3.9908,-3.8626,0.0,0.0,0.0,0.0,-3.9431,-3.974,-4.0565,-4.0981,-4.099,-4.0986,-4.0676,-4.0009,-4.0009,-3.9558,-3.8674,-3.7802,-3.7215,-3.6953,-3.6411,0.0,0.0,0.0,0.0,0.0,0.0,0.0,0.0,0.0,0.0,0.0,0.0,0.0,0.0,0.0,0.0,0.0,0.0,0.0,-3.5925,-3.5924,-3.5916,0.0,0.0,0.0,0.0,0.0,0.0,0.0,0.0,0.0,-3.835,-3.7846,-3.791,0.0,0.0,-3.9494,-3.9666,-4.0229,-4.0701,-4.0873,0.0,0.0,0.0,-4.0893,-4.0878,-4.0801,-4.0668,-4.0569,-4.0549,-4.0378,-4.0477,-4.1209,-4.1011,-4.0746,-4.0753,-3.977,-3.8976,-3.867,-3.9039,-3.935,-3.9194,-3.9603,-4.0149,-4.3664,-4.3302,-4.23,-4.1433,-4.073,-4.0689,-4.02,-3.9387,-3.9474,-3.9332,-3.9031,-3.9272,-3.9502,-3.9747,-4.0026,0.0,0.0,0.0,-4.032,-4.032,-4.032,-4.032,-4.032,-4.032,-4.0309,-4.0342,-4.0362,-4.0386,-4.046,-4.046,-4.0,-3.908,0.0,0.0,-3.8703,-3.9254,-3.9703,-4.0078,-4.031,-4.0401,-4.0414,-4.0077,-3.9626,-3.9079,-3.9055,-3.8601,-3.7692,-3.7125,-3.6714,-3.636,-3.5872,-3.5623,0.0,0.0,0.0,0.0,0.0,0.0,0.0,0.0,0.0,0.0,0.0,-3.5803,-3.5764,0.0,0.0,0.0,-3.5802,-3.5833,-3.5866,-3.5897,0.0,0.0,0.0,0.0,0.0,0.0,0.0,-3.6981,-3.6983,-3.7534,-3.8892,-3.8349,-3.8318,-3.9665,-3.9535,-3.9431,-3.9697,0.0,-4.0591,-4.0891,-4.0917,-4.0888,-4.0888,-4.0888,-4.0864,-4.0784,-4.0595,-4.0543,-4.0664,-4.0522,-4.0681,-4.1234,-4.1142,-4.0979,-4.1383,-4.0132,-3.909,-3.9148,-3.9323,-3.9403,-3.9157,-3.964,-4.0206,-4.449,-4.4418,-4.3254,-4.2226,-4.1378,-4.1341,-4.0851,-4.0068,-4.0127,-3.973,-3.9021,-3.9185,-3.9399,-3.9611,-4.0015,0.0,0.0,-4.0263,-4.0282,-4.032,-4.032,-4.032,-4.032,-4.032,-4.0319,-4.0307,-4.0307,-4.0344,-4.0407,-4.0407,-4.0349,-4.0273,-3.9611,-3.9287,-3.929,-3.9276,-3.9683,-4.0462,-3.9747,-3.9392,-3.9372,-3.8605,-3.8141,-3.8096,-3.8077,-3.7635,-3.6723,-3.6678,-3.6299,-3.556,-3.5489,-3.5489,-3.5489,0.0,0.0,0.0,0.0,0.0,0.0,0.0,0.0,0.0,0.0,0.0,0.0,0.0,0.0,0.0,-3.5763,0.0,-3.5795,-3.5924,0.0,0.0,0.0,-3.7294,-3.7305,-3.801,-3.8521,-3.8514,0.0,0.0,0.0,0.0,-3.9054,-3.998,-3.9293,-3.8984,-3.9774,-3.997,-4.0201,-4.1166,-4.1178,-4.1126,-4.1276,-4.1155,-4.098,-4.0757,-4.0526,-4.0624,-4.1064,-4.1111,-4.1336,-4.1894,-4.1443,-4.0948,-4.0904,-4.005,-3.936,-3.9884,-3.9646,-3.9312,-3.9049,-3.9389,-3.9779,-4.5271,-4.5292,-4.5003,-4.3688,-4.1841,-4.1823,-4.1367,-4.0618,-4.0617,-4.026,-3.9672,-3.9819,-3.9793,-3.9611,-3.9859,-4.0017,-4.0127,-4.0186,-4.0253,-4.0301,-4.032,-4.032,-4.032,-4.032,-4.031,-4.0326,-4.0307,-4.0353,-4.0407,-4.0334,-4.0018,-3.9433,-3.9195,-3.9122,-3.9196,-3.8577,-3.8363,-3.8638,-3.8433,-3.8343,-3.8363,-3.815,-3.7745,-3.7074,-3.7055,-3.6603,-3.5701,-3.5655,-3.5578,-3.536,-3.5388,-3.5429,-3.5429,-3.5438,0.0,0.0,0.0,0.0,0.0,0.0,0.0,0.0,0.0,-3.5519,-3.5483,0.0,-3.552,0.0,-3.5694,-3.5791,-3.5807,-3.6469,0.0,0.0,-3.7668,-3.8196,-3.819,-3.8388,-3.851,-3.8519,-3.8521,-3.8838,-3.9702,-3.9658,-4.0097,-4.1547,-4.0468,-3.9832,-4.0654,-4.1312,-4.1977,-4.2691,-4.2825,-4.2869,-4.2772,-4.2251,-4.1568,-4.0828,-4.0593,-4.0493,-4.0482,-4.0364,-4.052,-4.1191,-4.1146,-4.1167,-4.1568,-4.0852,-4.0085,-3.9936,-3.9289,-3.8594,-3.8325,-3.8366,-3.8564,-4.5932,-4.5976,-4.5612,-4.4685,-4.345,-4.3196,-4.2431,-4.1337,-4.1337,-4.0951,-4.0301,-4.0157,-4.0028,-3.9919,-3.9792,-3.9785,-3.9933,-4.0017,-4.0108,-4.0215,-4.0244,-4.0282,-4.0301,-4.032,-4.032,-4.0309,-4.0309,-4.0318,-4.0345,-4.0318,-4.006,-3.961,-3.8819,-3.8463,-3.8501,-3.8076,-3.7878,-3.7913,-3.7543,-3.7204,-3.682,-3.6801,-3.6567,-3.6089,-3.6082,-3.5829,-3.5324,-3.5304,-3.5304,-3.5304,-3.5339,-3.5354,-3.5354,-3.5352,-3.5355,0.0,0.0,0.0,0.0,0.0,0.0,0.0,0.0,0.0,0.0,0.0,-3.5437,0.0,-3.5651,0.0,-3.6306,-3.6856,-3.7365,-3.7747,-3.8552,-3.9068,-3.9073,-3.9408,-3.9647,-3.966,-3.9663,-3.9819,-4.0313,-4.0717,-4.1293,-4.229,-4.1902,-4.1719,-4.2168,-4.2633,-4.3064,-4.3479,-4.3523,-4.3481,-4.3491,-4.3047,-4.2358,-4.1499,-4.1174,-4.0915,-4.0355,-4.0138,-4.0167,-4.0528,-4.0534,-4.0566,-4.0885,-4.04,-3.9798,-3.9501,-3.8933,-3.8354,-3.8052,-3.7967,-3.8078,-4.6504,-4.6556,-4.5886,-4.5542,-4.5437,-4.4905,-4.3761,-4.2286,-4.2286,-4.1758,-4.0917,-4.0428,-4.0292,-4.0399,-3.9946,-3.9833,-3.9972,-3.9993,-4.0065,-4.0209,-4.0175,-4.0196,-4.0273,-4.0263,-4.0282,-4.0263,-4.0282,-4.0282,-4.0282,-4.0272,-4.0244,-4.0043,-3.8601,-3.775,-3.7559,-3.7602,-3.76,-3.7466,-3.6791,-3.6048,-3.5312,-3.5274,-3.5274,-3.5293,-3.5293,-3.5297,-3.5277,-3.5277,-3.5277,-3.5285,-3.5285,-3.5285,-3.5285,-3.5297,-3.5278,0.0,-3.5278,0.0,0.0,0.0,0.0,0.0,0.0,0.0,0.0,-3.53,-3.5395,-3.5628,-3.5769,-3.6216,-3.7065,-3.737,-3.7812,-3.8572,-3.9445,-3.998,-4.0,-4.0659,-4.1114,-4.1112,-4.1112,-4.1098,-4.1106,-4.1852,-4.2405,-4.2629,-4.3263,-4.3775,-4.3984,-4.389,-4.3836,-4.389,-4.3875,-4.3986,-4.3787,-4.3645,-4.3247,-4.2383,-4.2044,-4.1609,-4.0677,-4.0397,-4.024,-4.0074,-3.996,-3.9853,-3.9713,-3.9471,-3.9207,-3.8991,-3.867,-3.8334,-3.8121,-3.8001,-3.7949,-4.7144,-4.7298,-4.7135,-4.6783,-4.6269,-4.6164,-4.5205,-4.37,-4.37,-4.294,-4.165,-4.102,-4.0836,-4.103,-4.103,-4.1166,-4.137,-4.081,-4.0664,-4.0821,-4.0217,-3.9977,-4.0067,-4.0098,-4.0137,-4.0137,-4.0118,-4.0137,-4.0118,-4.0186,-3.9853,-3.9185,-3.8898,-3.8075,0.0,0.0,0.0,0.0,-3.554,-3.5387,-3.5226,-3.5207,-3.5215,-3.5207,-3.5226,0.0,-3.5218,-3.5218,-3.5218,-3.5218,-3.5218,0.0,0.0,0.0,0.0,0.0,0.0,0.0,0.0,0.0,0.0,0.0,-3.5234,-3.5215,-3.5215,-3.5251,-3.5626,-3.6385,-3.6575,-3.7063,-3.7971,-3.8771,-3.9295,-3.9484,-4.0283,-4.0857,-4.0854,-4.101,-4.111,-4.1114,-4.1114,-4.1114,-4.1159,-4.1869,-4.2641,-4.327,-4.4116,-4.4942,-4.5653,-4.5135,-4.4988,-4.5543,-4.5531,-4.5303,-4.4652,-4.4515,-4.4131,-4.3311,-4.2946,-4.2464,-4.1573,-4.1227,-4.0832,-4.0217,-3.9986,-3.99,-3.967,-3.9477,-3.9277,-3.8931,-3.8698,-3.8415,-3.8189,-3.8088,-3.7984,-4.7133,0.0,-4.7356,-4.7212,0.0,-4.7,-4.6334,-4.5236,-4.444,-4.3464,-4.2359,-4.1685,-4.1479,-4.1579,-4.1291,-4.1311,-4.156,-4.1208,-4.1164,-4.1362,-4.0663,-4.039,-4.0487,-4.0205,-4.0046,-4.0057,-4.0077,-4.0106,-4.0106,-4.0137,-3.9928,-3.9509,-3.909,-3.847,-3.7651,-3.725,-3.6438,-3.5201,-3.5182,-3.5182,-3.5182,-3.5182,-3.5182,-3.5182,0.0,0.0,0.0,0.0,0.0,0.0,0.0,0.0,0.0,0.0,0.0,-3.5182,-3.5182,-3.5182,-3.5182,-3.5182,-3.5182,-3.5182,-3.5182,-3.5182,-3.5182,-3.561,-3.6113,-3.6615,-3.7126,-3.7823,-3.8739,-3.934,-3.9822,-4.0256,-4.0753,-4.1062,-4.1088,-4.1107,-4.1107,-4.1107,-4.1107,-4.1107,-4.1107,-4.2227,-4.3091,-4.3598,-4.4743,-4.5701,-4.6105,-4.5896,-4.5791,-4.6142,-4.6142,-4.5957,-4.557,-4.5425,-4.5068,-4.4244,-4.3878,-4.3393,-4.2456,-4.1809,-4.1264,-4.0748,-4.0335,-3.9933,-3.9735,-3.9582,-3.9363,-3.9059,-3.8818,-3.8575,-3.8354,-3.8189,-3.807,-4.6842,-4.7088,-4.7088,-4.7227,-4.7446,-4.7446,-4.7078,-4.6354,0.0,0.0,0.0,-4.2595,-4.2341,-4.2358,-4.1645,-4.1412,-4.1641,-4.1557,-4.1664,-4.1899,-4.1231,-4.0986,-4.1115,-4.0431,-4.0149,-4.0141,-4.0062,-4.0036,-4.0036,-4.0046,-4.0076,-4.0,-3.9354,-3.8946,-3.8756,-3.8004,-3.6937,-3.5692,-3.5463,-3.5329,-3.5185,-3.5185,-3.5185,-3.5185,-3.5193,-3.5185,-3.5185,-3.5193,-3.5193,-3.5185,-3.5185,-3.5185,-3.5185,-3.5193,-3.5193,-3.5193,-3.5193,-3.5201,-3.5182,-3.5182,-3.5201,-3.5182,-3.5182,-3.5182,-3.5182,-3.6015,-3.6591,-3.6795,-3.7678,-3.8598,-3.9515,-3.9735,-4.0102,-4.0833,-4.0957,-4.1029,-4.1081,-4.1088,-4.1107,-4.1107,-4.1107,-4.1107,-4.1149,-4.2354,-4.3445,-4.3741,-4.4865,-4.6056,-4.6165,-4.6181,-4.6169,-4.618,-4.6151,-4.6092,-4.6091,-4.6065,-4.5779,-4.5062,-4.4815,-4.4382,-4.3423,-4.2542,-4.1906,-4.1399,-4.0748,-4.0243,-3.9883,-3.9658,-3.9446,-3.921,-3.9007,-3.8788,-3.8541,-3.8368,-3.8239,-4.635,-4.6702,-4.6684,-4.6911,-4.7245,-4.7245,-4.6888,-4.6269,-4.5486,-4.5055,-4.491,-4.4133,-4.3883,-4.3942,-4.316,-4.2886,-4.2971,-4.233,-4.2151,0.0,-4.1668,-4.1444,-4.1637,-4.094,-4.0666,-4.0727,-4.0082,-3.9747,-3.9777,-3.9878,-3.9922,-3.9933,-3.9922,-3.9536,-3.8813,-3.8004,-3.749,-3.7262,-3.6538,-3.5815,-3.5129,-3.5129,-3.511,-3.5119,-3.5172,-3.5172,-3.511,-3.5164,-3.5172,-3.5138,-3.511,-3.511,-3.511,-3.5153,-3.5189,-3.5189,-3.5189,-3.5187,-3.5182,-3.5187,-3.5187,-3.5182,-3.5182,-3.5182,-3.522,-3.5996,-3.6832,-3.7568,-3.8524,-3.9461,-4.0321,-4.052,-4.0654,-4.0873,-4.0958,-4.1007,-4.1009,-4.1062,-4.1107,-4.1107,-4.1107,-4.1107,-4.1205,-4.1945,-4.2822,-4.3523,-4.4507,-4.5378,-4.6041,-4.6243,-4.6247,-4.6222,-4.6206,-4.6174,-4.6169,-4.6138,-4.5998,-4.5846,-4.5626,-4.5137,-4.4268,-4.3695,-4.2957,-4.1734,-4.1217,-4.0783,-4.0073,-3.9815,-3.9647,-3.9401,-3.9219,-3.9059,-3.8862,-3.8683,-3.8462,-4.5862,-4.6161,-4.6235,-4.6518,-4.687,-4.7129,-4.7114,-4.6934,-4.6633,-4.6026,-4.5291,-4.491,-4.4551,-4.4155,-4.381,-4.3486,-4.3178,-4.2814,-4.2738,-4.2871,-4.2233,-4.2023,-4.2102,-4.1493,-4.1258,-4.1325,-4.0578,-4.0215,-4.0264,-3.991,-3.9712,-3.9747,-3.9845,-3.967,-3.9291,-3.8931,-3.8534,-3.8062,-3.691,-3.6139,-3.5759,-3.5275,-3.5038,-3.5029,-3.5038,-3.502,-3.5001,-3.502,-3.4992,-3.4936,-3.4983,-3.4983,-3.4936,-3.5029,-3.5092,-3.5084,-3.5129,-3.5155,-3.5153,-3.5181,-3.5189,-3.5187,-3.5193,-3.5411,-3.587,-3.6678,-3.7526,-3.8421,-3.9314,-4.0013,-4.0434,-4.0624,-4.0726,-4.0767,-4.0873,-4.0958,-4.1003,-4.1009,-4.1059,-4.1088,-4.1107,-4.1107,-4.1107,-4.1809,-4.2393,-4.2939,-4.4001,-4.5186,-4.6039,-4.6245,-4.6269,-4.6204,-4.6197,-4.6203,-4.6196,-4.6181,-4.6149,-4.6123,-4.5578,-4.5073,-4.4478,-4.379,-4.2623,-4.1732,-4.117,-4.0606,-4.0055,-3.9922,-3.9781,-3.9623,-3.9464,-3.9317,-3.9101,-3.8873,-3.8588,-4.5424,-4.5684,-4.5811,-4.6112,-4.6542,-4.6911,-4.7183,-4.7381,-4.7407,-4.6807,-4.5884,-4.5633,-4.5218,-4.4639,-4.4277,-4.3808,-4.3358,-4.314,-4.3123,-4.3177,-4.2787,-4.2593,-4.2599,-4.2063,-4.1842,-4.186,-4.1162,-4.0772,-4.0613,-4.0008,-3.9633,-3.9564,-3.9587,-3.963,-3.9642,-3.9654,-3.9364,-3.869,-3.7404,-3.6577,-3.6198,-3.5533,-3.5116,-3.4917,-3.4888,-3.485,-3.484,-3.484,-3.4802,-3.4752,-3.4753,-3.4772,-3.4733,-3.485,-3.4927,-3.4955,-3.5011,-3.5058,-3.5048,-3.5101,-3.5155,-3.5155,-3.517,-3.5634,-3.6646,-3.7314,-3.8047,-3.8951,-3.9764,-4.0269,-4.0358,-4.0476,-4.0576,-4.0662,-4.0781,-4.0888,-4.0963,-4.098,-4.1022,-4.1075,-4.1078,-4.1098,-4.1179,-4.1611,-4.2078,-4.2471,-4.3637,-4.4832,-4.5462,-4.567,-4.5667,-4.5742,-4.5947,-4.621,-4.6201,-4.5992,-4.587,-4.5897,-4.5074,-4.4489,-4.4078,-4.3013,-4.209,-4.1739,-4.1109,-4.0568,-4.0243,-4.0067,-3.9924,-3.9804,-3.967,-3.9526,-3.9317,-3.9073,-3.8755,-4.514,-4.5274,-4.5415,-4.576,-4.6235,-4.6542,-4.6819,-4.7025,-4.7178,-4.728,-4.715,-4.668,-4.6321,-4.6069,-4.4765,-4.4115,-4.3916,-4.3245,-4.3012,-4.3105,-4.3069,-4.3105,-4.3154,-4.2592,-4.2373,-4.234,-4.1738,-4.107,-4.0518,-4.0347,-3.9991,-3.9399,-3.9389,-3.9446,-3.9446,-3.9489,-3.947,-3.9395,-3.8489,-3.7343,-3.6007,-3.5857,-3.544,-3.4645,-3.4687,-3.4687,-3.4626,-3.4634,-3.4594,-3.4539,-3.4465,-3.4484,-3.4528,-3.4575,-3.4687,-3.4809,-3.4819,-3.482,-3.4831,-3.4945,-3.5011,-3.502,-3.5075,-3.5768,-3.7271,-3.7557,-3.7966,-3.889,-3.9738,-4.0187,-4.0234,-4.0344,-4.0463,-4.0512,-4.0629,-4.0767,-4.0863,-4.0902,-4.0941,-4.1,-4.1019,-4.1027,-4.1041,-4.1142,-4.148,-4.2231,-4.3072,-4.3815,-4.4072,-4.4142,-4.4133,-4.4318,-4.5195,-4.6061,-4.5996,-4.5479,-4.5098,-4.495,-4.4234,-4.3695,-4.3391,-4.3182,-4.2799,-4.1643,-4.1561,-4.1048,-4.0481,-4.0177,-4.0119,-3.9996,-3.9881,-3.977,-3.9526,-3.9311,-3.9027,-4.4831,-4.4978,-4.5096,-4.5441,-4.5819,-4.6045,-4.6332,-4.6655,-4.6795,-4.6962,-4.7169,-4.6992,-4.6768,-4.6468,-4.5816,-4.5019,-4.4095,-4.3733,-4.3373,-4.303,-4.3067,-4.3123,-4.316,-4.2975,-4.2915,-4.2909,-4.2204,-4.177,-4.1437,-4.0707,-4.0127,-3.9802,-3.9439,-3.9219,-3.9237,-3.9245,-3.9259,-3.9253,-3.8915,-3.818,-3.7056,-3.6123,-3.5511,-3.5126,-3.4678,-3.4404,-3.4351,-3.4335,-3.4288,-3.4209,-3.4166,-3.4191,-3.4209,-3.4305,-3.4416,-3.4506,-3.4591,-3.4655,-3.467,-3.4761,-3.483,-3.4811,-3.4879,-3.5657,-3.728,-3.7479,-3.8031,-3.9335,-3.9917,-4.0128,-4.0157,-4.0215,-4.0298,-4.0375,-4.0469,-4.0588,-4.0706,-4.0757,-4.081,-4.0864,-4.0926,-4.0939,-4.0932,-4.0945,-4.133,-4.2085,-4.2654,-4.2965,-4.3456,-4.3617,-4.3626,-4.3717,-4.4339,-4.4668,-4.4749,-4.4469,-4.4209,-4.3988,-4.3376,-4.2778,-4.2689,-4.2188,-4.1658,-4.1229,-4.1179,-4.0993,-4.0485,-4.0297,-4.0215,-4.0128,-3.9986,-3.9848,-3.9747,-3.9563,-3.9344,-4.4699,-4.4654,-4.4759,-4.4998,-4.5354,-4.5529,-4.5786,-4.6112,-4.6308,-4.6542,-4.6795,-4.6911,-4.6834,-4.6596,-4.647,-4.5775,-4.4744,-4.4293,-4.3788,-4.3245,-4.3121,-4.3049,-4.3049,-4.3123,-4.3178,-4.3159,-4.2683,-4.2369,-4.2176,-4.1004,-4.0253,-3.9991,-3.9512,-3.9168,-3.8964,-3.896,-3.8974,-3.8956,-3.8942,-3.8621,-3.7895,-3.6661,-3.5784,-3.5391,-3.4772,-3.434,-3.4086,-3.4023,-3.3959,-3.3921,-3.3895,-3.3895,-3.3939,-3.4011,-3.4111,-3.4209,-3.4358,-3.442,-3.4495,-3.455,-3.4583,-3.4594,-3.466,-3.545,-3.69,-3.7337,-3.8136,-3.9659,-3.9986,-4.0007,-4.0046,-4.0098,-4.0177,-4.0243,-4.0314,-4.0403,-4.0521,-4.0597,-4.0681,-4.0771,-4.0812,-4.0863,-4.0859,-4.0883,-4.1144,-4.1702,-4.1885,-4.2069,-4.2695,-4.2809,-4.2817,-4.289,-4.2912,-4.3211,-4.3531,-4.3474,-4.3377,-4.31,-4.2554,-4.1968,-4.1956,-4.1321,-4.0932,-4.1031,-4.0776,-4.0622,-4.053,-4.0422,-4.0334,-4.0215,-4.008,-3.9965,-3.9892,-3.9751,-3.9658,-4.4779,-4.4205,-4.4281,-4.4519,-4.4763,-4.4961,-4.5194,-4.5468,-4.5709,-4.5988,-4.6228,-4.6374,-4.6554,-4.6705,-4.6424,-4.6263,-4.5959,-4.4778,-4.4148,-4.3949,-4.3281,-4.2937,-4.2901,-4.3031,-4.3104,-4.3086,-4.3051,-4.2704,-4.2029,-4.1189,-4.0387,-3.9727,-3.9662,-3.9273,-3.8721,-3.8692,-3.8686,-3.8649,-3.8603,-3.8504,-3.8342,-3.7549,-3.6472,-3.5363,-3.5096,-3.4696,-3.3981,-3.3771,-3.373,-3.3712,-3.3675,-3.3661,-3.3712,-3.3726,-3.3815,-3.3998,-3.4136,-3.4209,-3.424,-3.4269,-3.4316,-3.4347,-3.4514,-3.5252,-3.6878,-3.7243,-3.8067,-3.9641,-3.9815,-3.9837,-3.9911,-3.9975,-4.0057,-4.0108,-4.0168,-4.0278,-4.0378,-4.0462,-4.0576,-4.0661,-4.0688,-4.072,-4.0775,-4.0812,-4.0814,-4.0946,-4.0966,-4.1077,-4.1213,-4.1178,-4.1244,-4.1295,-4.1403,-4.1716,-4.3144,-4.2945,-4.2501,-4.2325,-4.1881,-4.1242,-4.1148,-4.1065,-4.0968,-4.0885,-4.0835,-4.0754,-4.0636,-4.0545,-4.0441,-4.0342,-4.0225,-4.0128,-4.0048,-3.9935,-3.9735,-4.4767,-4.4097,-4.4155,-4.4224,-4.4338,-4.4491,-4.4659,-4.4818,-4.5008,-4.5275,-4.5555,-4.5709,-4.5912,-4.6151,-4.6224,-4.618,-4.6069,-4.554,-4.5096,-4.4635,-4.3844,-4.3484,-4.343,-4.2999,-4.2765,-4.2785,-4.2786,-4.2717,-4.2466,-4.1742,-4.1234,-4.078,-3.9925,-3.9288,-3.8996,-3.8624,-3.8419,-3.8419,-3.8415,-3.8399,-3.8368,-3.8065,-3.7339,-3.6272,-3.5845,-3.5297,-3.4461,-3.4371,-3.4109,-3.3595,-3.3509,-3.3491,-3.3563,-3.3619,-3.3684,-3.3807,-3.3842,-3.3895,-3.3934,-3.3954,-3.3998,-3.4086,-3.4612,-3.5467,-3.6659,-3.743,-3.8302,-3.9305,-3.9647,-3.9724,-3.9834,-3.99,-3.9954,-4.0017,-4.0068,-4.0119,-4.0224,-4.0297,-4.0339,-4.0444,-4.0481,-4.0542,-4.0607,-4.0616,-4.0617,-4.0681,-4.0694,-4.0712,-4.075,-4.0779,-4.0804,-4.0903,-4.096,-4.1163,-4.1698,-4.1793,-4.1561,-4.1529,-4.1278,-4.1187,-4.1096,-4.1098,-4.1029,-4.1,-4.0953,-4.0883,-4.0762,-4.063,-4.0537,-4.0457,-4.0341,-4.0061,-4.0158,-3.9622,-3.9313,-4.4373,-4.3985,-4.3952,-4.3952,-4.3952,-4.4126,-4.4224,-4.4321,-4.4502,-4.4697,-4.4906,-4.5052,-4.5283,-4.5529,-4.5752,-4.5849,-4.5845,-4.586,-4.5648,-4.5197,-4.4426,-4.3945,-4.3681,-4.3178,-4.2803,-4.2645,-4.2609,-4.2649,-4.2653,-4.2243,-4.1865,-4.1504,-4.0456,-3.9698,-3.9246,-3.8773,-3.8464,-3.8263,-3.8223,-3.8223,-3.8191,-3.8174,-3.7888,-3.7227,-3.6799,-3.6116,-3.513,-3.5063,-3.4812,-3.4238,-3.3921,-3.3635,-3.3393,-3.3466,-3.3647,-3.3872,-3.3988,-3.4173,-3.4434,-3.4499,-3.4545,-3.4573,-3.5105,-3.5864,-3.6796,-3.7524,-3.8335,-3.912,-3.9446,-3.9563,-3.9701,-3.977,-3.9856,-3.9943,-3.9965,-4.0026,-4.0137,-4.0148,-4.0196,-4.0262,-4.0295,-4.0364,-4.0394,-4.0419,-4.0442,-4.0512,-4.0508,-4.053,-4.0586,-4.0615,-4.0675,-4.0798,-4.0849,-4.0904,-4.1198,-4.1259,-4.1261,-4.1211,-4.1224,-4.1136,-4.1103,-4.1109,-4.1096,-4.1089,-4.1042,-4.0991,-4.0869,-4.0734,-4.0617,-4.0547,-4.0115,-3.9723,-3.9475,-3.9032,-3.868,-4.3645,-4.3628,-4.3615,-4.3645,-4.3658,-4.3852,-4.3898,-4.3969,-4.4167,-4.431,-4.4378,-4.4446,-4.4714,-4.4951,-4.5042,-4.5222,-4.5526,-4.5575,-4.5648,-4.5646,-4.4916,-4.4268,-4.3763,-4.3513,-4.3074,-4.2548,-4.2589,-4.257,-4.2552,-4.2482,-4.216,-4.1547,-4.1333,-4.0524,-3.9175,-3.9103,-3.869,-3.8168,-3.8023,-3.7934,-3.7899,-3.7916,-3.788,-3.7809,-3.7754,-3.7087,-3.5748,-3.5738,-3.5666,-3.5421,-3.4846,-3.4076,-3.3471,-3.346,-3.3707,-3.4352,-3.4603,-3.506,-3.5675,-3.5772,-3.57,-3.5703,-3.5915,-3.6352,-3.7025,-3.7485,-3.8075,-3.8929,-3.9251,-3.9363,-3.9526,-3.9606,-3.9689,-3.9856,-3.987,-3.9922,-3.9965,-3.9996,-4.0057,-4.0147,-4.0168,-4.0196,-4.0215,-4.0261,-4.0288,-4.0306,-4.0321,-4.0336,-4.0397,-4.0462,-4.0552,-4.0655,-4.0732,-4.0779,-4.0878,-4.0968,-4.103,-4.1095,-4.113,-4.1113,-4.1109,-4.1101,-4.1112,-4.1087,-4.1098,-4.1036,-4.0964,-4.0811,-4.0588,-4.0416,-3.9894,-3.9333,-3.8896,-3.8463,-3.7929,-4.3615,-4.3615,-4.3615,-4.3615,-4.3598,-4.3658,-4.3687,-4.3704,-4.3805,-4.3894,-4.4027,-4.4085,-4.4241,-4.448,-4.4536,-4.4742,-4.5186,-4.5191,-4.5446,-4.5725,-4.5176,-4.4752,-4.441,-4.3541,-4.28,-4.2305,-4.2246,-4.2249,-4.2269,-4.2348,-4.2228,-4.1978,-4.1459,-4.0994,-4.0404,-3.9513,-3.8797,-3.86,-3.8115,-3.7864,-3.7775,-3.7757,-3.7739,-3.7703,-3.7739,-3.7488,-3.7057,-3.6639,-3.6133,-3.5596,-3.5307,-3.5056,-3.4824,-3.4787,-3.4911,-3.5127,-3.5229,-3.5333,-3.5568,-3.5674,-3.5758,-3.5828,-3.6206,-3.6651,-3.7057,-3.7705,-3.8242,-3.8703,-3.8902,-3.9087,-3.9219,-3.9356,-3.9508,-3.9735,-3.9758,-3.9758,-3.9781,-3.9792,-3.9826,-3.9892,-3.9905,-3.9967,-4.0029,-4.008,-4.0109,-4.0138,-4.0167,-4.0168,-4.0252,-4.0269,-4.0336,-4.0489,-4.0547,-4.0643,-4.0746,-4.0815,-4.0898,-4.0989,-4.1039,-4.1084,-4.1092,-4.1113,-4.1111,-4.1103,-4.1104,-4.1076,-4.1013,-4.0809,-4.0537,-4.0131,-3.9578,-3.9012,-3.8459,-3.7856,-3.7229,-4.3876,-4.3615,-4.3615,-4.3615,-4.3615,-4.3615,-4.3615,-4.3615,-4.3615,-4.3658,-4.3763,-4.3793,-4.3894,-4.4126,-4.4155,-4.4338,-4.4648,-4.4731,-4.4961,-4.5329,-4.5291,-4.5033,-4.4652,-4.3401,-4.258,-4.2194,-4.199,-4.1934,-4.1977,-4.2079,-4.2121,-4.2056,-4.1706,-4.1317,-4.1049,-4.0185,-3.9527,-3.8919,-3.8438,-3.8044,-3.7757,-3.7667,-3.7649,-3.7613,-3.7649,-3.7649,-3.7632,-3.722,-3.6824,-3.634,-3.6035,-3.5714,-3.5445,-3.5374,-3.5534,-3.5803,-3.5891,-3.6015,-3.6248,-3.6462,-3.6372,-3.6495,-3.6837,-3.7142,-3.7317,-3.792,-3.8218,-3.8364,-3.8572,-3.877,-3.8898,-3.9073,-3.9251,-3.9395,-3.9551,-3.9611,-3.9623,-3.9611,-3.9635,-3.9682,-3.9701,-3.9739,-3.9815,-3.9848,-3.9889,-3.9933,-3.9962,-3.9984,-4.0057,-4.0089,-4.0167,-4.0269,-4.0345,-4.0454,-4.0603,-4.0681,-4.0734,-4.0863,-4.0984,-4.1018,-4.1048,-4.1084,-4.1111,-4.1112,-4.1102,-4.1108,-4.104,-4.058,-4.0227,-3.9719,-3.911,-3.8317,-3.7586,-3.6939,-3.6363,-4.4257,-4.3631,-4.3615,-4.3615,-4.3615,-4.3615,-4.3615,-4.3615,-4.3615,-4.3598,-4.3645,-4.3645,-4.3704,-4.3852,-4.3881,-4.3998,-4.4097,-4.427,-4.4338,-4.4575,-4.4851,-4.4897,-4.4291,-4.3308,-4.2689,-4.2341,-4.1913,-4.1732,-4.1714,-4.1762,-4.1841,-4.1909,-4.1927,-4.1745,-4.1194,-4.1065,-4.0287,-3.9269,-3.8859,-3.8342,-3.77,-3.7558,-3.754,-3.754,-3.754,-3.7558,-3.7558,-3.7469,-3.7542,-3.7524,-3.6827,-3.6202,-3.5578,-3.5346,-3.5845,-3.647,-3.6576,-3.6951,-3.7506,-3.7524,-3.7595,-3.7488,-3.7506,-3.7685,-3.7667,-3.7773,-3.7967,-3.8086,-3.8251,-3.8412,-3.8554,-3.8725,-3.8873,-3.9003,-3.9253,-3.9421,-3.9477,-3.9477,-3.9464,-3.9458,-3.9471,-3.9514,-3.9563,-3.9575,-3.9611,-3.9677,-3.9712,-3.977,-3.9804,-3.9873,-3.9977,-4.005,-4.0139,-4.0258,-4.0391,-4.0454,-4.0535,-4.0693,-4.0811,-4.0875,-4.0933,-4.1012,-4.1097,-4.1111,-4.0859,-4.0932,-4.0762,-4.0178,-3.9648,-3.9073,-3.8322,-3.7428,-3.6778,-3.6246,-3.6002,-4.4274,-4.3615,-4.3615,-4.3615,-4.3615,-4.3615,-4.3615,-4.3615,-4.3615,-4.3615,-4.3615,-4.3615,-4.3628,-4.3687,-4.3704,-4.3793,-4.391,-4.3998,-4.4068,-4.4138,-4.4327,-4.4344,-4.4138,-4.3778,-4.3044,-4.2286,-4.1983,-4.1719,-4.1261,-4.1408,-4.152,-4.1547,-4.174,-4.1778,-4.1552,-4.1106,-4.0724,-4.0101,-3.8978,-3.8373,-3.8054,-3.7525,-3.7242,-3.7242,-3.7317,-3.7372,-3.7372,-3.7372,-3.7448,-3.7613,-3.7452,-3.7238,-3.6899,-3.6863,-3.6934,-3.7131,-3.7256,-3.7381,-3.756,-3.7649,-3.7649,-3.7631,-3.7631,-3.7631,-3.7631,-3.7703,-3.7757,-3.7845,-3.7984,-3.8101,-3.8168,-3.8352,-3.8496,-3.8664,-3.8937,-3.9192,-3.9205,-3.9205,-3.9205,-3.921,-3.9224,-3.9232,-3.9285,-3.9337,-3.9389,-3.9464,-3.9539,-3.9599,-3.9623,-3.9712,-3.9792,-3.9859,-3.9948,-4.0041,-4.0158,-4.0232,-4.0345,-4.0508,-4.061,-4.0688,-4.076,-4.0854,-4.0981,-4.1073,-4.0264,-4.0076,-3.9824,-3.9426,-3.8906,-3.8364,-3.7717,-3.693,-3.6414,-3.5907,-3.5872,-4.4539,-4.3615,-4.3615,-4.3615,-4.3615,-4.3615,-4.3615,-4.3615,-4.3615,-4.3615,-4.3615,-4.3615,-4.3615,-4.3615,-4.3615,-4.3674,-4.3763,-4.3763,-4.3822,-4.3894,-4.3998,-4.4046,-4.3976,-4.3824,-4.324,-4.2535,-4.2037,-4.1621,-4.1288,-4.1191,-4.1134,-4.1186,-4.1368,-4.148,-4.1472,-4.1248,-4.0856,-4.0429,-3.9504,-3.881,-3.8067,-3.7612,-3.7231,-3.7077,-3.7068,-3.7106,-3.7163,-3.7182,-3.7241,-3.7411,-3.7466,-3.7466,-3.7466,-3.7484,-3.7466,-3.7466,-3.7485,-3.7522,-3.7522,-3.7558,-3.7595,-3.7595,-3.7595,-3.7595,-3.7595,-3.7649,-3.7649,-3.7667,-3.7792,-3.7862,-3.7915,-3.8053,-3.8204,-3.8332,-3.8535,-3.8752,-3.8888,-3.8939,-3.8902,-3.8902,-3.8917,-3.895,-3.9017,-3.9073,-3.9124,-3.9219,-3.9292,-3.9363,-3.9414,-3.9539,-3.9625,-3.9677,-3.9747,-3.987,-3.9958,-4.0021,-4.0129,-4.0294,-3.9912,-4.0067,-4.038,-4.0449,-4.0266,-4.0123,-3.9559,-3.9153,-3.8937,-3.8632,-3.8065,-3.7532,-3.7014,-3.6606,-3.6138,-3.5883,-3.5827,-4.4875,-4.3568,-4.3568,-4.3568,-4.3568,-4.3568,-4.3568,-4.3615,-4.3615,-4.3615,-4.3615,-4.3615,-4.3615,-4.3615,-4.3615,-4.3615,-4.3598,-4.3645,-4.3645,-4.3687,-4.3793,-4.3914,-4.393,-4.3676,-4.3328,-4.2962,-4.2025,-4.1613,-4.1375,-4.0962,-4.0758,-4.0769,-4.0877,-4.0977,-4.1053,-4.1139,-4.0877,-4.0384,-3.9951,-3.919,-3.8187,-3.7681,-3.7259,-3.6925,-3.6728,-3.6791,-3.6871,-3.6911,-3.697,-3.7163,-3.722,-3.7222,-3.7239,-3.7239,-3.7239,-3.7259,-3.7317,-3.7373,-3.7392,-3.7466,-3.754,-3.754,-3.7558,-3.7558,-3.754,-3.7558,-3.7558,-3.7558,-3.7631,-3.7649,-3.7667,-3.7827,-3.7897,-3.7983,-3.8051,-3.8238,-3.8483,-3.8611,-3.8609,-3.8572,-3.859,-3.8655,-3.8716,-3.8743,-3.877,-3.8884,-3.898,-3.9091,-3.9205,-3.9349,-3.9407,-3.9464,-3.9557,-3.9679,-3.9766,-3.9837,-3.9948,-3.9995,-3.9244,-3.915,-3.9695,-3.9713,-3.9301,-3.8937,-3.8634,-3.8402,-3.8259,-3.7812,-3.724,-3.6914,-3.6541,-3.626,-3.5994,-3.5944,-3.5886,-4.4517,-4.3204,-4.3221,-4.3295,-4.3432,-4.3432,-4.3492,-4.3598,-4.3615,-4.3568,-4.3615,-4.3615,-4.3598,-4.3615,-4.3598,-4.3615,-4.3598,-4.3568,-4.3615,-4.3628,-4.3628,-4.3658,-4.3759,-4.3747,-4.3573,-4.3116,-4.2836,-4.2068,-4.1247,-4.0931,-4.0637,-4.0189,-4.0337,-4.0461,-4.0493,-4.0563,-4.0542,-4.0244,-3.9727,-3.9228,-3.8623,-3.7661,-3.7108,-3.6794,-3.647,-3.6343,-3.6426,-3.6447,-3.6426,-3.6468,-3.6673,-3.6796,-3.6873,-3.6893,-3.6893,-3.6933,-3.705,-3.7147,-3.7185,-3.726,-3.7353,-3.7317,-3.7334,-3.7354,-3.7372,-3.7411,-3.7429,-3.7448,-3.7466,-3.7448,-3.7411,-3.7467,-3.7541,-3.7577,-3.7649,-3.7739,-3.7863,-3.8069,-3.8201,-3.8218,-3.8218,-3.8236,-3.8251,-3.8352,-3.8415,-3.8523,-3.8661,-3.8811,-3.8974,-3.912,-3.9197,-3.9227,-3.9356,-3.947,-3.9576,-3.9635,-3.9762,-3.9724,-3.8994,-3.8332,-3.8877,-3.8819,-3.8353,-3.8059,-3.7823,-3.7622,-3.7394,-3.694,-3.6345,-3.6213,-3.6169,-3.6055,-3.5975,-3.5951,-3.5961,-4.4218,-4.2898,-4.2865,-4.299,-4.3146,-4.316,-4.3267,-4.3342,-4.3372,-4.3372,-4.3402,-4.3479,-4.3509,-4.3509,-4.3509,-4.3509,-4.3462,-4.3402,-4.3372,-4.3355,-4.3372,-4.3372,-4.3402,-4.3535,-4.3405,-4.3128,-4.2795,-4.2014,-4.1244,-4.0727,-4.0284,-3.9633,-3.9738,-3.9799,-3.9867,-3.991,-3.9927,-3.9851,-3.9514,-3.9059,-3.8522,-3.7935,-3.7026,-3.6542,-3.6056,-3.581,-3.5876,-3.5893,-3.5832,-3.5832,-3.5941,-3.6139,-3.635,-3.6392,-3.6412,-3.6492,-3.6632,-3.6774,-3.6814,-3.6893,-3.697,-3.6972,-3.6989,-3.7029,-3.7068,-3.7164,-3.7203,-3.7222,-3.7241,-3.7241,-3.7182,-3.7201,-3.7203,-3.7222,-3.7279,-3.7317,-3.7373,-3.7631,-3.7844,-3.7862,-3.7862,-3.788,-3.7915,-3.7984,-3.8053,-3.8153,-3.83,-3.8442,-3.8631,-3.8785,-3.8931,-3.9031,-3.9129,-3.9242,-3.9356,-3.9464,-3.9587,-3.9422,-3.898,-3.8306,-3.8127,-3.7795,-3.7322,-3.7141,-3.698,-3.6615,-3.6323,-3.588,-3.5849,-3.5951,-3.5999,-3.5958,-3.595,-3.5955,-3.5976,-4.3573,-4.2349,-4.2396,-4.2539,-4.2728,-4.2759,-4.2883,-4.3005,-4.3005,-4.3052,-4.3066,-4.3251,-4.3281,-4.3281,-4.3298,-4.3312,-4.3204,-4.3096,-4.3035,-4.3052,-4.3052,-4.3021,-4.3052,-4.3066,-4.3111,-4.3199,-4.2815,-4.2074,-4.1379,-4.0706,-4.0194,-3.9466,-3.9169,-3.9276,-3.9312,-3.9312,-3.9339,-3.9305,-3.9272,-3.8987,-3.8401,-3.8044,-3.731,-3.6246,-3.5806,-3.5461,-3.5423,-3.5373,-3.5333,-3.527,-3.5118,-3.527,-3.5571,-3.5793,-3.5837,-3.5963,-3.6114,-3.6259,-3.6364,-3.6451,-3.6512,-3.6474,-3.6474,-3.6553,-3.6635,-3.6774,-3.6834,-3.6893,-3.6913,-3.6952,-3.6928,-3.6871,-3.6871,-3.6891,-3.6891,-3.6891,-3.695,-3.7204,-3.7337,-3.7522,-3.7577,-3.7595,-3.7595,-3.7649,-3.7703,-3.7792,-3.7932,-3.8085,-3.8267,-3.8446,-3.8569,-3.8725,-3.8829,-3.9007,-3.9129,-3.9259,-3.9389,-3.9245,-3.8877,-3.8271,-3.7602,-3.7034,-3.667,-3.6349,-3.6106,-3.5852,-3.5764,-3.5723,-3.5732,-3.5829,-3.5891,-3.5885,-3.5912,-3.595,-3.5968,-4.2048,-4.1294,-4.1458,-4.1688,-4.1981,-4.2158,-4.2381,-4.2648,-4.2648,-4.2695,-4.2679,-4.2867,-4.2867,-4.2789,-4.293,-4.2883,-4.2726,-4.2648,-4.2617,-4.2617,-4.2633,-4.2633,-4.2585,-4.2601,-4.268,-4.2805,-4.2731,-4.2427,-4.1786,-4.1189,-4.0446,-3.9762,-3.9215,-3.898,-3.8931,-3.8914,-3.8898,-3.8925,-3.8898,-3.8767,-3.8559,-3.7974,-3.7272,-3.6116,-3.5803,-3.5462,-3.5086,-3.5011,-3.493,-3.4818,-3.4804,-3.4763,-3.4866,-3.5078,-3.5281,-3.5441,-3.5588,-3.5744,-3.5893,-3.5985,-3.5994,-3.5998,-3.5994,-3.6015,-3.6118,-3.6284,-3.6406,-3.6447,-3.6509,-3.653,-3.6426,-3.6426,-3.6426,-3.6426,-3.6426,-3.6406,-3.6409,-3.6533,-3.6736,-3.6993,-3.7166,-3.7334,-3.7316,-3.7353,-3.7428,-3.7521,-3.7649,-3.7774,-3.795,-3.8086,-3.8219,-3.8366,-3.8478,-3.8695,-3.8906,-3.9045,-3.9165,-3.9083,-3.8752,-3.8165,-3.7453,-3.6586,-3.6073,-3.5935,-3.5714,-3.5525,-3.549,-3.5519,-3.5588,-3.5665,-3.5743,-3.5815,-3.5837,-3.583,-3.5886,-4.1078,-4.0462,-4.065,-4.0888,-4.1142,-4.1474,-4.1704,-4.1916,-4.2013,-4.2077,-4.211,-4.2238,-4.2269,-4.2221,-4.2269,-4.2238,-4.211,-4.2093,-4.2029,-4.1948,-4.1916,-4.1916,-4.1948,-4.2029,-4.2142,-4.2254,-4.2428,-4.2338,-4.1794,-4.1482,-4.0701,-3.9821,-3.9284,-3.8991,-3.8637,-3.86,-3.8583,-3.8572,-3.86,-3.86,-3.8551,-3.7872,-3.7112,-3.6659,-3.5929,-3.5439,-3.5177,-3.4726,-3.4586,-3.4497,-3.4407,-3.4374,-3.4399,-3.4497,-3.4732,-3.493,-3.5078,-3.5218,-3.531,-3.5362,-3.5385,-3.5368,-3.5391,-3.543,-3.5521,-3.5694,-3.5893,-3.6002,-3.598,-3.6002,-3.5937,-3.5937,-3.5937,-3.5937,-3.5937,-3.5937,-3.5958,-3.6002,-3.6199,-3.6454,-3.6652,-3.6811,-3.6987,-3.7046,-3.7143,-3.7239,-3.7353,-3.7484,-3.7631,-3.7721,-3.7845,-3.8036,-3.8171,-3.8334,-3.8556,-3.8725,-3.8855,-3.8812,-3.8702,-3.8141,-3.7536,-3.6786,-3.6145,-3.5752,-3.5524,-3.5166,-3.5285,-3.534,-3.5412,-3.5476,-3.556,-3.563,-3.5697,-3.5737,-3.5788,-4.0206,-3.9692,-3.9884,-4.0111,-4.0389,-4.0699,-4.0987,-4.1156,-4.1307,-4.139,-4.139,-4.154,-4.1574,-4.1541,-4.1508,-4.1458,-4.1357,-4.139,-4.129,-4.1223,-4.1174,-4.1156,-4.1189,-4.1372,-4.1538,-4.1736,-4.1883,-4.1853,-4.1767,-4.1505,-4.073,-3.9906,-3.9518,-3.9017,-3.8452,-3.8262,-3.8278,-3.8307,-3.8307,-3.8307,-3.8145,-3.7773,-3.7365,-3.7252,-3.6269,-3.5789,-3.5587,-3.4951,-3.4633,-3.4469,-3.4289,-3.4101,-3.4059,-3.4075,-3.425,-3.4521,-3.4594,-3.4691,-3.4787,-3.4835,-3.4883,-3.4906,-3.4835,-3.4899,-3.4994,-3.5171,-3.5356,-3.5538,-3.5538,-3.5464,-3.5464,-3.5464,-3.5464,-3.5464,-3.5464,-3.5464,-3.547,-3.5515,-3.5583,-3.5827,-3.6067,-3.628,-3.6468,-3.6748,-3.6869,-3.6908,-3.7007,-3.7182,-3.7316,-3.7336,-3.7466,-3.7703,-3.7881,-3.8002,-3.817,-3.835,-3.8476,-3.8496,-3.8552,-3.8297,-3.7724,-3.7121,-3.6447,-3.5684,-3.5047,-3.4774,-3.4963,-3.5151,-3.5203,-3.527,-3.5369,-3.5451,-3.55,-3.559,-3.5664,-3.8988,-3.8965,-3.9162,-3.9451,-3.9788,-3.997,-4.0266,-4.0558,-4.0593,-4.0627,-4.0646,-4.0783,-4.0817,-4.0699,-4.0631,-4.0646,-4.0612,-4.0612,-4.0578,-4.0509,-4.0509,-4.0509,-4.0593,-4.0799,-4.0953,-4.1138,-4.1339,-4.1655,-4.1677,-4.1373,-4.0812,-4.0027,-3.937,-3.8729,-3.8187,-3.7995,-3.7963,-3.7947,-3.7963,-3.7963,-3.796,-3.7978,-3.7665,-3.7302,-3.6982,-3.6675,-3.6125,-3.5435,-3.502,-3.4846,-3.4406,-3.4106,-3.3949,-3.4025,-3.4101,-3.4201,-3.4275,-3.4399,-3.4521,-3.4546,-3.4546,-3.4546,-3.4546,-3.4562,-3.4594,-3.4691,-3.4835,-3.4994,-3.4994,-3.4994,-3.4977,-3.4994,-3.4994,-3.4977,-3.4977,-3.4977,-3.4977,-3.4984,-3.5055,-3.5142,-3.5356,-3.5661,-3.5946,-3.628,-3.6547,-3.6606,-3.6705,-3.6849,-3.7005,-3.7046,-3.7106,-3.7353,-3.7466,-3.7577,-3.7739,-3.7949,-3.8068,-3.8167,-3.8273,-3.8315,-3.7853,-3.72,-3.6338,-3.5588,-3.4951,-3.4529,-3.466,-3.4812,-3.4926,-3.5044,-3.5147,-3.5235,-3.5311,-3.5405,-3.5538,-3.8464,-3.8486,-3.8686,-3.8848,-3.9068,-3.9307,-3.9538,-3.9702,-3.9809,-3.9879,-3.9864,-3.995,-3.9935,-3.9915,-3.9879,-3.9864,-3.9879,-3.9864,-3.9809,-3.9737,-3.9737,-3.9753,-3.9788,-4.0036,-4.0266,-4.0474,-4.073,-4.0885,-4.1131,-4.1288,-4.0992,-4.0245,-3.9579,-3.8974,-3.8104,-3.7785,-3.7658,-3.761,-3.761,-3.761,-3.7669,-3.7786,-3.7761,-3.7441,-3.7215,-3.6917,-3.6532,-3.5824,-3.5385,-3.5224,-3.4904,-3.4814,-3.4825,-3.4846,-3.4803,-3.4458,-3.451,-3.4445,-3.4332,-3.4308,-3.4275,-3.425,-3.4201,-3.4167,-3.4176,-3.4226,-3.4325,-3.4423,-3.4448,-3.4448,-3.4472,-3.4448,-3.4448,-3.4448,-3.4497,-3.4472,-3.4489,-3.4448,-3.4472,-3.4546,-3.4659,-3.4968,-3.5305,-3.5599,-3.5941,-3.6191,-3.6297,-3.6464,-3.6647,-3.6841,-3.6906,-3.7009,-3.7087,-3.7127,-3.7318,-3.7504,-3.7667,-3.7774,-3.7984,-3.799,-3.7847,-3.7231,-3.6376,-3.5728,-3.522,-3.4858,-3.4577,-3.4498,-3.463,-3.4782,-3.4917,-3.4991,-3.5088,-3.5277,-3.5643,-3.8202,-3.824,-3.8366,-3.8441,-3.8501,-3.8797,-3.8995,-3.9053,-3.9199,-3.9256,-3.9271,-3.9271,-3.9256,-3.9256,-3.9256,-3.9292,-3.9256,-3.9241,-3.9147,-3.9053,-3.9017,-3.9068,-3.9199,-3.9379,-3.9559,-3.9717,-3.995,-4.0161,-4.0355,-4.0576,-4.0569,-4.0206,-3.9438,-3.8811,-3.8152,-3.7494,-3.7134,-3.7164,-3.7164,-3.7148,-3.7178,-3.7329,-3.7433,-3.7363,-3.7194,-3.6963,-3.6851,-3.6149,-3.5684,-3.5483,-3.5187,-3.503,-3.5074,-3.5078,-3.5035,-3.48,-3.4748,-3.467,-3.4402,-3.4227,-3.403,-3.3924,-3.3873,-3.3838,-3.3838,-3.3822,-3.3873,-3.4025,-3.4025,-3.4025,-3.4,-3.4025,-3.4025,-3.405,-3.4009,-3.4,-3.4016,-3.4025,-3.405,-3.4101,-3.4176,-3.425,-3.4586,-3.4904,-3.5253,-3.5672,-3.5893,-3.6049,-3.6255,-3.6475,-3.6544,-3.6594,-3.6655,-3.6733,-3.6893,-3.705,-3.7222,-3.7373,-3.7576,-3.7632,-3.7487,-3.7157,-3.6499,-3.5942,-3.5466,-3.4998,-3.4596,-3.4457,-3.4351,-3.452,-3.4649,-3.4751,-3.486,-3.5124,-3.5834,-3.8202,-3.8202,-3.824,-3.8329,-3.8478,-3.8516,-3.8649,-3.8797,-3.8833,-3.8819,-3.8833,-3.8833,-3.8819,-3.8855,-3.8819,-3.8833,-3.8855,-3.8833,-3.8833,-3.8833,-3.8833,-3.8797,-3.8833,-3.8907,-3.9017,-3.9141,-3.9343,-3.9415,-3.9436,-3.96,-3.963,-3.9474,-3.8862,-3.8186,-3.7524,-3.6955,-3.6554,-3.6523,-3.6523,-3.6538,-3.6585,-3.6677,-3.6815,-3.6952,-3.7055,-3.716,-3.7128,-3.6366,-3.5859,-3.5636,-3.5234,-3.4986,-3.5048,-3.5163,-3.5125,-3.4964,-3.4914,-3.4801,-3.4569,-3.4202,-3.375,-3.3613,-3.3487,-3.3461,-3.3461,-3.3617,-3.3694,-3.3668,-3.3658,-3.3668,-3.3694,-3.372,-3.3658,-3.3658,-3.3633,-3.3633,-3.3658,-3.3668,-3.3694,-3.372,-3.3771,-3.3848,-3.3924,-3.4267,-3.4682,-3.5085,-3.5407,-3.5571,-3.5788,-3.5958,-3.6067,-3.6139,-3.6241,-3.6346,-3.6485,-3.6612,-3.6696,-3.6836,-3.7031,-3.7108,-3.7097,-3.6752,-3.6542,-3.6147,-3.5675,-3.5128,-3.471,-3.4666,-3.4573,-3.4407,-3.4404,-3.4562,-3.5088,-3.5605,-3.6388,-3.8202,-3.8202,-3.8202,-3.824,-3.8329,-3.8329,-3.8366,-3.8427,-3.8427,-3.8427,-3.8464,-3.8427,-3.8412,-3.8412,-3.8427,-3.8427,-3.8412,-3.8464,-3.8464,-3.8427,-3.8427,-3.8427,-3.8464,-3.8575,-3.8664,-3.8738,-3.8848,-3.8943,-3.9038,-3.8907,-3.8855,-3.8659,-3.817,-3.7809,-3.7207,-3.6375,-3.5906,-3.5816,-3.58,-3.5816,-3.5879,-3.5975,-3.6101,-3.618,-3.6321,-3.6399,-3.6306,-3.6044,-3.5829,-3.5613,-3.5276,-3.5155,-3.511,-3.5248,-3.5156,-3.4986,-3.4924,-3.4755,-3.4537,-3.4278,-3.4152,-3.3521,-3.3224,-3.2953,-3.2985,-3.3007,-3.3091,-3.3134,-3.3187,-3.3187,-3.3203,-3.3203,-3.3203,-3.3219,-3.3229,-3.3256,-3.324,-3.3277,-3.333,-3.333,-3.3424,-3.3529,-3.3607,-3.3668,-3.4084,-3.4505,-3.4802,-3.5091,-3.5276,-3.5413,-3.5526,-3.5616,-3.5705,-3.5837,-3.5985,-3.6071,-3.6156,-3.6305,-3.6451,-3.6533,-3.6597,-3.6843,-3.6595,-3.6248,-3.5916,-3.5509,-3.5197,-3.5004,-3.4812,-3.4557,-3.4482,-3.4487,-3.5156,-3.6002,-3.6912,-3.8202,-3.8202,-3.8202,-3.8202,-3.8202,-3.8202,-3.8202,-3.8202,-3.8202,-3.8202,-3.8202,-3.8202,-3.8202,-3.8202,-3.8202,-3.8202,-3.824,-3.824,-3.824,-3.824,-3.824,-3.8202,-3.824,-3.8315,-3.8427,-3.8441,-3.8441,-3.8538,-3.8501,-3.8329,-3.8248,-3.7966,-3.7395,-3.6989,-3.6749,-3.5829,-3.5121,-3.5088,-3.5088,-3.5088,-3.5121,-3.5234,-3.535,-3.5382,-3.5464,-3.5482,-3.5482,-3.5357,-3.5322,-3.5225,-3.5097,-3.5142,-3.5222,-3.529,-3.5145,-3.494,-3.4763,-3.4536,-3.4345,-3.4136,-3.4108,-3.3297,-3.2944,-3.2604,-3.2416,-3.2355,-3.248,-3.2551,-3.2594,-3.2609,-3.2609,-3.2648,-3.2703,-3.2703,-3.2784,-3.2812,-3.2823,-3.285,-3.2904,-3.2958,-3.3054,-3.3134,-3.3229,-3.3319,-3.3642,-3.4025,-3.4308,-3.4537,-3.4682,-3.4826,-3.492,-3.5038,-3.5131,-3.5293,-3.5436,-3.5543,-3.5611,-3.5722,-3.5859,-3.5941,-3.6075,-3.635,-3.6498,-3.6177,-3.5898,-3.5817,-3.5615,-3.5366,-3.5031,-3.4673,-3.4789,-3.5071,-3.5658,-3.6553,-3.7285,-3.8202,-3.8202,-3.8202,-3.8202,-3.8202,-3.8202,-3.8202,-3.8202,-3.8202,-3.8202,-3.8202,-3.8202,-3.8202,-3.8202,-3.8202,-3.8165,-3.8179,-3.8179,-3.8142,-3.8127,-3.8104,-3.8165,-3.8165,-3.8165,-3.8127,-3.8127,-3.8104,-3.8043,-3.7982,-3.7815,-3.7687,-3.7291,-3.6646,-3.5956,-3.6156,-3.5087,-3.4477,-3.4433,-3.4481,-3.4467,-3.4501,-3.4534,-3.462,-3.4658,-3.471,-3.4743,-3.4758,-3.471,-3.4673,-3.4601,-3.4568,-3.4534,-3.4553,-3.4639,-3.4618,-3.4559,-3.4545,-3.4545,-3.4534,-3.4003,-3.3516,-3.3006,-3.2735,-3.2313,-3.192,-3.1824,-3.1879,-3.1923,-3.1951,-3.1951,-3.1964,-3.2064,-3.2092,-3.2163,-3.2219,-3.2302,-3.2302,-3.237,-3.2425,-3.2523,-3.259,-3.2699,-3.2812,-3.2989,-3.3266,-3.3581,-3.3838,-3.4,-3.4126,-3.4226,-3.4308,-3.4407,-3.4529,-3.4658,-3.4809,-3.4961,-3.5095,-3.5171,-3.5247,-3.5316,-3.5453,-3.5661,-3.5764,-3.5843,-3.5928,-3.5833,-3.5789,-3.5703,-3.5581,-3.5553,-3.5692,-3.6007,-3.6514,-3.6988,-3.7636,-3.8202,-3.8202,-3.8202,-3.8202,-3.8202,-3.8202,-3.8202,-3.8202,-3.8202,-3.8202,-3.8202,-3.8202,-3.8202,-3.8202,-3.8165,-3.8089,-3.8005,-3.8005,-3.7967,-3.7801,-3.7801,-3.7801,-3.7801,-3.7801,-3.7801,-3.7801,-3.7739,-3.7663,-3.7701,-3.7457,-3.7419,-3.7068,-3.6028,-3.5159,-3.4773,-3.4203,-3.4088,-3.4054,-3.4054,-3.4054,-3.4088,-3.4088,-3.4122,-3.4176,-3.4128,-3.4162,-3.4162,-3.4147,-3.4094,-3.4054,-3.4054,-3.4054,-3.404,-3.4113,-3.4128,-3.4128,-3.4113,-3.4113,-3.4133,-3.3862,-3.3616,-3.3077,-3.247,-3.206,-3.1692,-3.1294,-3.1264,-3.1277,-3.1321,-3.1306,-3.1335,-3.1335,-3.1364,-3.1408,-3.1495,-3.1596,-3.1682,-3.1838,-3.1951,-3.2035,-3.212,-3.2315,-3.2441,-3.2468,-3.2699,-3.2904,-3.3102,-3.3382,-3.3565,-3.3591,-3.3668,-3.3745,-3.3873,-3.4009,-3.4159,-3.4349,-3.4448,-3.4488,-3.4561,-3.4626,-3.4778,-3.4991,-3.5121,-3.5255,-3.5587,-3.5878,-3.5841,-3.5905,-3.6427,-3.6612,-3.6368,-3.6482,-3.6951,-3.7305,-3.7722,-3.7976,-3.7991,-3.7976,-3.7953,-3.7938,-3.8127,-3.8165,-3.8104,-3.8104,-3.8066,-3.7976,-3.7976,-3.7976,-3.7991,-3.7915,-3.7877,-3.7701,-3.7625,-3.7572,-3.738,-3.7419,-3.738,-3.738,-3.738,-3.738,-3.738,-3.7303,-3.7278,-3.7226,-3.707,-3.6736,-3.6164,-3.555,-3.4635,-3.4044,-3.3738,-3.3675,-3.3675,-3.3675,-3.3689,-3.3675,-3.3675,-3.3689,-3.3709,-3.3709,-3.3709,-3.3709,-3.3709,-3.3675,-3.3675,-3.3675,-3.3675,-3.3675,-3.3675,-3.3675,-3.3675,-3.3675,-3.3695,-3.3681,-3.3681,-3.3434,-3.3187,-3.236,-3.1861,-3.155,-3.1134,-3.083,-3.0759,-3.0717,-3.0673,-3.0673,-3.0673,-3.0732,-3.0807,-3.0896,-3.1014,-3.1058,-3.1219,-3.1306,-3.1437,-3.1523,-3.1766,-3.1979,-3.202,-3.2104,-3.2216,-3.2342,-3.2645,-3.2958,-3.3054,-3.3123,-3.3214,-3.3319,-3.3487,-3.3617,-3.372,-3.3797,-3.3822,-3.3899,-3.3984,-3.4126,-3.4317,-3.4488,-3.469,-3.5005,-3.5368,-3.5749,-3.6028,-3.6281,-3.6449,-3.6425,-3.6719,-3.7308,-3.759,-3.7823,-3.7572,-3.7572,-3.7572,-3.7457,-3.7366,-3.7772,-3.7953,-3.7853,-3.7853,-3.7777,-3.7572,-3.7534,-3.7495,-3.7495,-3.7341,-3.7211,-3.7187,-3.7031,-3.6954,-3.69,-3.6836,-3.6875,-3.6875,-3.6822,-3.6744,-3.6783,-3.6744,-3.6561,-3.664,-3.6522,-3.5928,-3.5145,-3.4867,-3.4102,-3.3549,-3.3276,-3.3312,-3.3396,-3.3347,-3.3347,-3.3347,-3.3312,-3.329,-3.3276,-3.3276,-3.3276,-3.3276,-3.3276,-3.3276,-3.3276,-3.3276,-3.3276,-3.3276,-3.3276,-3.3276,-3.3276,-3.3276,-3.3276,-3.3276,-3.3276,-3.3192,-3.2961,-3.2823,-3.2118,-3.1457,-3.1002,-3.0574,-3.0292,-3.015,-3.0109,-3.0066,-3.0113,-3.0205,-3.0296,-3.0372,-3.0433,-3.0493,-3.0553,-3.0643,-3.0703,-3.0748,-3.094,-3.1219,-3.1335,-3.1407,-3.1537,-3.1652,-3.1836,-3.2188,-3.2578,-3.2648,-3.2773,-3.2866,-3.2973,-3.3081,-3.3118,-3.3171,-3.3235,-3.3288,-3.3393,-3.3539,-3.3694,-3.3908,-3.4143,-3.4456,-3.4778,-3.5161,-3.5504,-3.5859,-3.5996,-3.6116,-3.6628,-3.7113,-3.7521,-3.7816,-3.6954,-3.694,-3.6769,-3.6624,-3.6624,-3.678,-3.6989,-3.7264,-3.738,-3.7303,-3.694,-3.6954,-3.6808,-3.6663,-3.6638,-3.648,-3.6415,-3.631,-3.6191,-3.6151,-3.6071,-3.6085,-3.6045,-3.5951,-3.5924,-3.5884,-3.579,-3.579,-3.579,-3.5764,-3.5257,-3.4339,-3.4289,-3.3647,-3.3096,-3.2789,-3.298,-3.3136,-3.3086,-3.3086,-3.3002,-3.2931,-3.2909,-3.286,-3.286,-3.286,-3.286,-3.286,-3.2895,-3.286,-3.286,-3.286,-3.2895,-3.286,-3.286,-3.286,-3.286,-3.2895,-3.2846,-3.2846,-3.2775,-3.2596,-3.2518,-3.225,-3.1561,-3.087,-3.0346,-3.0033,-2.9726,-2.9659,-2.9551,-2.9557,-2.9651,-2.9713,-2.9792,-2.9853,-2.987,-2.9946,-3.0007,-3.0038,-3.0085,-3.0297,-3.0539,-3.0643,-3.0718,-3.0837,-3.0955,-3.1116,-3.1436,-3.1866,-3.2163,-3.2262,-3.2318,-3.2385,-3.2441,-3.2496,-3.2578,-3.2617,-3.2699,-3.278,-3.29,-3.3076,-3.3303,-3.3591,-3.3892,-3.4202,-3.4521,-3.4904,-3.5253,-3.5588,-3.5783,-3.6367,-3.6919,-3.7209,-3.7523,-3.6017,-3.6004,-3.587,-3.5749,-3.5669,-3.5669,-3.5803,-3.6044,-3.6494,-3.6455,-3.6191,-3.6057,-3.5924,-3.579,-3.5709,-3.5602,-3.5494,-3.5372,-3.525,-3.5209,-3.5182,-3.5182,-3.5154,-3.5059,-3.5059,-3.4977,-3.4977,-3.5018,-3.5018,-3.4993,-3.458,-3.3653,-3.3702,-3.3087,-3.2517,-3.2273,-3.2417,-3.261,-3.2717,-3.2739,-3.2668,-3.2561,-3.2489,-3.2453,-3.2453,-3.2453,-3.2453,-3.2453,-3.2453,-3.2453,-3.2453,-3.2453,-3.2453,-3.2439,-3.2453,-3.2453,-3.2453,-3.2453,-3.2453,-3.2381,-3.2273,-3.2128,-3.1969,-3.173,-3.1477,-3.0943,-3.0343,-2.9874,-2.9484,-2.9196,-2.9096,-2.9022,-2.9053,-2.9131,-2.918,-2.923,-2.9293,-2.9369,-2.9401,-2.9432,-2.9543,-2.9716,-2.9839,-2.9946,-3.0038,-3.016,-3.0251,-3.0328,-3.0748,-3.1263,-3.1567,-3.1754,-3.1739,-3.1768,-3.1796,-3.1824,-3.1866,-3.1979,-3.212,-3.2216,-3.2299,-3.2477,-3.2765,-3.3018,-3.3319,-3.3604,-3.3876,-3.4251,-3.4634,-3.4944,-3.5224,-3.5599,-3.6084,-3.6536,-3.6841,-3.4868,-3.4868,-3.4881,-3.4703,-3.4592,-3.4551,-3.4468,-3.4397,-3.506,-3.5359,-3.5182,-3.5005,-3.4881,-3.4731,-3.4607,-3.4579,-3.4551,-3.4481,-3.4481,-3.4314,-3.4356,-3.4397,-3.4369,-3.4285,-3.4147,-3.423,-3.423,-3.4176,-3.4314,-3.428,-3.3917,-3.2975,-3.2988,-3.2509,-3.1816,-3.1716,-3.18,-3.185,-3.1982,-3.2042,-3.2164,-3.2128,-3.2019,-3.1982,-3.1982,-3.1982,-3.1982,-3.1982,-3.2019,-3.1982,-3.1982,-3.1982,-3.1982,-3.1946,-3.1982,-3.1946,-3.1946,-3.1873,-3.1823,-3.1713,-3.1566,-3.1394,-3.1246,-3.1007,-3.0716,-3.0716,-3.0242,-2.9854,-2.9497,-2.906,-2.8851,-2.8787,-2.8798,-2.8746,-2.8734,-2.8766,-2.883,-2.8876,-2.8876,-2.8894,-2.8958,-2.9103,-2.9184,-2.9279,-2.9355,-2.9463,-2.9588,-2.9637,-2.9915,-3.0478,-3.0822,-3.1058,-3.1087,-3.1073,-3.1117,-3.1146,-3.1175,-3.1292,-3.1451,-3.1638,-3.1709,-3.1949,-3.2213,-3.2388,-3.2586,-3.2922,-3.3219,-3.3594,-3.3951,-3.4243,-3.4496,-3.4754,-3.5184,-3.5683,-3.6118,-3.3768,-3.3768,-3.3543,-3.3458,-3.3416,-3.3416,-3.3373,-3.3343,-3.3373,-3.37,-3.4021,-3.3882,-3.3713,-3.3573,-3.353,-3.3586,-3.3683,-3.3696,-3.3738,-3.3738,-3.3738,-3.3654,-3.3569,-3.3398,-3.3227,-3.3086,-3.3129,-3.3343,-3.3556,-3.3513,-3.3255,-3.2455,-3.2367,-3.1967,-3.1092,-3.1101,-3.111,-3.111,-3.0998,-3.1121,-3.1307,-3.1334,-3.1272,-3.1235,-3.1222,-3.1222,-3.1235,-3.1272,-3.1235,-3.1235,-3.1272,-3.1272,-3.1272,-3.1272,-3.1272,-3.1272,-3.1222,-3.1134,-3.0996,-3.0884,-3.0696,-3.0482,-3.0305,-3.0063,-2.9999,-3.0212,-3.0174,-2.9842,-2.9482,-2.8981,-2.8641,-2.8597,-2.8585,-2.8458,-2.8302,-2.8335,-2.8368,-2.8373,-2.8373,-2.8392,-2.8379,-2.8463,-2.8546,-2.8656,-2.8702,-2.8817,-2.8944,-2.9026,-2.9103,-2.9467,-2.9839,-3.0085,-3.0297,-3.0358,-3.0358,-3.0388,-3.0388,-3.0509,-3.0688,-3.0896,-3.1102,-3.1291,-3.1492,-3.1615,-3.1822,-3.2139,-3.2492,-3.2911,-3.3256,-3.3543,-3.3841,-3.4102,-3.4267,-3.469,-3.5191,-3.2939,-3.2939,-3.2797,-3.2754,-3.2754,-3.2754,-3.2754,-3.2711,-3.2506,-3.2581,-3.2914,-3.2927,-3.2884,-3.2754,-3.2754,-3.2797,-3.2982,-3.2939,-3.3025,-3.3025,-3.3056,-3.297,-3.2797,-3.268,-3.268,-3.255,-3.2593,-3.2766,-3.2982,-3.292,-3.2561,-3.1921,-3.1795,-3.1318,-3.0494,-3.042,-3.0317,-3.0292,-2.9985,-2.9999,-3.0279,-3.0228,-3.0279,-3.0279,-3.0317,-3.0317,-3.0317,-3.0355,-3.0419,-3.0419,-3.0406,-3.0419,-3.0419,-3.0406,-3.0419,-3.0394,-3.0305,-3.0216,-3.005,-2.9935,-2.9755,-2.9574,-2.9341,-2.9145,-2.9157,-2.9301,-2.9252,-2.8962,-2.9031,-2.8671,-2.8418,-2.8341,-2.856,-2.859,-2.8273,-2.8104,-2.7987,-2.7868,-2.7868,-2.7901,-2.7921,-2.7973,-2.8059,-2.817,-2.8249,-2.836,-2.8476,-2.8476,-2.8541,-2.8605,-2.8912,-2.9166,-2.9404,-2.9515,-2.9515,-2.9515,-2.9546,-2.9747,-2.9962,-3.0206,-3.0478,-3.0628,-3.0763,-3.0822,-3.0983,-3.1275,-3.1665,-3.213,-3.2532,-3.2857,-3.3166,-3.3455,-3.3601,-3.3755,-3.4177,-3.23,-3.23,-3.23,-3.23,-3.23,-3.23,-3.23,-3.2257,-3.2081,-3.1994,-3.2069,-3.2257,-3.23,-3.2313,-3.2313,-3.2356,-3.2388,-3.2463,-3.2431,-3.2475,-3.2419,-3.2463,-3.2419,-3.23,-3.2245,-3.2245,-3.2257,-3.23,-3.2444,-3.2382,-3.2136,-3.1467,-3.0969,-3.0511,-3.005,-2.9596,-2.9341,-2.9353,-2.9157,-2.8973,-2.9,-2.9067,-2.9275,-2.9314,-2.9302,-2.9263,-2.9341,-2.9406,-2.9549,-2.9549,-2.9561,-2.9561,-2.9574,-2.9561,-2.9561,-2.9535,-2.947,-2.9341,-2.9223,-2.9028,-2.887,-2.8685,-2.8498,-2.8419,-2.8431,-2.839,-2.8307,-2.8317,-2.8404,-2.8424,-2.8226,-2.8172,-2.8415,-2.8454,-2.81,-2.7829,-2.7635,-2.7478,-2.7452,-2.7426,-2.7403,-2.7436,-2.751,-2.761,-2.7723,-2.7868,-2.798,-2.798,-2.8013,-2.8066,-2.8249,-2.8365,-2.8514,-2.8597,-2.8693,-2.8803,-2.8899,-2.9026,-2.9265,-2.956,-2.9777,-2.9856,-2.9905,-2.9972,-3.0168,-3.048,-3.0881,-3.1306,-3.1737,-3.2132,-3.2535,-3.2807,-3.2873,-3.3049,-3.3198,-3.1837,-3.1849,-3.1849,-3.1849,-3.1849,-3.1849,-3.1849,-3.1849,-3.1793,-3.1749,-3.1793,-3.1805,-3.1849,-3.1849,-3.1849,-3.1893,-3.2081,-3.2069,-3.2213,-3.2344,-3.2157,-3.2125,-3.2081,-3.1981,-3.1893,-3.1893,-3.1893,-3.1937,-3.1994,-3.2001,-3.1782,-3.1284,-3.0676,-3.0099,-2.9427,-2.9008,-2.8697,-2.8657,-2.8526,-2.8379,-2.8419,-2.8498,-2.8618,-2.8657,-2.8657,-2.8657,-2.8697,-2.8697,-2.8736,-2.8736,-2.8776,-2.8776,-2.8803,-2.8803,-2.8803,-2.8803,-2.8736,-2.8605,-2.8486,-2.8327,-2.8207,-2.8111,-2.799,-2.7909,-2.7857,-2.7765,-2.7745,-2.7716,-2.783,-2.8096,-2.7987,-2.7982,-2.8124,-2.7866,-2.7519,-2.7462,-2.7387,-2.7233,-2.7119,-2.6905,-2.67,-2.6717,-2.6688,-2.679,-2.6939,-2.7121,-2.7335,-2.7369,-2.7436,-2.7536,-2.7603,-2.7656,-2.7743,-2.7954,-2.8151,-2.8249,-2.8346,-2.843,-2.8578,-2.8881,-2.9026,-2.8994,-2.9066,-2.9195,-2.9397,-2.9685,-3.0099,-3.0509,-3.0896,-3.1335,-3.1853,-3.2178,-3.2247,-3.2342,-3.2508]},{"header":{"parameterUnit":"m.s-1","parameterCategory":1,"la1":31.0,"la2":29.5877,"lo1":-88.7671,"lo2":-86.6584,"dy":0.0162,"dx":0.0185,"nx":115,"ny":88,"refTime":"2024-04-20T00:00:00:Z","depth":0,"parameterNumber":3,"parameterNumberName":"V-component_of_WINDS"},"data":[0.0,0.0,0.0,0.0,0.0,0.0,0.0,0.0,0.0,0.0,0.0,0.0,0.0,0.0,0.0,0.0,0.0,0.0,0.0,0.0,0.0,0.0,0.0,0.0,0.0,0.0,0.0,0.0,0.0,0.0,0.0,0.0,0.0,0.0,0.0,0.0,0.0,0.0,0.0,0.0,0.0,0.0,0.0,0.0,0.0,0.0,0.0,0.0,0.0,0.0,0.0,0.0,0.0,0.0,0.0,0.0,0.0,0.0,0.0,0.0,0.0,0.0,0.0,0.0,0.0,0.0,0.0,0.0,0.0,0.0,0.0,0.0,0.0,0.0,0.0,0.0,0.0,0.0,0.0,0.0,0.0,0.0,0.0,0.0,0.0,0.0,0.0,0.0,0.0,0.0,0.0,0.0,0.0,0.0,0.0,0.0,0.0,0.0,0.0,0.0,0.0,0.0,0.0,0.0,0.0,0.0,0.0,0.0,0.0,0.0,0.0,0.0,0.0,0.0,0.0,0.0,0.0,0.0,0.0,0.0,0.0,0.0,0.0,0.0,0.0,0.0,0.0,0.0,0.0,0.0,0.0,0.0,0.0,0.0,0.0,0.0,0.0,0.0,0.0,0.0,0.0,0.0,0.0,0.0,0.0,0.0,0.0,0.0,0.0,0.0,0.0,0.0,0.0,0.0,0.0,0.0,0.0,0.0,0.0,0.0,0.0,0.0,0.0,0.0,0.0,0.0,0.0,0.0,0.0,0.0,0.0,0.0,0.0,0.0,0.0,0.0,0.0,0.0,0.0,0.0,0.0,0.0,0.0,0.0,0.0,0.0,0.0,0.0,0.0,0.0,0.0,0.0,0.0,0.0,0.0,0.0,0.0,0.0,0.0,0.0,0.0,0.0,0.0,0.0,0.0,0.0,0.0,0.0,0.0,0.0,0.0,0.0,0.0,0.0,0.0,0.0,0.0,0.0,0.0,0.0,0.0,0.0,0.0,0.0,0.0,0.0,0.0,0.0,0.0,0.0,0.0,0.0,0.0,0.0,0.0,0.0,0.0,0.0,0.0,0.0,0.0,0.0,0.0,0.0,0.0,0.0,0.0,0.0,0.0,0.0,0.0,0.0,0.0,0.0,0.0,0.0,0.0,0.0,0.0,0.0,0.0,0.0,0.0,0.0,0.0,0.0,0.0,0.0,0.0,0.0,0.0,0.0,0.0,0.0,0.0,0.0,0.0,0.0,0.0,0.0,0.0,0.0,0.0,0.0,0.0,0.0,0.0,0.0,0.0,0.0,0.0,0.0,0.0,0.0,0.0,0.0,0.0,0.0,0.0,0.0,0.0,0.0,0.0,0.0,0.0,0.0,0.0,0.0,0.0,0.0,0.0,0.0,0.0,0.0,0.0,0.0,0.0,0.0,0.0,0.0,0.0,0.0,0.0,0.0,0.0,0.0,0.0,0.0,0.0,0.0,0.0,0.0,0.0,0.0,0.0,0.0,0.0,0.0,0.0,0.0,0.0,0.0,0.0,0.0,0.0,0.0,0.0,0.0,0.0,0.0,0.0,0.0,0.0,0.0,0.0,0.0,0.0,0.0,0.0,0.0,0.0,0.0,0.0,0.0,0.0,0.0,0.0,0.0,0.0,0.0,0.0,0.0,0.0,0.0,0.0,0.0,0.0,0.0,0.0,0.0,0.0,0.0,0.0,0.0,0.0,0.0,0.0,0.0,0.0,0.0,0.0,0.0,0.0,0.0,0.0,0.0,0.0,0.0,0.0,0.0,0.0,0.0,0.0,0.0,0.0,0.0,0.0,0.0,0.0,0.0,0.0,0.0,0.0,0.0,0.0,0.0,0.0,0.0,0.0,0.0,0.0,0.0,0.0,0.0,0.0,0.0,0.0,0.0,0.0,0.0,0.0,0.0,0.0,0.0,0.0,0.0,0.0,0.0,0.0,0.0,0.0,0.0,0.0,0.0,0.0,0.0,0.0,0.0,0.0,0.0,0.0,0.0,0.0,0.0,0.0,0.0,0.0,0.0,0.0,0.0,0.0,0.0,0.0,0.0,0.0,0.0,0.0,0.0,0.0,0.0,0.0,0.0,0.0,0.0,0.0,0.0,0.0,0.0,0.0,0.0,0.0,0.0,0.0,0.0,0.0,0.0,0.0,0.0,0.0,0.0,0.0,0.0,0.0,0.0,0.0,0.0,0.0,0.0,0.0,0.0,0.0,0.0,0.0,0.0,0.0,0.0,0.0,0.0,0.0,0.0,0.0,0.0,0.0,0.0,0.0,0.0,0.0,0.0,0.0,0.0,0.0,0.0,0.0,0.0,0.0,0.0,0.0,0.0,0.0,0.0,0.0,0.0,0.0,0.0,0.0,0.0,0.0,0.0,0.0,0.0,0.0,0.0,0.0,0.0,0.0,0.0,0.0,0.0,0.0,0.0,0.0,0.0,0.0,0.0,0.0,0.0,0.0,0.0,0.0,0.0,0.0,0.0,0.0,0.0,0.0,0.0,0.0,0.0,0.0,0.0,0.0,0.0,0.0,0.0,0.0,0.0,0.0,0.0,0.0,0.0,0.0,0.0,0.0,0.0,0.0,0.0,0.0,0.0,0.0,0.0,0.0,0.0,0.0,0.0,0.0,0.0,0.0,0.0,0.0,0.0,0.0,0.0,0.0,0.0,0.0,0.0,0.0,0.0,0.0,0.0,0.0,0.0,0.0,0.0,0.0,0.0,0.0,0.0,0.0,0.0,0.0,0.0,0.0,0.0,0.0,0.0,0.0,0.0,0.0,0.0,0.0,0.0,0.0,0.0,0.0,0.0,0.0,0.0,0.0,0.0,0.0,0.0,0.0,0.0,0.0,0.0,0.0,0.0,0.0,0.0,0.0,0.0,0.0,0.0,0.0,0.0,0.0,0.0,0.0,0.0,0.0,0.0,0.0,0.0,0.0,0.0,0.0,0.0,0.0,0.0,0.0,0.0,0.0,0.0,0.0,0.0,0.0,0.0,0.0,0.0,0.0,0.0,0.0,0.0,0.0,0.0,0.0,0.0,0.0,0.0,0.0,0.0,0.0,0.0,0.0,0.0,0.0,0.0,0.0,0.0,0.0,0.0,0.0,0.0,0.0,0.0,0.0,0.0,0.0,0.0,0.0,0.0,0.0,0.0,0.0,0.0,0.0,0.0,0.0,0.0,0.0,0.0,0.0,0.0,0.0,0.0,0.0,0.0,0.0,0.0,0.0,0.0,0.0,0.0,0.0,0.0,0.0,0.0,0.0,0.0,0.0,0.0,0.0,0.0,0.0,0.0,0.0,0.0,0.0,0.0,0.0,0.0,0.0,0.0,0.0,0.0,0.0,0.0,0.0,0.0,0.0,0.0,0.0,0.0,0.0,0.0,0.0,0.0,0.0,0.0,0.0,0.0,0.0,0.0,0.0,0.0,0.0,0.0,0.0,0.0,0.0,0.0,0.0,0.0,0.0,0.0,0.0,0.0,0.0,0.0,0.0,0.0,0.0,0.0,0.0,0.0,0.0,0.0,0.0,0.0,0.0,0.0,0.0,0.0,0.0,0.0,0.0,0.0,0.0,0.0,0.0,0.0,0.0,0.0,0.0,0.0,0.0,0.0,0.0,0.0,0.0,0.0,0.0,0.0,0.0,0.0,0.0,0.0,0.0,0.0,0.0,0.0,0.0,0.0,0.0,0.0,0.0,0.0,0.0,0.0,0.0,0.0,0.0,0.0,0.0,0.0,0.0,0.0,0.0,0.0,0.0,0.0,0.0,0.0,0.0,0.0,0.0,0.0,0.0,0.0,0.0,0.0,0.0,0.0,0.0,0.0,0.0,0.0,0.0,0.0,0.0,0.0,0.0,0.0,0.0,0.0,0.0,0.0,0.0,0.0,0.0,0.0,0.0,0.0,0.0,0.0,0.0,0.0,0.0,0.0,0.0,0.0,0.0,0.0,0.0,0.0,0.0,0.0,0.0,0.0,0.0,0.0,0.0,0.0,0.0,0.0,0.0,0.0,0.0,0.0,0.0,0.0,0.0,0.0,0.0,0.0,0.0,0.0,0.0,0.0,0.0,0.0,0.0,0.0,0.0,0.0,0.0,0.0,0.0,0.0,0.0,0.0,0.0,0.0,0.0,0.0,0.0,0.0,0.0,0.0,0.0,0.0,0.0,0.0,0.0,0.0,0.0,0.0,0.0,0.0,0.0,0.0,0.0,0.0,0.0,0.0,0.0,0.0,0.0,0.0,0.0,0.0,0.0,0.0,0.0,0.0,0.226,0.0,0.0,0.0,0.0,0.0,0.0,0.0,0.0,0.0,0.0,0.0,0.0,0.0,0.0,0.0,0.0,0.0,0.0,0.0,0.0,0.0,0.0,0.0,0.0,0.0,0.0,0.0,0.0,0.0,0.0,0.0,0.0,0.0,0.0,0.0,0.0,0.0,0.0,0.0,0.0,0.0,0.0,0.0,0.0,0.0,0.0,0.0,0.0,0.0,0.0,0.0,0.0,0.0,0.0,0.0,0.0,0.0,0.0,0.0,0.0,0.0,0.0,0.0,0.0,0.0,0.0,0.0,0.0,0.0,0.0,0.0,0.0,0.0,0.0,0.0,0.0,0.0,0.0,0.0,0.0,0.0,0.0,0.0,0.0,0.0,0.0,0.0,0.0,0.0,0.0,0.0,0.0,0.0,0.0,0.0,0.0,0.0,0.0,0.0,0.0,0.0,0.0,0.0,0.0,0.0,0.0,0.0,0.0,0.0,0.0,0.2415,0.2264,0.2134,0.2006,0.1879,0.0,0.0,0.0,0.0,0.0,0.0,0.0,0.0,0.0,0.0,0.0,0.0,0.0,0.0,0.0,0.0,0.0,0.0,0.0,0.0,0.0,0.0,0.0,0.0,0.0,0.0,0.0,0.0,0.0,0.0,0.0,0.0,0.0,0.0,0.0,0.0,0.0,0.0,0.0,0.0,0.0,0.0,0.0,0.0,0.0,0.0,0.0,0.0,0.0,0.0,0.0,0.0,0.0,0.0,0.0,0.0,0.0,0.0,0.0,0.0,0.0,0.0,0.0,0.0,0.0,0.0,0.0,0.0,0.0,0.0,0.0,0.0,0.0,0.0,0.0,0.0,0.0,0.0,0.0,0.0,0.0,0.0,0.0,0.0,0.0,0.0,0.0,0.0,0.0,0.0,0.0,0.0,0.0,0.0,0.0,0.0,0.0,0.0,0.0,0.0,0.0,0.0,0.0,0.0,0.0,0.0,0.0,0.0,0.0,0.0,0.0,0.0,0.1711,0.159,0.1556,0.0,0.0,0.0,0.0,0.0,0.0,0.0,0.0,0.0,0.0,0.0,0.0,0.0,0.0,0.0,0.0,0.0,0.0,0.0,0.0,0.0,0.0,0.0,0.0,0.0,0.0,0.0,0.0,0.0,0.0,0.0,0.0,0.0,0.0,0.0,0.0,0.0,0.0,0.0,0.0,0.0,0.0,0.0,0.0,0.0,0.0,0.0,0.0,0.0,0.0,0.0,0.0,0.0,0.0,0.0,0.0,0.0,0.0,0.0,0.0,0.0,0.0,0.0,0.0,0.0,0.0,0.0,0.0,0.0,0.0,0.0,0.0,0.0,0.0,0.0,0.0,0.0,0.0,0.0,0.0,0.0,0.0,0.0,0.0,0.0,0.0,0.0,0.0,0.0,0.0,0.0,0.0,0.0,0.0,0.0,0.0,0.0,0.0,0.0,0.0,0.0,0.0,0.0,0.0,0.0,0.0,0.0,0.0,0.0,0.0,0.1376,0.1389,0.1347,0.0,0.1094,0.0,0.0,0.0,0.0,0.0,0.0,0.0,0.0,0.0,0.0,0.0,0.0,0.0,0.0,0.0,0.0,0.0,0.0,0.0,0.0,0.0,0.0,0.0,0.0,0.0,0.0,0.0,0.0,0.0,0.0,0.0,0.0,0.0,0.0,0.0,0.0,0.0,0.0,0.0,0.0,0.0,0.0,0.0,0.0,0.0,0.0,0.0,0.0,0.0,0.0,0.0,0.0,0.0,0.0,0.0,0.0,0.0,0.0,0.0,0.0,0.0,0.0,0.0,0.0,0.0,0.0,0.0,0.0,0.0,0.0,0.0,0.0,0.0,0.0,0.0,0.0,0.0,0.0,0.0,0.0,0.0,0.0,0.0,0.0,0.0,0.0,0.0,0.0,0.0,0.0,0.0,0.0,0.0,0.0,0.0,0.0,0.0,0.0,0.0,0.0,0.0,0.0,0.0,0.0,0.0,0.0,0.0,0.0,0.0,0.0,0.1207,0.1077,0.0957,0.0852,0.0,0.0,0.0,0.0,0.0,0.0,0.0,0.0,0.0,0.0,0.0,0.0,0.0,0.0,0.0,0.0,0.0,0.0,0.0,0.0,0.0,0.0,0.0,0.0,0.0,0.0,0.0,0.0,0.0,0.0,0.0,0.0,0.0,0.0,0.0,0.0,0.0,0.0,0.0,0.0,0.0,0.0,0.0,0.0,0.0,0.0,0.0,0.0,0.0,0.0,0.0,0.0,0.0,0.0,0.0,0.0,0.0,0.0,0.0,0.0,0.0,0.0,0.0,0.0,0.0,0.0,0.0,0.0,0.0,0.0,0.0,0.0,0.0,0.0,0.0,0.0,0.0,0.0,0.0,0.0,0.0,0.0,0.0,0.0,0.0,0.0,0.0,0.0,0.0,0.0,0.0,0.0,0.0,0.0,0.0,0.0,0.0,0.0,0.0,0.0,0.0,0.0,0.0,0.0,0.0,0.0,0.0,0.0,0.0,0.0,0.1229,0.1061,0.0825,0.0629,0.0521,0.0583,0.0,0.0,0.0,0.0,0.0,0.0,0.0,0.0,0.0,0.0,0.0,0.0,0.0,0.0,0.0,0.0,0.0,0.0,0.0,0.0,0.0,0.0,0.0,0.0,0.0,0.0,0.0,0.0,0.0,0.0,0.0,0.0,0.0,0.0,0.0,0.0,0.0,0.0,0.0,0.0,0.0,0.0,0.0,0.0,0.0,0.0,0.0,0.0,0.0,0.0,0.0,0.0,0.0,0.0,0.0,0.0,0.0,0.0,0.0,0.0,0.0,0.0,0.0,0.0,0.0,0.0,0.0,0.0,0.0,0.0,0.0,0.0,0.0,0.0,0.0,0.0,0.0,0.0,0.0,0.0,0.0,0.0,0.0,0.0,0.0,0.0,0.0,0.0,0.0,0.0,0.0,0.0,0.0,0.0,0.0,0.0,0.0,0.0,0.0,0.0,0.0,0.0,0.0,0.0,0.0,0.0,0.0,0.0,0.1299,0.1061,0.0825,0.0589,0.0432,0.0318,0.0,0.0,0.0,0.0,0.0,0.0,0.0,0.0,0.0,0.0,0.0,0.0,0.0,0.0,0.0,0.0,0.0,0.0,0.0,0.0,0.0,0.0,0.0,0.0,0.0,0.0,0.0,0.0,0.0,0.0,0.0,0.0,0.0,0.0,0.0,0.0,0.0,0.0,0.0,0.0,0.0,0.0,0.0,0.0,0.0,0.0,0.0,0.0,0.0,0.0,0.0,0.0,0.0,0.0,0.0,0.0,0.0,0.0,0.0,0.0,0.0,0.0,0.0,0.0,0.0,0.0,0.0,0.0,0.0,0.0,0.0,0.0,0.0,0.0,0.0,0.0,0.0,0.0,0.0,0.0,0.0,0.0,0.0,0.0,0.0,0.0,0.0,0.0,0.0,0.0,0.0,0.0,0.0,0.0,0.0,0.0,0.0,0.0,0.0,0.0,0.0,0.0,0.0,0.0,0.0,0.0,0.0,0.0,0.0,0.1022,0.0707,0.0471,0.0393,0.0236,0.0119,0.0,0.0,0.0,0.0,0.0,0.0,0.0,0.0,0.0,0.0,0.0,0.0,0.0,0.0,0.0,0.0,0.0,0.0,0.0,0.0,0.0,0.0,0.0,0.0,0.0,0.0,0.0,0.0,0.0,0.0,0.0,0.0,0.0,0.0,0.0,0.0,0.0,0.0,0.0,0.0,0.0,0.0,0.0,0.0,0.0,0.0,0.0,0.0,0.0,0.0,0.0,0.0,0.0,0.0,0.0,0.0,0.0,0.0,0.0,0.0,0.0,0.0,0.0,0.0,0.0,0.0,0.0,0.0,0.0,0.0,0.0,0.0,0.0,0.0,0.0,0.0,0.0,0.0,0.0,0.0,0.0,0.0,0.0,0.0,0.0,0.0,0.0,0.0,0.0,0.0,0.0,0.0,0.0,0.0,0.0,0.0,0.0,0.0,0.0,0.0,0.0,0.0,0.0,0.0,0.0,0.0,0.0,0.0,0.0,0.0825,0.0,0.0275,0.0196,0.0079,0.0,0.0,0.0,0.0,0.0,0.0,0.0,0.0,0.0,0.0,0.0,0.0,0.0,0.0,0.0,0.0,0.0,0.0,0.0,0.0,0.0,0.0,0.0,0.0,0.0,0.0,0.0,0.0,0.0,0.0,0.0,0.0,0.0,0.0,0.0,0.0,0.0,0.0,0.0,0.0,0.0,0.0,0.0,0.0,0.0,0.0,0.0,0.0,0.0,0.0,0.0,0.0,0.0,0.0,0.0,0.0,0.0,0.0,0.0,0.0,0.0,0.0,0.0,0.0,0.0,0.0,0.0,0.0,0.0,0.0,0.0,0.0,0.0,0.0,0.0,0.0,0.0,0.0,0.0,0.0,0.0,0.0,0.0,0.0,0.0,0.0,0.0,0.0,0.0,0.0,0.0,0.0,0.0,0.0,0.0,0.0,0.0,0.0,0.0,0.0,0.0,0.0,0.0,0.0,0.0,0.0,0.0,0.0,0.0,0.1062,0.0629,0.0393,0.0197,0.0,0.0,0.0,0.0,0.0,0.0,0.0,0.0,0.0,0.0,0.0,0.0,0.0,0.0,0.0,0.0,0.0,0.0,0.0,0.0,0.0,0.0,0.0,0.0,0.0,0.0,0.0,0.0,0.0,0.0,0.0,0.0,0.0,0.0,0.0,0.0,0.0,0.0,0.0,0.0,0.0,0.0,0.0,0.0,0.0,0.0,0.0,0.0,0.0,0.0,0.0,0.0,0.0,0.0,0.0,0.0,0.0,0.0,0.0,0.0,0.0,0.0,0.0,0.0,0.0,0.0,0.0,0.0,0.0,0.0,0.0,0.0,0.0,0.0,0.0,0.0,0.0,0.0,0.0,0.0,0.0,0.0,0.0,0.0,0.0,0.0,0.0,0.0,0.0,0.0,0.0,0.0,0.0,0.0,0.0,0.0,0.0,0.0,0.0,0.0,0.0,0.0,0.0,0.0,0.0,0.0,0.0,0.0,0.0,0.0,0.0,0.0,0.0604,0.0282,0.0041,0.0,0.0,0.0,0.0,0.0,0.0,0.0,0.0,0.0,0.0,0.0,0.0,0.0,0.0,0.0,0.0,0.0,0.0,0.0,0.0,0.0,0.0,0.0,0.0,0.0,0.0,0.0,0.0,0.0,0.0,0.0,0.0,0.0,0.0,0.0,0.0,0.0,0.0,0.0,0.0,0.0,0.0,0.0,0.0,0.0,0.0,0.0,0.0,0.0,0.0,0.0,0.0,0.0,0.0,0.0,0.0,0.0,0.0,0.0,0.0,0.0,0.0,0.0,0.0,0.0,0.0,0.0,0.0,0.0,0.0,0.0,0.0,0.0,0.0,0.0,0.0,0.0,0.0,0.0,0.0,0.0,0.0,0.0,0.0,0.0,0.0,0.0,0.0,0.0,0.0,0.0,0.0,0.0,0.0,0.0,0.0,0.0,0.0,0.0,0.0,0.0,0.0,0.0,0.0,0.0,0.0,0.0,0.0,0.0,0.0,0.0,0.0,0.0626,0.0207,0.0,0.0,0.0,0.0,0.0,0.0,0.0,0.0,0.0,0.0,0.0,0.0,0.0,0.0,0.0,0.0,0.0,0.0,0.0,0.0,0.0,0.0,0.0,0.0,0.0,0.0,0.0,0.0,0.0,0.0,0.0,0.0,0.0,0.0,0.0,0.0,0.0,0.0,0.0,0.0,0.0,0.0,0.0,0.0,0.0,0.0,0.0,0.0,0.0,0.0,0.0,0.0,0.0,0.0,0.0,0.0,0.0,0.0,0.0,0.0,0.0,0.0,0.0,0.0,0.0,0.0,0.0,0.0,0.0,0.0,0.0,0.0,0.0,0.0,0.0,0.0,0.0,0.0,0.0,0.0,0.0,0.0,0.0,0.0,0.0,0.0,0.0,0.0,0.0,0.0,0.0,0.0,0.0,0.0,0.0,0.0,0.0,0.0,0.0,0.0,0.0,0.0,0.0,0.0,0.0,0.0,0.0,0.0,0.0,0.0,0.0,0.0,0.0,0.0696,0.0256,0.0,0.0,0.0,0.0,0.0,0.0,0.0,0.0,0.0,0.0,0.0,0.0,0.0,0.0,0.0,0.0,0.0,0.0,0.0,0.0,0.0,0.0,0.0,0.0,0.0,0.0,0.0,0.0,0.0,0.0,0.0,0.0,0.0,0.0,0.0,0.0,0.0,0.0,0.0,0.0,0.0,0.0,0.0,0.0,0.0,0.0,0.0,0.0,0.0,0.0,0.0,0.0,0.0,0.0,0.0,0.0,0.0,0.0,0.0,0.0,0.0,0.0,0.0,0.0,0.0,0.0,0.0,0.0,0.0,0.0,0.0,0.0,0.0,0.0,0.0,0.0,0.0,0.0,0.0,0.0,0.0,0.0,0.0,0.0,0.0,0.0,0.0,0.0,0.0,0.0,0.0,0.0,0.0,0.0,0.0,0.0,0.0,0.0,0.0,0.0,0.0,0.0,0.0,0.0,0.0,0.0,0.0,0.0,0.0,0.0,0.0,0.0,0.0,0.0391,0.0132,0.0,0.0,0.0,0.0,0.0,0.0,0.0,0.0,0.0,0.0,0.0,0.0,0.0,0.0,0.0,0.0,0.0,0.0,0.0,0.0,0.0,0.0,0.0,0.0,0.0,0.0,0.0,0.0,0.0,0.0,0.0,0.0,0.0,0.0,0.0,0.0,0.0,0.0,0.0,0.0,0.0,0.0,0.0,0.0,0.0,0.0,0.0,0.0,0.0,0.0,0.0,0.0,0.0,0.0,0.0,0.0,0.0,0.0,0.0,0.0,0.0,0.0,0.0,0.0,0.0,0.0,0.0,0.0,0.0,0.0,0.0,0.0,0.0,0.0,0.0,0.0,0.0,0.0,0.0,0.0,0.0,0.0,0.0,0.0,0.0,0.0,0.0,0.0,0.0,0.0,0.0,0.0,0.0,0.0,0.0,0.0,0.0,0.0,0.0,0.0,0.0,0.0,0.0,0.0,0.0,0.0,0.0,0.0,0.0,0.0,0.0,0.0,0.0518,0.0353,0.0089,0.0,0.0,0.0,0.0,0.0,0.0,0.0,0.0,0.0,0.0,0.0,0.0,0.0,0.0,0.0,0.0,0.0,0.0,0.0,0.0,0.0,0.0,0.0,0.0,0.0,0.0,0.0,0.0,0.0,0.0,0.0,0.0,0.0,0.0,0.0,0.0,0.0,0.0,0.0,0.0,0.0,0.0,0.0,0.0,0.0,0.0,0.0,0.0,0.0,0.0,0.0,0.0,0.0,0.0,0.0,0.0,0.0,0.0,0.0,0.0,0.0,0.0,0.0,0.0,0.0,0.0,0.0,0.0,0.0,0.0,0.0,0.0,0.0,0.0,0.0,0.0,0.0,0.0,0.0,0.0,0.0,0.0,0.0,0.0,0.0,0.0,0.0,0.0,0.0,0.0,0.0,0.0,0.0,0.0,0.0,0.0,0.0,0.0,0.0,0.0,0.0,0.0,0.0,0.0,0.0,0.0,0.0,0.0,0.0,0.0,0.0,0.0,0.0572,0.0359,0.0135,0.0,0.0,0.0,0.0,0.0,0.0,0.0,0.0,0.0,0.0,0.0,0.0,0.0,0.0,0.0,0.0,0.0,0.0,0.0,0.0,0.0,0.0,0.0,0.0,0.0,0.0,0.0,0.0,0.0,0.0,0.0,0.0,0.0,0.0,0.0,0.0,0.0,0.0,0.0,0.0,0.0,0.0,0.0,0.0,0.0,0.0,0.0,0.0,0.0,0.0,0.0,0.0,0.0,0.0,0.0,0.0,0.0,0.0,0.0,0.0,0.0,0.0,0.0,0.0,0.0,0.0,0.0,0.0,0.0,0.0,0.0,0.0,0.0,0.0,0.0,0.0,0.0,0.0,0.0,0.0,0.0,0.0,0.0,0.0,0.0,0.0,0.0,0.0,0.0,0.0,0.0,0.0,0.0,0.0,0.0,0.0,0.0,0.0,0.0,0.0,0.0,0.0,0.0,0.0,0.0,0.0,0.0,0.0,0.0,0.0,0.0,0.0,0.0528,0.009,0.0045,0.0,0.0,0.0,0.0,0.0,0.0,0.0,0.0,0.0,0.0,0.0,0.0,0.0,0.0,0.0,0.0,0.0,0.0,0.0,0.0,0.0,0.0,0.0,0.0,0.0,0.0,0.0,0.0,0.0,0.0,0.0,0.0,0.0,0.0,0.0,0.0,0.0,0.0,0.0,0.0,0.0,0.0,0.0,0.0,0.0,0.0,0.0,0.0,0.0,0.0,0.0,0.0,-0.512,0.0,0.0,0.0,0.0,0.0,0.0,0.0,0.0,0.0,0.0,0.0,0.0,0.0,0.0,0.0,0.0,0.0,0.0,0.0,0.0,0.0,0.0,0.0,0.0,0.0,0.0,0.0,0.0,0.0,0.0,0.0,0.0,0.0,0.0,0.0,0.0,0.0,0.0,0.0,0.0,0.0,0.0,0.0,0.0,0.0,0.0,0.0,0.0,0.0,0.0,0.0,0.0,0.0,0.0,0.0,0.0,0.0,0.0,0.0,0.04,0.0,0.0,0.0,0.0,0.0,0.0,0.0,0.0,0.0,0.0,0.0,0.0,0.0,0.0,0.0,0.0,0.0,0.0,0.0,0.0,0.0,0.0,0.0,0.0,0.0,0.0,0.0,0.0,0.0,0.0,0.0,0.0,0.0,0.0,0.0,0.0,0.0,0.0,0.0,0.0,0.0,0.0,0.0,0.0,0.0,0.0,0.0,0.0,0.0,0.0,0.0,0.0,0.0,0.0,0.0,0.0,0.0,0.0,0.0,0.0,0.0,0.0,0.0,0.0,0.0,0.0,0.0,0.0,0.0,0.0,0.0,0.0,0.0,0.0,0.0,0.0,0.0,0.0,0.0,0.0,0.0,0.0,0.0,0.0,0.0,0.0,0.0,0.0,0.0,0.0,0.0,0.0,0.0,0.0,0.0,0.0,0.0,0.0,0.0,0.0,0.0,0.0,0.0,0.0,0.0,0.0,0.0,0.0,0.0,0.0,0.0,0.0,0.0,0.0488,0.0269,0.0,0.0,0.0,0.0,0.0,0.0,0.0,0.0,0.0,0.0,0.0,0.0,0.0,0.0,0.0,0.0,0.0,0.0,0.0,0.0,0.0,0.0,0.0,0.0,0.0,0.0,0.0,0.0,0.0,0.0,0.0,0.0,0.0,0.0,0.0,0.0,0.0,0.0,0.0,0.0,0.0,0.0,0.0,0.0,0.0,0.1298,0.0964,0.0,0.0,0.0,0.0,0.0,0.0,0.0,0.0,-0.6045,0.0,0.0,0.0,0.0,0.0,0.0,0.0,0.0,0.0,0.0,0.0,0.0,0.0,0.0,0.0,0.0,0.0,0.0,0.0,0.0,0.0,0.0,0.0,0.0,0.0,0.0,0.0,0.0,0.0,0.0,0.0,0.0,0.0,0.0,0.0,0.0,0.0,0.0,0.0,0.0,0.0,0.0,0.0,0.0,0.0,0.0,0.0,0.0,0.0,0.0,0.0,0.0,0.0,0.0,0.0,0.0,0.0696,0.0488,0.0269,0.0,0.0,0.0,0.0,0.0,0.0,0.0,0.0,0.0,0.0,0.0,0.0,0.0,0.0,0.0,0.0,0.0,0.0,0.0,0.0,0.0,0.0,0.0,0.0,0.0,0.0,0.0,0.0,0.0,0.0,0.0,0.0,0.0,0.0,0.0,0.0,0.0,0.0,0.0,0.0,0.0,0.0,0.0,0.0,0.0,0.0,0.0932,0.0549,0.0,0.0,0.0,0.0,0.0,0.0,0.0,0.0,-0.6741,0.0,0.0,0.0,0.0,0.0,0.0,0.0,0.0,0.0,0.0,0.0,0.0,0.0,0.0,0.0,0.0,0.0,0.0,0.0,0.0,0.0,0.0,0.0,0.0,0.0,0.0,0.0,0.0,0.0,0.0,0.0,0.0,0.0,0.0,0.0,0.0,0.0,0.0,0.0,0.0,0.0,0.0,0.0,0.0,0.0,0.0,0.0,0.0,0.0,0.0,0.0,0.0,0.0,0.0,0.0,0.0708,0.0357,0.0135,0.0,0.0,0.0,0.0,0.0,0.0,0.0,0.0,0.0,0.0,0.0,0.0,0.0,0.0,0.0,0.0,0.0,0.0,0.0,0.0,0.0,0.0,0.0,0.0,0.0,0.0,0.0,0.0,0.0,0.0,0.0,0.0,0.0,0.0,0.0,0.0,0.0,0.0,0.0,0.0,0.0,0.0,0.0,0.0,0.0,0.0,0.0801,0.0369,-0.0137,0.0,0.0,0.0,0.0,0.0,0.0,-0.6147,-0.6563,0.0,0.0,0.0,0.0,0.0,0.0,0.0,0.0,0.0,0.0,0.0,0.0,0.0,0.0,0.0,0.0,0.0,0.0,0.0,0.0,0.0,0.0,0.0,0.0,0.0,0.0,0.0,0.0,0.0,0.0,0.0,0.0,0.0,0.0,0.0,0.0,0.0,0.0,0.0,0.0,0.0,0.0,0.0,0.0,0.0,0.0,0.0,0.0,0.0,0.0,0.0,0.0,0.0,0.0,0.0,0.0673,0.0269,0.0045,0.0,0.0,0.0,0.0,0.0,0.0,0.0,0.0,0.0,0.0,0.0,0.0,0.0,0.0,0.0,0.0,0.0,0.0,0.0,0.0,0.0,0.0,0.0,0.0,0.0,0.0,0.0,0.0,0.0,0.0,0.0,0.0,0.0,0.0,0.0,0.0,0.0,0.0,0.0,0.0,0.0,0.0,0.0,0.0,0.0,0.0,0.0,0.0231,-0.0322,-0.1158,0.0,0.0,0.0,0.0,-0.5588,-0.6016,0.0,0.0,0.0,0.0,0.0,0.0,0.0,0.0,0.0,0.0,0.0,0.0,0.0,0.0,0.0,0.0,0.0,0.0,0.0,0.0,0.0,0.0,0.0,0.0,0.0,0.0,0.0,0.0,0.0,0.0,0.0,0.0,0.0,0.0,0.0,0.0,0.0,0.0,0.0,0.0,0.0,0.0,0.0,0.0,0.0,0.0,0.0,0.0,0.0,0.0,0.0,0.0,0.0,0.0,0.0,0.0,0.0673,0.0448,0.0269,0.0,0.0,0.0,0.0,0.0,0.0,0.0,0.0,0.0,0.0,0.0,0.0,0.0,0.0,0.0,0.0,0.0,0.0,0.0,0.0,0.0,0.0,0.0,0.0,0.0,0.0,0.0,0.0,0.0,0.0,0.0,0.0,0.0,0.0,0.0,0.0,0.0,0.0,0.0,0.0,0.0,0.0,0.0,0.0,0.0,0.0,0.0,0.023,-0.0316,-0.1022,-0.197,0.0,0.0,-0.4848,-0.5721,-0.6108,0.0,0.0,0.0,0.0,0.0,0.0,0.0,0.0,0.0,0.0,0.0,0.0,0.0,0.0,0.0,0.0,0.0,0.0,0.0,0.0,0.0,0.0,0.0,0.0,0.0,0.0,0.0,0.0,0.0,0.0,0.0,0.0,0.0,0.0,0.0,0.0,0.0,0.0,0.0,0.0,0.0,0.0,0.0,0.0,0.0,0.0,0.0,0.0,0.0,0.0,0.0,0.0,0.0,0.0,0.0,0.1031,0.0897,0.0583,0.0314,0.0224,0.009,0.0,0.0,0.0,0.0,0.0,0.0,0.0,0.0,0.0,0.0,0.0,0.0,0.0,0.0,0.0,0.0,0.0,0.0,0.0,0.0,0.0,0.0,0.0,0.0,0.0,0.0,0.0,0.0,0.0,0.0,0.0,0.0,0.0,0.0,0.0,0.0,0.0,0.0,0.0,0.0,0.0,0.0,0.0,0.0,0.0,0.0,-0.073,-0.1483,0.0,0.0,0.0,-0.4989,-0.5671,0.0,0.0,0.0,0.0,0.0,0.0,0.0,0.0,0.0,0.0,0.0,0.0,0.0,0.0,0.0,0.0,0.0,0.0,0.0,0.0,0.0,0.0,0.0,0.0,0.0,0.0,0.0,0.0,0.0,0.0,0.0,0.0,0.0,0.0,0.0,0.0,0.0,0.0,0.0,0.0,0.0,0.0,0.0,0.0,0.0,0.0,0.0,0.0,0.0,0.0,0.0,0.0,0.0,0.0,0.0,0.0,0.0,0.1076,0.0762,0.0493,0.0404,0.0224,0.0045,0.0,0.0,0.0,0.0,0.0,0.0,0.0,0.0,0.0,0.0,0.0,0.0,0.0,0.0,0.0,0.0,0.0,0.0,0.0,0.0,0.0,0.0,0.0,0.0,0.0,0.0,0.0,0.0,0.0,0.1297,0.0,0.0,0.0,0.0,0.0,0.0,0.0,0.0,0.0,0.0,0.0,0.0,0.0,0.0,-0.0631,-0.1099,-0.1935,-0.2859,0.0,0.0,-0.5104,-0.5644,-0.5828,-0.5997,0.0,0.0,0.0,0.0,0.0,0.0,0.0,0.0,0.0,0.0,0.0,0.0,0.0,0.0,0.0,0.0,0.0,0.0,0.0,0.0,0.0,0.0,0.0,0.0,0.0,0.0,0.0,0.0,0.0,0.0,0.0,0.0,0.0,0.0,0.0,0.0,0.0,0.0,0.0,0.0,0.0,0.0,0.0,0.0,0.0,0.0,0.0,0.0,0.0,0.0,0.0,0.0,0.0,0.0,0.0,0.1121,0.1076,0.0852,0.0404,0.0359,0.0269,0.0,0.0,0.0,0.0,0.0,0.0,0.0,0.0,0.0,0.0,0.0,0.0,0.0,0.0,0.0,0.0,0.0,0.0,0.0,0.0,0.0,0.0,0.0,0.0,0.0,0.0,0.0,0.0,0.0,0.0,0.0,0.0,0.0,0.0,0.0,0.0,0.0,0.0,0.0,0.0,0.0,0.0,0.0,0.0,-0.0852,-0.1348,-0.2009,-0.2844,0.0,0.0,-0.4973,-0.5599,-0.5783,-0.604,-0.6364,0.0,0.0,0.0,0.0,0.0,0.0,0.0,0.0,0.0,0.0,0.0,0.0,0.0,0.0,0.0,0.0,0.0,0.0,0.0,0.0,0.0,0.0,0.0,0.0,0.0,0.0,0.0,0.0,0.0,0.0,0.0,0.0,0.0,0.0,0.0,0.0,0.0,0.0,0.0,0.0,0.0,0.0,0.0,0.0,0.0,0.0,0.0,0.0,0.0,0.0,0.0,0.0,0.0,0.1346,0.1301,0.1166,0.1031,0.0807,0.0673,0.0538,0.0449,0.0318,0.0272,0.0,0.0,0.0,0.0,0.0,0.0,0.0,0.0,0.0,0.0,0.0,0.0,0.0,0.0,0.0,0.0,0.0,0.0,0.0,0.0,0.0,0.0,0.0,0.0,0.0,0.0,0.0,0.0,0.1297,0.1297,0.1297,0.0,0.0,0.0,0.0,0.0,0.0,0.0,0.0,0.0,0.0,-0.1369,-0.2013,-0.2708,0.0,0.0,-0.4565,-0.5013,-0.5419,-0.5679,-0.5871,-0.6177,-0.6337,0.0,0.0,0.0,0.0,0.0,0.0,0.0,0.0,0.0,0.0,0.0,0.0,0.0,0.0,0.0,0.0,0.0,0.0,0.0,0.0,0.0,0.0,0.0,0.0,0.0,0.0,0.0,0.0,0.0,0.0,0.0,0.0,0.0,0.0,0.0,0.0,0.0,0.0,0.0,0.0,0.0,0.0,0.0,0.0,0.0,0.0,0.0,0.0,0.0,0.0,0.0,0.0,0.1422,0.1422,0.1251,0.1166,0.1076,0.0897,0.0762,0.0673,0.0546,0.0499,0.0,0.0,0.0,0.0,0.0,0.0,0.0,0.0,0.0,0.0,0.0,0.0,0.0,0.0,0.0,0.0,0.0,0.0,0.0,0.0,0.0,0.0,0.0,0.0,0.0,0.0,0.0,0.0,0.1297,0.1297,0.1297,0.0,0.0,0.0,0.0,0.0,0.0,0.0,0.0,0.0,0.0,-0.1764,-0.2503,-0.3226,-0.3857,-0.4255,-0.4656,-0.5013,-0.5327,-0.5508,-0.573,-0.6038,0.0,0.0,0.0,0.0,0.0,0.0,0.0,0.0,0.0,0.0,0.0,0.0,0.0,0.0,0.0,0.0,0.0,0.0,0.0,0.0,0.0,0.0,0.0,0.0,0.0,0.0,0.0,0.0,0.0,0.0,0.0,0.0,0.0,0.0,0.0,0.0,0.0,0.0,0.0,0.0,0.0,0.0,0.0,0.0,0.0,0.0,0.0,0.0,0.0,0.0,0.0,0.0,0.0,0.1391,0.1392,0.1376,0.1301,0.1122,0.1076,0.0987,0.0762,0.0718,0.0711,0.0698,0.0,0.0,0.0,0.0,0.0,0.0,0.0,0.0,0.0,0.0,0.0,0.0,0.0,0.0,0.0,0.0,0.0,0.0,0.0,0.0,0.0,0.0,0.0,0.0,0.0,0.0,0.1297,0.1297,0.1297,0.0,0.0,0.0,0.0,0.0,0.0,0.0,0.0,0.0,0.0,-0.1504,-0.2062,-0.2823,-0.3451,-0.3991,-0.4255,-0.4525,-0.4882,-0.5327,-0.5371,-0.5549,0.0,0.0,0.0,0.0,0.0,0.0,0.0,0.0,0.0,0.0,0.0,0.0,0.0,0.0,0.0,0.0,0.0,0.0,0.0,0.0,0.0,0.0,0.0,0.0,0.0,0.0,0.0,0.9758,0.9798,0.0,0.0,0.0,0.0,0.0,0.0,0.0,0.0,0.0,0.0,0.0,0.6871,0.6915,0.0,0.0,0.0,0.0,0.0,0.0,0.0,0.0,0.0,0.0,0.0,0.0,0.152,0.1391,0.1421,0.1346,0.1301,0.148,0.1525,0.1436,0.1615,0.1688,0.1697,0.0,0.0,0.0,0.0,0.0,0.0,0.0,0.0,0.0,0.0,0.0,0.0,0.0,0.0,0.0,0.0,0.0,0.0,0.0,0.0,0.0,0.0,0.0,0.0,0.0,0.1651,0.0,0.0,0.0,0.0,0.0,0.0,0.0,0.0,0.0,0.0,0.0,-0.017,-0.1169,-0.1769,-0.2374,-0.3229,-0.3808,-0.421,0.0,0.0,0.0,0.0,0.0,0.0,0.0,0.0,0.0,0.0,0.0,0.0,0.0,0.0,-1.1231,-1.1386,-1.1945,-1.2644,-1.3338,0.0,0.0,0.0,0.0,0.0,0.0,0.0,0.0,0.0,0.0,0.0,0.0,0.0,0.0,0.0,0.0,1.0077,0.0,0.0,0.0,0.0,0.0,0.0,0.0,0.0,0.7628,0.7625,0.7625,0.7625,0.7316,0.0,0.6467,0.579,0.0,0.0,0.0,0.0,0.0,0.0,0.0,0.0,0.1983,0.1911,0.1907,0.1928,0.1928,0.2108,0.2198,0.2196,0.2332,0.2486,0.2608,0.2509,0.2495,0.0,0.0,0.0,0.0,0.0,0.0,0.0,0.0,0.0,0.0,0.0,0.0,0.0,0.0,0.0,0.0,0.0,0.0,0.0,0.0,0.0,0.0,0.0,0.1808,0.0,0.0,0.0,0.0,0.0,0.0,0.0,0.0,0.0,0.0369,0.029,-0.0084,-0.1125,-0.1703,-0.2372,-0.3322,0.0,0.0,0.0,0.0,0.0,0.0,0.0,-0.5013,-0.5327,-0.5706,-0.6359,-0.7541,-0.888,-0.9973,-1.0481,0.0,0.0,-1.1554,-1.2097,-1.2817,-1.3655,-1.4621,-1.5468,-1.6016,-1.6651,-1.7293,0.0,0.0,0.0,0.0,0.0,0.0,0.0,0.0,1.1456,1.137,0.0,1.0636,0.0,0.0,0.0,0.0,0.0,0.0,0.0,0.0,0.7944,0.7944,0.7944,0.79,0.7632,0.7132,0.7083,0.6761,0.6254,0.5266,0.0,0.0,0.0,0.0,0.0,0.0,0.2765,0.2775,0.2881,0.2911,0.2867,0.2911,0.2955,0.2953,0.2953,0.3101,0.3428,0.3394,0.3406,0.3535,0.3364,0.0,0.0,0.0,0.0,0.0,0.0,0.0,0.0,0.0,0.0,0.0,0.0,0.0,0.0,0.0,0.0,0.0,0.0,0.0,0.0,0.1926,0.0,0.0,0.0,0.0,0.0,0.0,0.0,0.0,0.0,0.0,0.0418,0.033,0.0,-0.0907,0.0,0.0,0.0,0.0,-0.3987,-0.4287,-0.4297,-0.4389,-0.4659,-0.4705,-0.4837,-0.5327,0.0,0.0,-0.8914,-1.0029,-1.084,-1.1568,-1.1806,-1.1992,-1.1996,-1.2584,-1.3311,-1.4203,-1.5149,-1.5991,-1.6513,-1.7161,-1.7783,1.455,0.0,0.0,0.0,0.0,1.2633,1.2614,1.2668,1.2406,1.232,1.2229,1.1413,0.0,0.0,0.0,0.0,0.0,0.0,0.8384,0.8388,0.8392,0.8388,0.8392,0.8392,0.8164,0.7676,0.7629,0.7384,0.6862,0.6587,0.5964,0.5128,0.0,0.0,0.0,0.0,0.3537,0.3128,0.3103,0.3045,0.2911,0.3226,0.3648,0.4249,0.4249,0.442,0.4749,0.4641,0.4611,0.466,0.4269,0.0,0.0,0.0,0.0,0.0,0.0,0.0,0.0,0.0,0.0,0.0,0.0,0.0,0.0,0.0,0.0,0.0,0.0,0.0,0.2552,0.2276,0.2079,0.0,0.0,0.0,0.0,0.0,0.0,0.0,0.0,0.0,0.0837,0.0619,0.0165,0.0,0.0,-0.2113,-0.3078,-0.3608,-0.4009,-0.4251,0.0,0.0,0.0,-0.4433,-0.4567,-0.5055,-0.6033,-0.7245,-0.8573,-0.9601,-1.0421,-1.109,-1.1518,-1.1876,-1.2265,-1.273,-1.3326,-1.4075,-1.4986,-1.5849,-1.6485,-1.7117,-1.7771,1.5946,1.5334,1.441,1.3863,1.3628,1.3565,1.3548,1.3514,1.3256,1.3065,1.2918,1.21,1.1327,1.0511,0.9563,0.0,0.0,0.0,0.8616,0.8616,0.8616,0.8616,0.8616,0.8616,0.8384,0.8025,0.8028,0.7804,0.7408,0.7408,0.7098,0.6452,0.0,0.0,0.5138,0.4994,0.4699,0.4345,0.4192,0.4068,0.3936,0.4168,0.4515,0.4972,0.5012,0.5168,0.5465,0.5424,0.5405,0.5393,0.5081,0.4888,0.0,0.0,0.0,0.0,0.0,0.0,0.0,0.0,0.0,0.0,0.0,0.3526,0.372,0.0,0.0,0.0,0.3329,0.3214,0.3059,0.2668,0.0,0.0,0.0,0.0,0.0,0.0,0.0,0.1493,0.1453,0.1352,0.1061,0.0879,0.0418,-0.0476,-0.1122,-0.1808,-0.2645,0.0,-0.373,-0.4072,-0.421,-0.4297,-0.4297,-0.4297,-0.452,-0.5188,-0.6384,-0.7606,-0.869,-0.9588,-1.0332,-1.1,-1.141,-1.1702,-1.2062,-1.2557,-1.3174,-1.3959,-1.4898,-1.577,-1.647,-1.7082,-1.7691,1.719,1.6995,1.553,1.4746,1.445,1.4437,1.4416,1.4287,1.4062,1.3777,1.3436,1.2826,1.1952,1.0939,0.9607,0.0,0.0,0.8696,0.8608,0.8616,0.8616,0.8616,0.8616,0.8616,0.8432,0.8201,0.8201,0.8116,0.79,0.79,0.7889,0.7874,0.7163,0.6751,0.6619,0.6221,0.6019,0.6092,0.5719,0.558,0.5577,0.5426,0.536,0.5396,0.5394,0.5583,0.5857,0.5891,0.5912,0.5951,0.578,0.5661,0.5661,0.0,0.0,0.0,0.0,0.0,0.0,0.0,0.0,0.0,0.0,0.0,0.0,0.0,0.0,0.0,0.3917,0.0,0.3407,0.3064,0.0,0.0,0.0,0.2281,0.2078,0.2075,0.2019,0.1766,0.0,0.0,0.0,0.0,0.081,0.0218,-0.0514,-0.1234,-0.1997,-0.2664,-0.3252,-0.3873,-0.4146,-0.4277,-0.4338,-0.4371,-0.4714,-0.5547,-0.6691,-0.7805,-0.8963,-0.9728,-1.045,-1.1177,-1.1347,-1.1452,-1.1681,-1.2292,-1.2979,-1.3928,-1.4872,-1.5734,-1.6325,-1.6923,-1.74,1.7605,1.7443,1.705,1.6443,1.5748,1.5741,1.5621,1.5338,1.5287,1.4903,1.4293,1.3759,1.2594,1.0939,1.0077,0.9515,0.9218,0.8955,0.874,0.8612,0.8616,0.8616,0.8616,0.8616,0.8476,0.8204,0.8201,0.8072,0.79,0.8069,0.8051,0.7889,0.7885,0.7649,0.7044,0.6846,0.6592,0.6249,0.6173,0.6116,0.6119,0.6085,0.6147,0.637,0.6367,0.6454,0.6617,0.6648,0.6634,0.6633,0.6479,0.6367,0.6367,0.6089,0.0,0.0,0.0,0.0,0.0,0.0,0.0,0.0,0.0,0.5467,0.5819,0.0,0.5586,0.0,0.4501,0.3841,0.3487,0.311,0.0,0.0,0.2551,0.2545,0.2336,0.2306,0.2229,0.2061,0.2019,0.195,0.1864,0.1515,0.1269,0.1133,0.0177,-0.0956,-0.1997,-0.2482,-0.3073,-0.3923,-0.4171,-0.4317,-0.4496,-0.4767,-0.5058,-0.5602,-0.652,-0.7551,-0.8605,-0.9319,-1.0009,-1.0701,-1.1025,-1.132,-1.1772,-1.2344,-1.3025,-1.3897,-1.4543,-1.5106,-1.5777,-1.6236,-1.6568,1.8325,1.811,1.7967,1.7602,1.7115,1.6744,1.6341,1.592,1.592,1.5617,1.5018,1.427,1.3199,1.1919,1.0942,1.0289,0.9864,0.9515,0.9213,0.8915,0.8784,0.87,0.8612,0.8616,0.8524,0.8384,0.8384,0.834,0.8208,0.834,0.8333,0.8194,0.8163,0.7957,0.7571,0.7401,0.7191,0.6898,0.6747,0.6644,0.6575,0.6572,0.6654,0.677,0.681,0.6883,0.7026,0.7022,0.7022,0.7022,0.6949,0.6872,0.6872,0.6672,0.6553,0.0,0.0,0.0,0.0,0.0,0.0,0.0,0.0,0.0,0.0,0.0,0.6209,0.0,0.4971,0.0,0.3976,0.3387,0.2941,0.2805,0.278,0.2689,0.2604,0.2583,0.2512,0.2295,0.2252,0.2261,0.2157,0.1911,0.1713,0.1708,0.1006,0.0,-0.1288,-0.1908,-0.2634,-0.3661,-0.4047,-0.4282,-0.4571,-0.4857,-0.5201,-0.574,-0.6475,-0.7307,-0.8256,-0.899,-0.9643,-1.0058,-1.0436,-1.0775,-1.1242,-1.2015,-1.2835,-1.3601,-1.4267,-1.4915,-1.5567,-1.5824,-1.6065,1.9203,1.8869,1.8597,1.8458,1.83,1.7632,1.6963,1.6391,1.6391,1.6186,1.5707,1.4615,1.3824,1.3322,1.2165,1.1375,1.0804,1.0343,0.9897,0.9468,0.9183,0.8911,0.8744,0.8696,0.87,0.8696,0.87,0.87,0.87,0.8652,0.86,0.8603,0.8249,0.8024,0.7983,0.7778,0.7693,0.7665,0.736,0.7089,0.6984,0.6976,0.6976,0.698,0.698,0.7061,0.7257,0.7257,0.7257,0.7219,0.7219,0.7219,0.7219,0.7061,0.7057,0.0,0.7057,0.0,0.0,0.0,0.0,0.0,0.0,0.0,0.0,0.6942,0.676,0.6362,0.5386,0.4728,0.4551,0.3763,0.3225,0.3036,0.2888,0.2796,0.2797,0.2888,0.283,0.256,0.256,0.2469,0.2334,0.2285,0.2176,0.2001,0.1794,0.1099,-0.0192,-0.1197,-0.2106,-0.3165,-0.3839,-0.4332,-0.4554,-0.478,-0.5166,-0.5768,-0.6471,-0.7196,-0.8045,-0.8817,-0.9336,-0.9529,-0.9917,-1.026,-1.0409,-1.1505,-1.2503,-1.3283,-1.4075,-1.4859,-1.545,-1.5692,-1.5816,1.9951,1.9531,1.9464,1.9139,1.8694,1.8535,1.8092,1.749,1.749,1.7077,1.6301,1.549,1.4863,1.4379,1.3778,1.298,1.2107,1.1654,1.1086,1.0415,0.9934,0.9598,0.9388,0.9257,0.9174,0.9174,0.917,0.9174,0.917,0.8955,0.8744,0.8597,0.8357,0.8093,0.0,0.0,0.0,0.0,0.7433,0.7401,0.7407,0.7403,0.7365,0.7403,0.7407,0.0,0.7446,0.7446,0.7446,0.7446,0.7446,0.0,0.0,0.0,0.0,0.0,0.0,0.0,0.0,0.0,0.0,0.0,0.7369,0.7365,0.7365,0.7092,0.6804,0.6457,0.5793,0.5168,0.4704,0.4075,0.3524,0.3151,0.2949,0.2857,0.2902,0.2913,0.2875,0.283,0.283,0.283,0.2743,0.2653,0.2515,0.2457,0.236,0.1864,0.0996,-0.0394,-0.1669,-0.2736,-0.3733,-0.4312,-0.4349,-0.4728,-0.5174,-0.575,-0.6514,-0.7297,-0.794,-0.8669,-0.9286,-0.9516,-0.9646,-0.9994,-1.0722,-1.1413,-1.2149,-1.3215,-1.3942,-1.465,-1.5333,-1.5582,-1.5733,2.0617,0.0,2.0101,1.9737,0.0,1.9228,1.8897,1.8277,1.7955,1.745,1.6846,1.6211,1.5767,1.5391,1.4927,1.4224,1.3353,1.3042,1.2389,1.1568,1.0943,1.0446,1.0142,0.9652,0.9476,0.9432,0.9345,0.9305,0.9305,0.9174,0.9035,0.894,0.8756,0.8573,0.839,0.8301,0.7995,0.7522,0.7518,0.7518,0.7518,0.7518,0.7518,0.7518,0.0,0.0,0.0,0.0,0.0,0.0,0.0,0.0,0.0,0.0,0.0,0.7518,0.7518,0.7518,0.7518,0.7518,0.7518,0.7518,0.7518,0.7518,0.7518,0.7285,0.7061,0.6827,0.6296,0.5779,0.5315,0.4613,0.3966,0.3522,0.3207,0.3006,0.2918,0.292,0.292,0.292,0.292,0.292,0.292,0.286,0.2824,0.2858,0.2688,0.2345,0.161,0.0451,-0.0949,-0.2519,-0.3429,-0.4021,-0.4187,-0.4474,-0.4886,-0.5383,-0.6216,-0.7067,-0.7677,-0.8459,-0.9054,-0.9127,-0.9358,-0.9864,-1.0554,-1.1117,-1.18,-1.2833,-1.3603,-1.4279,-1.4915,-1.5333,-1.5575,2.1224,2.0719,2.0719,2.0351,1.9835,1.9835,1.95,1.8846,0.0,0.0,0.0,1.694,1.6625,1.6366,1.5882,1.5278,1.4644,1.4411,1.3789,1.286,1.2164,1.1607,1.1065,1.0362,0.9964,0.9915,0.9664,0.9519,0.9519,0.9476,0.9437,0.9419,0.9176,0.9036,0.8992,0.8774,0.8358,0.7749,0.77,0.7671,0.7599,0.7599,0.7599,0.7599,0.7561,0.7599,0.7599,0.7561,0.7561,0.7599,0.7599,0.7599,0.7599,0.7561,0.7561,0.7561,0.7561,0.7522,0.7518,0.7518,0.7522,0.7518,0.7518,0.7518,0.7518,0.745,0.7361,0.7236,0.6771,0.6373,0.6082,0.5231,0.448,0.4067,0.3583,0.3184,0.3008,0.2918,0.292,0.292,0.292,0.292,0.2877,0.3008,0.3086,0.3059,0.2941,0.2666,0.2066,0.0957,-0.0504,-0.2168,-0.3025,-0.3577,-0.383,-0.4131,-0.4458,-0.4935,-0.585,-0.6683,-0.7364,-0.8173,-0.8669,-0.8705,-0.9127,-0.9662,-1.0222,-1.0766,-1.1451,-1.2363,-1.3052,-1.3688,-1.4314,-1.4824,-1.5208,2.2232,2.153,2.1522,2.107,2.0359,2.0359,1.9903,1.9106,1.8493,1.8203,1.8145,1.7775,1.7452,1.7198,1.6892,1.6462,1.5906,1.5669,1.5134,0.0,1.3841,1.3266,1.2581,1.1836,1.1373,1.1151,1.0693,1.0511,1.0472,1.0081,0.9907,0.9864,0.9492,0.9173,0.9005,0.8774,0.8655,0.8517,0.8352,0.8186,0.803,0.803,0.8025,0.7987,0.7838,0.7838,0.8025,0.7876,0.7838,0.7991,0.8025,0.8025,0.8025,0.7834,0.7761,0.7761,0.7761,0.768,0.7518,0.768,0.768,0.7518,0.7518,0.7518,0.7526,0.7446,0.7452,0.7558,0.714,0.6781,0.6612,0.583,0.5127,0.4612,0.3989,0.3452,0.3183,0.3006,0.292,0.292,0.292,0.292,0.2926,0.2979,0.3041,0.3091,0.3015,0.2875,0.2211,0.0807,-0.0555,-0.1614,-0.2422,-0.2976,-0.333,-0.3732,-0.4227,-0.4768,-0.5501,-0.6243,-0.6912,-0.7852,-0.8496,-0.8728,-0.8996,-0.9415,-0.9945,-1.025,-1.0809,-1.1671,-1.2272,-1.2833,-1.3476,-1.3984,-1.4524,2.3179,2.2577,2.2426,2.1878,2.1113,2.0676,2.012,1.9441,1.9197,1.8771,1.8299,1.8145,1.7887,1.7616,1.7478,1.713,1.6629,1.6488,1.6139,1.5498,1.4903,1.4316,1.3832,1.2983,1.2417,1.2192,1.1683,1.1389,1.1214,1.0881,1.0641,1.0511,1.0212,1.0029,0.9933,0.9842,0.9742,0.9534,0.8819,0.8343,0.8256,0.8266,0.825,0.8289,0.825,0.8327,0.8403,0.8327,0.836,0.8589,0.8479,0.8479,0.8589,0.8289,0.8102,0.814,0.803,0.7915,0.7834,0.7799,0.7761,0.768,0.7561,0.7567,0.7665,0.7713,0.7763,0.7773,0.7686,0.7461,0.7221,0.6571,0.5905,0.5322,0.4612,0.3989,0.3497,0.3183,0.3051,0.2918,0.292,0.292,0.292,0.2969,0.3011,0.305,0.298,0.2813,0.2614,0.1514,0.0252,-0.0806,-0.1765,-0.2472,-0.2927,-0.3432,-0.3835,-0.4137,-0.4891,-0.5684,-0.63,-0.7181,-0.7852,-0.8348,-0.8657,-0.9049,-0.9524,-0.9907,-1.0381,-1.0895,-1.1456,-1.202,-1.2705,-1.3385,-1.4188,2.4026,2.3529,2.3279,2.2677,2.1827,2.107,2.0454,1.999,1.9879,1.9388,1.8655,1.8495,1.8269,1.8035,1.7889,1.7588,1.7188,1.7102,1.6824,1.6358,1.5785,1.5345,1.4981,1.4074,1.3495,1.3249,1.2732,1.2271,1.1982,1.1756,1.1505,1.1251,1.1025,1.0944,1.0901,1.0857,1.0732,1.0457,0.9586,0.895,0.8774,0.8777,0.8755,0.8746,0.8861,0.8932,0.897,0.897,0.9041,0.9231,0.915,0.9155,0.9226,0.8932,0.8708,0.8594,0.8446,0.8336,0.8293,0.8063,0.7915,0.7915,0.7757,0.7737,0.7957,0.8102,0.8131,0.8102,0.8226,0.8193,0.7845,0.7319,0.6745,0.6077,0.5369,0.4659,0.3944,0.354,0.3274,0.3097,0.3053,0.3054,0.3015,0.3001,0.3035,0.3016,0.286,0.284,0.2781,0.2194,0.1246,0.02,-0.0952,-0.1917,-0.2522,-0.3065,-0.3409,-0.3562,-0.4241,-0.4971,-0.5607,-0.6332,-0.7044,-0.7689,-0.8177,-0.8577,-0.906,-0.9388,-0.9816,-1.0294,-1.0722,-1.1241,-1.202,-1.279,-1.3724,2.4637,2.439,2.4084,2.3379,2.2426,2.1827,2.1275,2.0814,2.0514,2.013,1.953,1.8979,1.8774,1.8613,1.8086,1.7768,1.7687,1.7417,1.716,1.6925,1.6857,1.6546,1.5974,1.5292,1.4797,1.4476,1.3814,1.3344,1.3019,1.2721,1.2418,1.1952,1.1714,1.1591,1.1591,1.137,1.1225,1.1203,1.1173,1.0708,0.9901,0.986,0.9828,0.9771,0.962,0.962,0.9765,0.9809,0.9879,1.0067,1.025,1.0255,1.0105,0.9873,0.962,0.9246,0.9208,0.9127,0.8927,0.8551,0.8365,0.8327,0.8178,0.8216,0.8562,0.8628,0.8591,0.8577,0.8719,0.8771,0.8736,0.8116,0.7499,0.7007,0.6163,0.5322,0.4701,0.4164,0.3762,0.3542,0.3544,0.3454,0.3275,0.3238,0.3174,0.3092,0.3106,0.3112,0.3082,0.2603,0.2023,0.1257,0.0099,-0.1106,-0.1908,-0.2483,-0.2956,-0.339,-0.3773,-0.4304,-0.4944,-0.5685,-0.6444,-0.6875,-0.7469,-0.7979,-0.842,-0.8723,-0.8986,-0.9602,-0.999,-1.0424,-1.1241,-1.1972,-1.2869,2.5235,2.4932,2.4677,2.4035,2.322,2.2769,2.2224,2.1632,2.1326,2.0909,2.0388,2.0008,1.9432,1.8774,1.8511,1.8189,1.7816,1.7669,1.7414,1.7167,1.7073,1.6878,1.6622,1.6228,1.5832,1.5565,1.5101,1.4689,1.4217,1.3571,1.3086,1.2885,1.2482,1.2272,1.2277,1.2186,1.2143,1.2095,1.213,1.1992,1.1595,1.1044,1.0772,1.0697,1.0561,1.0519,1.0625,1.0743,1.0893,1.1074,1.1143,1.1192,1.1074,1.0775,1.0481,1.018,0.996,0.9733,0.9533,0.9273,0.9089,0.9084,0.8818,0.8766,0.9036,0.9041,0.9087,0.9172,0.917,0.9126,0.9087,0.8732,0.8245,0.7757,0.7136,0.6428,0.563,0.5095,0.465,0.434,0.4121,0.3987,0.3851,0.3717,0.3571,0.3451,0.3451,0.3476,0.3468,0.3146,0.2716,0.2148,0.1209,0.0,-0.1221,-0.1942,-0.2462,-0.2883,-0.3223,-0.3602,-0.4157,-0.4807,-0.5438,-0.5978,-0.6568,-0.709,-0.7595,-0.8153,-0.8548,-0.9034,-0.9646,-1.012,-1.0511,-1.1111,-1.1794,2.5937,2.5586,2.5323,2.4815,2.4115,2.3827,2.3329,2.2677,2.2274,2.1827,2.1326,2.107,2.0425,1.9539,1.913,1.8611,1.8191,1.7952,1.7691,1.7417,1.7203,1.7066,1.7066,1.6824,1.6629,1.6405,1.6118,1.5788,1.5351,1.4571,1.4057,1.3917,1.3509,1.3248,1.3179,1.313,1.3088,1.3082,1.3124,1.3157,1.3048,1.2489,1.1973,1.167,1.155,1.149,1.1446,1.1632,1.1818,1.1929,1.2003,1.2003,1.1935,1.1669,1.1372,1.1074,1.0669,1.04,1.0218,1.003,0.9916,0.9879,0.9571,0.9416,0.9586,0.9613,0.9641,0.975,0.9646,0.9559,0.9476,0.9257,0.8907,0.8508,0.8065,0.7397,0.6599,0.6113,0.5672,0.5142,0.4966,0.4701,0.4565,0.4342,0.4098,0.4015,0.3941,0.3866,0.3876,0.3698,0.337,0.2905,0.2202,0.099,-0.057,-0.1376,-0.1894,-0.2353,-0.2649,-0.2935,-0.3348,-0.3888,-0.4438,-0.4947,-0.5549,-0.6207,-0.6782,-0.7401,-0.8069,-0.8548,-0.9161,-0.9733,-0.9946,-1.0419,-1.0766,2.684,2.643,2.6149,2.5703,2.5197,2.4922,2.4538,2.3985,2.3479,2.2929,2.2485,2.2182,2.1709,2.11,1.9945,1.9222,1.9037,1.8262,1.7893,1.7812,1.7486,1.7293,1.7279,1.7059,1.6979,1.6972,1.6741,1.6446,1.6081,1.576,1.5453,1.5101,1.4829,1.4586,1.4333,1.413,1.4033,1.4019,1.4146,1.43,1.4288,1.4179,1.3546,1.2653,1.2471,1.2372,1.2284,1.2459,1.2569,1.2562,1.2716,1.2753,1.2562,1.2526,1.2224,1.1706,1.1298,1.1074,1.1043,1.0887,1.0738,1.0706,1.0428,1.0275,1.0487,1.0416,1.0289,1.0298,1.025,1.0164,0.9951,0.9689,0.9432,0.9213,0.8767,0.8149,0.7529,0.718,0.6745,0.6213,0.6035,0.5813,0.5413,0.4966,0.4786,0.4665,0.4486,0.4363,0.4377,0.4146,0.3881,0.3522,0.2895,0.1867,0.0235,-0.0609,-0.1252,-0.1802,-0.2103,-0.2342,-0.2607,-0.2962,-0.3449,-0.3937,-0.4607,-0.5275,-0.5983,-0.6694,-0.7404,-0.8025,-0.8596,-0.9034,-0.9384,-0.9772,-1.0091,2.6899,2.6496,2.64,2.6245,2.6052,2.5752,2.546,2.5099,2.4756,2.4264,2.3777,2.3479,2.3079,2.2509,2.1677,2.0742,1.9733,1.933,1.9026,1.866,1.8273,1.8123,1.81,1.7866,1.7714,1.7667,1.7613,1.7421,1.7104,1.6706,1.6398,1.6218,1.5777,1.5476,1.5312,1.4923,1.4748,1.4748,1.465,1.4692,1.4824,1.485,1.4614,1.4288,1.3715,1.3285,1.3013,1.3194,1.3221,1.298,1.32,1.3193,1.301,1.2863,1.2636,1.2305,1.215,1.2003,1.1892,1.1774,1.1706,1.1571,1.1539,1.1438,1.1427,1.131,1.1119,1.0946,1.0809,1.0598,1.0255,0.9994,0.9777,0.9515,0.9297,0.8986,0.8504,0.8153,0.7841,0.7496,0.7183,0.683,0.6432,0.6115,0.598,0.5808,0.5719,0.5586,0.5455,0.5233,0.4875,0.4344,0.3764,0.2969,0.1821,0.0547,-0.0363,-0.1087,-0.1577,-0.1888,-0.2154,-0.2469,-0.2914,-0.3047,-0.3628,-0.4342,-0.505,-0.6027,-0.6738,-0.7316,-0.7933,-0.8424,-0.8903,-0.9147,-0.9438,2.7059,2.6757,2.6736,2.6736,2.6736,2.6448,2.6245,2.6042,2.5693,2.5353,2.502,2.4716,2.4332,2.3827,2.3438,2.2548,2.1196,2.0598,1.9967,1.9535,1.9202,1.8937,1.871,1.8495,1.8279,1.8102,1.8087,1.7994,1.7831,1.7444,1.7234,1.7085,1.6654,1.6342,1.6106,1.5764,1.554,1.5411,1.5249,1.5249,1.5382,1.5423,1.5452,1.5468,1.4915,1.4363,1.3882,1.3944,1.3889,1.3746,1.3748,1.3675,1.3492,1.3309,1.3169,1.313,1.3047,1.2947,1.2917,1.2856,1.2787,1.2712,1.2734,1.27,1.258,1.2374,1.2087,1.1727,1.1451,1.1111,1.0684,1.0424,1.0168,0.982,0.9733,0.9563,0.9174,0.8947,0.8727,0.842,0.8061,0.7709,0.7441,0.7309,0.7177,0.7007,0.6915,0.6782,0.6564,0.6251,0.5852,0.5235,0.4654,0.3939,0.3016,0.2027,0.0855,0.0045,-0.072,-0.1167,-0.157,-0.1885,-0.2154,-0.2288,-0.2735,-0.3406,-0.4295,-0.5272,-0.598,-0.6558,-0.7119,-0.7631,-0.8076,-0.8475,-0.8708,2.7272,2.7262,2.732,2.7272,2.7214,2.6938,2.69,2.6747,2.6342,2.61,2.5945,2.579,2.5362,2.4981,2.4775,2.4362,2.3322,2.186,2.0923,2.0502,2.0174,1.9709,1.9256,1.9146,1.8785,1.828,1.8133,1.8179,1.8172,1.8087,1.7896,1.7689,1.7545,1.7201,1.6629,1.6548,1.6373,1.6152,1.5993,1.6004,1.6087,1.6046,1.6031,1.6098,1.5977,1.56,1.4853,1.4621,1.4591,1.4672,1.4478,1.4245,1.4122,1.3945,1.3962,1.4141,1.3937,1.3899,1.4098,1.3956,1.3928,1.3974,1.3967,1.3863,1.3797,1.3505,1.3064,1.2602,1.2235,1.18,1.1241,1.103,1.0727,1.0168,1.0033,0.9907,0.9733,0.9602,0.9432,0.9038,0.8767,0.8636,0.8548,0.8328,0.8197,0.8109,0.7929,0.7749,0.7533,0.718,0.665,0.6121,0.5589,0.4917,0.4206,0.3449,0.2285,0.1211,0.0449,-0.0135,-0.0583,-0.0987,-0.1301,-0.148,-0.2109,-0.2825,-0.3494,-0.4469,-0.5029,-0.559,-0.6185,-0.6715,-0.7165,-0.7563,-0.7932,2.732,2.732,2.732,2.732,2.7309,2.7214,2.7167,2.7177,2.6976,2.6832,2.6651,2.6554,2.6255,2.581,2.5713,2.5314,2.447,2.3839,2.3093,2.2178,2.1608,2.1226,2.0945,2.0361,1.9731,1.9168,1.892,1.8866,1.8819,1.8689,1.8526,1.8416,1.8188,1.7984,1.7726,1.713,1.6719,1.6634,1.6277,1.617,1.6278,1.6319,1.636,1.6492,1.636,1.6154,1.5921,1.5505,1.5198,1.5064,1.4896,1.4835,1.4782,1.4721,1.4729,1.482,1.4728,1.4681,1.4778,1.4777,1.4675,1.4658,1.4766,1.4761,1.4691,1.4427,1.4108,1.3753,1.33,1.2747,1.2272,1.1892,1.1375,1.0554,1.0467,1.0467,1.0381,1.0337,1.0207,0.9946,0.9811,0.9641,0.9379,0.9161,0.9122,0.899,0.8859,0.8767,0.8464,0.8193,0.7749,0.7139,0.6558,0.5938,0.5184,0.4605,0.3803,0.2642,0.1702,0.0896,0.0403,-0.009,-0.0404,-0.0897,-0.1525,-0.2153,-0.2868,-0.3481,-0.4082,-0.4572,-0.5079,-0.5613,-0.6134,-0.6547,-0.6942,2.7417,2.732,2.732,2.732,2.732,2.732,2.732,2.732,2.732,2.7214,2.7081,2.7034,2.6832,2.6448,2.64,2.6052,2.5518,2.5372,2.4922,2.4038,2.3139,2.2698,2.2324,2.1285,2.0653,2.0239,1.9804,1.9554,1.9463,1.9288,1.9196,1.9055,1.8787,1.8558,1.8438,1.7787,1.7341,1.7074,1.6713,1.6542,1.6515,1.6525,1.6566,1.6648,1.6566,1.6517,1.6509,1.6184,1.5868,1.566,1.5528,1.5483,1.5366,1.5335,1.5358,1.5475,1.5467,1.5427,1.5527,1.5524,1.5486,1.5444,1.5589,1.567,1.5505,1.5321,1.5103,1.4727,1.423,1.3682,1.3252,1.279,1.2235,1.1623,1.1154,1.0939,1.0895,1.0939,1.0852,1.0679,1.0684,1.0463,1.025,1.012,1.0038,0.9864,0.9825,0.9738,0.9432,0.9209,0.8675,0.8193,0.7705,0.6997,0.6204,0.5672,0.5272,0.416,0.3001,0.215,0.1478,0.0896,0.0448,-0.0269,-0.0942,-0.1436,-0.2106,-0.2615,-0.3166,-0.3606,-0.4024,-0.445,-0.4948,-0.5479,-0.5881,2.7655,2.733,2.732,2.732,2.732,2.732,2.732,2.732,2.732,2.7309,2.7272,2.7272,2.7177,2.6938,2.689,2.6699,2.6496,2.6207,2.6052,2.5606,2.4798,2.3935,2.3118,2.2126,2.1576,2.1226,2.0726,2.0298,2.0065,1.992,1.9845,1.9654,1.9384,1.9079,1.8828,1.8498,1.799,1.7586,1.7403,1.7171,1.6884,1.682,1.6812,1.6812,1.6812,1.6771,1.6771,1.6731,1.6617,1.6413,1.6252,1.6071,1.584,1.5737,1.5913,1.6142,1.6046,1.6115,1.6259,1.617,1.6152,1.6252,1.6308,1.6435,1.6281,1.6083,1.5824,1.5484,1.5019,1.4601,1.4223,1.3808,1.3385,1.3003,1.2095,1.1537,1.1413,1.1413,1.1456,1.1408,1.1365,1.1284,1.1111,1.1068,1.0939,1.0771,1.0641,1.0424,1.0294,0.9941,0.9598,0.92,0.8715,0.8145,0.7349,0.6997,0.6511,0.5583,0.4469,0.3621,0.2593,0.188,0.1166,0.0448,-0.0134,-0.067,-0.1245,-0.171,-0.2165,-0.2604,-0.2974,-0.3357,-0.3784,-0.433,-0.486,2.7665,2.732,2.732,2.732,2.732,2.732,2.732,2.732,2.732,2.732,2.732,2.732,2.7262,2.7167,2.7177,2.7034,2.6842,2.6699,2.6544,2.639,2.611,2.5025,2.4027,2.3461,2.2887,2.2189,2.1797,2.1372,2.1024,2.0645,2.0419,2.032,1.9965,1.9704,1.9542,1.9113,1.8774,1.854,1.8176,1.7995,1.7846,1.7548,1.7416,1.7416,1.7302,1.7229,1.7229,1.7229,1.7017,1.6648,1.6577,1.6531,1.6428,1.6412,1.6444,1.6532,1.6539,1.6497,1.6576,1.6566,1.6566,1.6607,1.6607,1.6607,1.6607,1.6443,1.627,1.6064,1.5733,1.5394,1.5228,1.4866,1.4489,1.3977,1.3075,1.2357,1.2314,1.2314,1.2314,1.2363,1.232,1.2229,1.2057,1.1886,1.1714,1.1456,1.1198,1.0982,1.0895,1.0641,1.0337,1.0077,0.9637,0.9152,0.8627,0.8277,0.7705,0.6915,0.6024,0.5176,0.4014,0.2902,0.2103,0.13,0.0879,0.0393,-0.0217,-0.0774,-0.1231,-0.1633,-0.2059,-0.2461,-0.2826,-0.326,-0.381,2.7831,2.732,2.732,2.732,2.732,2.732,2.732,2.732,2.732,2.732,2.732,2.732,2.732,2.732,2.732,2.7225,2.7081,2.7081,2.6986,2.6832,2.6699,2.601,2.5198,2.4794,2.4278,2.3699,2.2943,2.2481,2.2069,2.15,2.1186,2.1042,2.0682,2.0456,2.0339,1.9951,1.9597,1.9447,1.9161,1.8981,1.8721,1.8497,1.8209,1.8034,1.7829,1.7749,1.7676,1.7635,1.7465,1.7098,1.6976,1.6976,1.6976,1.6984,1.6976,1.6976,1.6935,1.6853,1.6853,1.6771,1.6689,1.6689,1.6689,1.6689,1.6689,1.6566,1.6517,1.6476,1.6188,1.6023,1.5899,1.5616,1.5242,1.481,1.4216,1.3675,1.3343,1.3313,1.33,1.33,1.3258,1.3222,1.296,1.279,1.2571,1.2272,1.1966,1.18,1.1628,1.1338,1.1035,1.0771,1.0511,1.0033,0.9593,0.924,0.8759,0.7969,0.7037,0.6346,0.5271,0.3984,0.3169,0.241,0.1987,0.1453,0.0807,0.0211,-0.0291,-0.0737,-0.1131,-0.1598,-0.1973,-0.2313,-0.282,2.8177,2.7357,2.7357,2.7357,2.7357,2.7357,2.7357,2.732,2.732,2.732,2.732,2.732,2.732,2.732,2.732,2.732,2.7309,2.7272,2.7272,2.7167,2.7034,2.6648,2.6396,2.5791,2.5458,2.5117,2.4202,2.3664,2.3171,2.2589,2.2188,2.1963,2.1678,2.1445,2.1257,2.0962,2.0659,2.0466,2.0411,2.0184,1.9826,1.9615,1.9241,1.8865,1.8563,1.8393,1.8233,1.8152,1.8031,1.7676,1.7554,1.7505,1.7514,1.7514,1.7514,1.7473,1.7302,1.718,1.7139,1.6976,1.6812,1.6812,1.682,1.6771,1.6812,1.6771,1.6771,1.6771,1.6558,1.6517,1.6476,1.6105,1.5891,1.5684,1.5519,1.5159,1.458,1.4292,1.4243,1.423,1.4237,1.4117,1.3948,1.3815,1.3682,1.3294,1.2948,1.2607,1.2314,1.1983,1.172,1.1456,1.1203,1.0911,1.0516,1.0164,0.9637,0.9004,0.794,0.7079,0.6198,0.5096,0.4261,0.3578,0.2998,0.2391,0.1796,0.1238,0.0691,0.0121,-0.0359,-0.0831,-0.1257,-0.153,-0.192,2.8703,2.7857,2.7867,2.7715,2.7536,2.7536,2.7441,2.7309,2.732,2.7357,2.732,2.732,2.7309,2.732,2.7309,2.732,2.7309,2.7357,2.732,2.7262,2.7262,2.7214,2.7013,2.6547,2.6117,2.5779,2.5485,2.4904,2.4296,2.387,2.3521,2.3086,2.2706,2.2485,2.2388,2.2138,2.2013,2.1907,2.1795,2.1688,2.1409,2.093,2.0517,2.0238,1.9647,1.9222,1.9063,1.9024,1.9063,1.8984,1.8585,1.8296,1.8184,1.8144,1.8144,1.8063,1.7821,1.7619,1.7538,1.7424,1.727,1.7302,1.731,1.7221,1.7229,1.7098,1.7057,1.7017,1.6976,1.7017,1.7098,1.6927,1.6763,1.6632,1.6517,1.636,1.6072,1.5526,1.5144,1.5103,1.5103,1.511,1.5019,1.4866,1.465,1.4307,1.3928,1.3506,1.3088,1.2711,1.2406,1.218,1.1892,1.1645,1.1208,1.0852,1.0376,0.9812,0.8913,0.8104,0.7162,0.6235,0.539,0.4631,0.3934,0.3374,0.282,0.23,0.1746,0.1106,0.0473,0.0079,-0.0275,-0.0628,-0.1059,2.9198,2.8326,2.8305,2.8186,2.8019,2.7961,2.7831,2.7678,2.7631,2.7631,2.7584,2.7499,2.7452,2.7452,2.7452,2.7452,2.7489,2.7584,2.7631,2.762,2.7631,2.7631,2.7584,2.7336,2.6991,2.6623,2.6418,2.5936,2.5399,2.4897,2.4385,2.3991,2.3701,2.356,2.3484,2.3333,2.3226,2.324,2.3159,2.3123,2.2918,2.2569,2.1919,2.1471,2.0712,2.0157,2.004,2.005,2.0118,2.0118,1.9923,1.952,1.9125,1.9045,1.9006,1.8895,1.8665,1.8385,1.8304,1.8144,1.8031,1.7983,1.7991,1.791,1.7829,1.7627,1.7546,1.7505,1.7465,1.7465,1.7635,1.7595,1.7546,1.7505,1.7383,1.7302,1.718,1.6558,1.6015,1.6023,1.6023,1.5982,1.5948,1.5782,1.5616,1.5318,1.4894,1.4468,1.4013,1.3639,1.3215,1.2918,1.2619,1.2326,1.1892,1.1456,1.1025,1.0517,0.9809,0.9196,0.8496,0.7518,0.6539,0.5716,0.491,0.4374,0.3818,0.3336,0.2782,0.2159,0.1611,0.1138,0.0706,0.0392,-0.0157,2.9877,2.9037,2.9002,2.8828,2.8617,2.8571,2.8384,2.8128,2.8128,2.8092,2.8034,2.782,2.7773,2.7773,2.7783,2.7726,2.7857,2.7987,2.8081,2.8092,2.8092,2.8139,2.8092,2.8034,2.793,2.772,2.7342,2.6869,2.6361,2.5745,2.5238,2.4781,2.4594,2.4423,2.4327,2.4327,2.4284,2.4264,2.4243,2.4185,2.4054,2.3888,2.3257,2.2266,2.1674,2.1149,2.1022,2.0992,2.1021,2.1088,2.1415,2.1088,2.0537,2.0148,2.007,1.9883,1.9608,1.9381,1.9183,1.8975,1.8856,1.8886,1.8886,1.8776,1.8616,1.8385,1.8264,1.8144,1.8103,1.8023,1.8161,1.8233,1.8233,1.8193,1.8193,1.8193,1.8072,1.7497,1.7212,1.6804,1.673,1.6689,1.6689,1.6566,1.6443,1.6237,1.5858,1.5436,1.4977,1.4566,1.4181,1.3808,1.3512,1.3052,1.2619,1.2143,1.1714,1.13,1.0736,1.021,0.9681,0.8806,0.7753,0.6655,0.588,0.5358,0.4867,0.4426,0.3834,0.3253,0.2746,0.2273,0.1803,0.1373,0.0785,3.1043,3.0486,3.0329,3.0011,2.96,2.9382,2.9059,2.8631,2.8631,2.8595,2.8585,2.8373,2.8373,2.8456,2.8348,2.8384,2.8549,2.8631,2.8678,2.8678,2.8689,2.8689,2.8724,2.8735,2.8653,2.8466,2.8082,2.7619,2.7136,2.6621,2.6078,2.5699,2.5285,2.5073,2.5041,2.5031,2.502,2.4978,2.502,2.4935,2.4861,2.4543,2.3974,2.2953,2.2535,2.2159,2.1765,2.1665,2.1721,2.1863,2.1959,2.1987,2.1787,2.1443,2.1146,2.0876,2.0547,2.0274,2.005,1.9844,1.9747,1.9698,1.9747,1.9708,1.9559,1.9292,1.9103,1.9024,1.8904,1.8865,1.9063,1.9063,1.9063,1.9063,1.9063,1.9103,1.9054,1.8816,1.8416,1.7893,1.7578,1.731,1.7351,1.727,1.7106,1.6902,1.6566,1.6229,1.5865,1.5484,1.5151,1.4776,1.4482,1.3893,1.3349,1.2875,1.2443,1.2182,1.1663,1.1169,1.0607,0.9932,0.9036,0.8008,0.7064,0.6384,0.5899,0.5467,0.5002,0.4419,0.3915,0.3409,0.2938,0.2506,0.192,3.2094,3.1613,3.1403,3.1092,3.0722,3.034,3.0023,2.9692,2.9555,2.9463,2.9417,2.9233,2.9187,2.9222,2.9187,2.9233,2.9417,2.9474,2.9566,2.9646,2.9692,2.9692,2.9646,2.9566,2.9439,2.9312,2.8956,2.8356,2.7729,2.7457,2.6939,2.6357,2.6001,2.5807,2.5634,2.5549,2.5538,2.5591,2.5549,2.5549,2.5516,2.5126,2.4506,2.4092,2.3388,2.296,2.2681,2.2336,2.23,2.2402,2.2505,2.259,2.2553,2.2402,2.2073,2.1721,2.1443,2.1213,2.1059,2.0934,2.0895,2.0885,2.0847,2.0818,2.0663,2.0401,2.005,1.9854,1.9893,1.9854,1.9971,1.9971,1.9971,1.9971,1.9971,1.9971,1.9932,1.9854,1.945,1.8926,1.8625,1.8353,1.804,1.7919,1.7716,1.7514,1.727,1.6984,1.6656,1.6402,1.6064,1.5658,1.5325,1.4859,1.4272,1.3808,1.3379,1.3081,1.2668,1.2117,1.1565,1.094,1.0279,0.9496,0.857,0.7595,0.7019,0.663,0.6125,0.5619,0.5196,0.4691,0.4146,0.3599,0.3052,3.2996,3.2575,3.237,3.212,3.1769,3.1371,3.1026,3.0802,3.0566,3.0487,3.0487,3.025,3.0136,3.0181,3.0227,3.0329,3.0532,3.0487,3.0623,3.0713,3.0746,3.0802,3.0758,3.0544,3.0318,3.0045,2.9806,2.9238,2.8505,2.8194,2.7667,2.7107,2.6844,2.6504,2.612,2.6052,2.6063,2.6021,2.6021,2.6021,2.5911,2.5659,2.5322,2.5245,2.4291,2.3744,2.3554,2.3134,2.2978,2.2977,2.2965,2.3001,2.3027,2.3038,2.2777,2.2365,2.2252,2.2101,2.1949,2.1873,2.1797,2.1759,2.1873,2.1807,2.1655,2.129,2.0982,2.0673,2.0673,2.0838,2.0838,2.0838,2.0838,2.0838,2.0838,2.0838,2.0789,2.0712,2.0595,2.0167,1.9736,1.9341,1.8984,1.8523,1.8282,1.8201,1.8,1.7635,1.7351,1.7261,1.6976,1.6541,1.6128,1.5741,1.5276,1.4817,1.4433,1.4154,1.3652,1.314,1.2577,1.1972,1.1317,1.074,0.9926,0.8993,0.8394,0.7753,0.7322,0.6896,0.6475,0.6012,0.5464,0.4844,0.4261,3.3594,3.3501,3.33,3.2957,3.2581,3.2295,3.1957,3.1617,3.1572,3.1528,3.1472,3.1294,3.125,3.1371,3.146,3.1472,3.1516,3.1516,3.156,3.1649,3.1649,3.1649,3.1572,3.1306,3.1071,3.0859,3.0589,3.0057,2.9455,2.897,2.8444,2.7897,2.7439,2.6992,2.6677,2.6542,2.652,2.6509,2.652,2.652,2.6456,2.6224,2.5886,2.5518,2.5121,2.4738,2.4366,2.3957,2.3733,2.3781,2.3317,2.3167,2.3224,2.3113,2.3001,2.2852,2.274,2.2553,2.2365,2.2327,2.2327,2.2327,2.2327,2.2338,2.2252,2.2101,2.1873,2.1655,2.1655,2.1655,2.1645,2.1655,2.1655,2.1645,2.1645,2.1645,2.1645,2.1596,2.1482,2.1377,2.0982,2.0382,1.9874,1.9341,1.8873,1.8803,1.8652,1.8322,1.8049,1.7919,1.7749,1.727,1.7025,1.6681,1.6312,1.5816,1.5477,1.5179,1.4692,1.4135,1.3637,1.3082,1.2468,1.1821,1.1062,1.031,0.9571,0.9003,0.8546,0.805,0.7591,0.7169,0.6784,0.6163,0.547,3.4105,3.405,3.3852,3.3696,3.3441,3.3129,3.2884,3.2655,3.2525,3.2438,3.2426,3.2351,3.2339,3.2394,3.2438,3.2426,3.2438,3.2426,3.2525,3.2612,3.2612,3.2624,3.2581,3.2276,3.1957,3.1693,3.1395,3.116,3.0574,2.9998,2.9374,2.8839,2.8362,2.7864,2.7368,2.7076,2.6985,2.6951,2.6951,2.6951,2.6869,2.6704,2.6502,2.6277,2.5817,2.5491,2.5225,2.491,2.4719,2.4779,2.4554,2.4547,2.4498,2.4399,2.4256,2.3793,2.3718,2.3398,2.2832,2.2762,2.274,2.2777,2.2852,2.2938,2.2889,2.2815,2.2665,2.2515,2.2478,2.2478,2.244,2.2478,2.2478,2.2478,2.2402,2.244,2.2451,2.2478,2.244,2.2327,2.2187,2.1586,2.0952,2.045,1.9923,1.9548,1.935,1.9033,1.8723,1.8469,1.825,1.7951,1.7789,1.7659,1.7253,1.6845,1.6476,1.618,1.5782,1.5253,1.4765,1.4245,1.3691,1.3136,1.2472,1.1663,1.0819,1.0137,0.9604,0.9117,0.8665,0.828,0.7859,0.7257,0.6606,3.4397,3.4356,3.4243,3.416,3.4063,3.3725,3.3526,3.3428,3.3258,3.3159,3.3172,3.3172,3.3159,3.3159,3.3159,3.3116,3.3159,3.3147,3.3288,3.3428,3.3471,3.3441,3.3258,3.3043,3.2828,3.2667,3.2351,3.2089,3.1813,3.1276,3.064,2.9887,2.9316,2.8784,2.8296,2.7871,2.7603,2.7563,2.7563,2.7551,2.751,2.7371,2.7196,2.696,2.6592,2.6244,2.6165,2.5904,2.5748,2.5958,2.58,2.5685,2.5658,2.5486,2.528,2.4937,2.4842,2.4616,2.3977,2.3579,2.3279,2.3261,2.3335,2.342,2.342,2.3409,2.3335,2.3113,2.3113,2.3113,2.315,2.3113,2.3113,2.3075,2.3102,2.315,2.3161,2.3113,2.3075,2.3001,2.2889,2.2777,2.2193,2.1652,2.1078,2.044,2.005,1.9726,1.9429,1.9139,1.8922,1.8696,1.8576,1.8465,1.8144,1.7821,1.7505,1.718,1.6779,1.646,1.6057,1.5534,1.4979,1.443,1.3881,1.3303,1.2592,1.1571,1.0625,1.0062,0.9609,0.9311,0.8894,0.8311,0.7739,3.4397,3.4397,3.4356,3.4285,3.4118,3.4076,3.3894,3.3725,3.3683,3.367,3.3683,3.3683,3.367,3.3628,3.367,3.3683,3.3628,3.3683,3.3683,3.3683,3.3683,3.3725,3.3683,3.3598,3.3471,3.3356,3.3086,3.3,3.2945,3.2717,3.1877,3.091,3.0362,2.9767,2.9251,2.8742,2.8431,2.8407,2.8407,2.8419,2.8327,2.8207,2.7995,2.7782,2.7545,2.7371,2.7348,2.7032,2.696,2.7221,2.6975,2.6785,2.6833,2.6618,2.6409,2.6168,2.6071,2.5928,2.5521,2.4565,2.3852,2.381,2.3886,2.3922,2.3922,2.3703,2.3593,2.3629,2.3677,2.3629,2.3593,2.3556,2.3677,2.3677,2.3714,2.3714,2.3677,2.3629,2.3593,2.3556,2.3482,2.3372,2.3261,2.2681,2.2042,2.1395,2.0857,2.0537,2.0196,1.9932,1.9736,1.952,1.9371,1.9173,1.8993,1.8705,1.8496,1.8215,1.7861,1.77,1.7496,1.6894,1.6222,1.5858,1.5327,1.4866,1.4245,1.3134,1.2074,1.1097,1.0519,1.0197,0.9854,0.9291,0.8736,3.4397,3.4397,3.4397,3.4356,3.4285,3.4285,3.4243,3.4147,3.4147,3.4147,3.4105,3.4147,3.4134,3.4134,3.4147,3.4147,3.4134,3.4105,3.4105,3.4147,3.4147,3.4147,3.4105,3.3979,3.3907,3.3823,3.3696,3.3556,3.3416,3.3598,3.3479,3.2655,3.1535,3.096,3.0399,2.972,2.9337,2.9263,2.925,2.9263,2.9184,2.9067,2.891,2.8779,2.8569,2.8502,2.8493,2.8479,2.8499,2.8519,2.8439,2.8341,2.8241,2.81,2.7839,2.7519,2.747,2.7338,2.6983,2.6007,2.5329,2.5031,2.4809,2.4551,2.4575,2.4479,2.4431,2.4406,2.4334,2.4334,2.4345,2.4345,2.4345,2.4357,2.4309,2.4273,2.4261,2.4177,2.4105,2.4105,2.4007,2.3861,2.3751,2.3629,2.299,2.2354,2.1852,2.1346,2.1039,2.0808,2.0615,2.0459,2.0304,2.007,1.9844,1.9687,1.9529,1.9253,1.8975,1.8816,1.8647,1.8069,1.7504,1.7144,1.67,1.6089,1.535,1.4454,1.3407,1.2237,1.1496,1.1039,1.0665,1.0281,0.9847,3.4397,3.4397,3.4397,3.4397,3.4397,3.4397,3.4397,3.4397,3.4397,3.4397,3.4397,3.4397,3.4397,3.4397,3.4397,3.4397,3.4356,3.4356,3.4356,3.4356,3.4356,3.4397,3.4356,3.4272,3.4147,3.416,3.416,3.4021,3.4063,3.4285,3.4288,3.3812,3.2866,3.2083,3.1525,3.0737,3.0063,3.0101,3.0101,3.0101,3.0063,2.996,2.9793,2.9755,2.9626,2.9575,2.9575,2.9602,2.9705,2.982,2.991,2.9948,2.9884,2.9743,2.949,2.9188,2.8912,2.8787,2.8375,2.7458,2.6708,2.619,2.5913,2.5587,2.5383,2.5335,2.5206,2.5147,2.5123,2.5135,2.5135,2.5052,2.4981,2.4981,2.4873,2.4838,2.479,2.4754,2.4683,2.4611,2.4514,2.4406,2.4309,2.4152,2.3666,2.3113,2.2654,2.2268,2.2042,2.1814,2.1662,2.1471,2.1318,2.1049,2.0769,2.0624,2.0508,2.0313,2.0031,1.9923,1.9638,1.9125,1.8798,1.8483,1.7996,1.7276,1.6608,1.5931,1.4645,1.3223,1.2576,1.1948,1.1672,1.1306,1.1044,3.4397,3.4397,3.4397,3.4397,3.4397,3.4397,3.4397,3.4397,3.4397,3.4397,3.4397,3.4397,3.4397,3.4397,3.4397,3.4439,3.4452,3.4452,3.4494,3.4481,3.4535,3.4439,3.4439,3.4439,3.4481,3.4481,3.4535,3.4632,3.4728,3.488,3.499,3.4699,3.3728,3.2804,3.2555,3.1523,3.0975,3.0936,3.0911,3.0898,3.0861,3.0823,3.0697,3.0595,3.0507,3.0469,3.0482,3.0507,3.0608,3.0748,3.0785,3.0823,3.0772,3.0646,3.0493,3.0441,3.0428,3.0428,3.0352,2.8785,2.7937,2.7329,2.7105,2.6696,2.6313,2.606,2.5931,2.5908,2.5873,2.5873,2.5826,2.5734,2.5699,2.5641,2.5571,2.5465,2.5465,2.5347,2.5276,2.5182,2.5064,2.4921,2.4838,2.4634,2.4225,2.3787,2.342,2.315,2.2964,2.2815,2.2654,2.2505,2.2317,2.208,2.1804,2.1634,2.1454,2.129,2.1126,2.1011,2.0779,2.0382,2.008,1.9817,1.9254,1.8554,1.8039,1.751,1.6168,1.4863,1.3567,1.2883,1.2617,1.2376,1.2093,3.4397,3.4397,3.4397,3.4397,3.4397,3.4397,3.4397,3.4397,3.4397,3.4397,3.4397,3.4397,3.4397,3.4397,3.4439,3.4522,3.4673,3.4673,3.4714,3.4867,3.4867,3.4867,3.4867,3.4867,3.4867,3.4867,3.4962,3.5044,3.5003,3.5236,3.5277,3.5023,3.4189,3.3147,3.2215,3.1479,3.1373,3.141,3.141,3.141,3.1373,3.1373,3.1336,3.1248,3.1272,3.1235,3.1235,3.1222,3.131,3.141,3.141,3.141,3.1397,3.1259,3.1272,3.1272,3.1259,3.1259,3.1209,3.049,3.0004,2.9199,2.8351,2.787,2.7489,2.7024,2.682,2.6654,2.6633,2.662,2.6586,2.6586,2.6552,2.653,2.6427,2.6336,2.6233,2.6013,2.5873,2.5769,2.5664,2.5418,2.5288,2.5253,2.4921,2.4683,2.4383,2.4032,2.3776,2.374,2.3629,2.3519,2.3335,2.3102,2.2879,2.2628,2.2478,2.2344,2.2231,2.2166,2.189,2.1548,2.126,2.0923,2.0391,1.9836,1.9208,1.8542,1.7718,1.6589,1.5344,1.4233,1.377,1.3486,1.3127,3.4647,3.466,3.4647,3.4701,3.4688,3.4481,3.4439,3.4535,3.4535,3.4577,3.4647,3.4647,3.4647,3.466,3.4743,3.4784,3.5003,3.5086,3.5113,3.5318,3.5277,3.5318,3.5318,3.5318,3.5318,3.5318,3.5399,3.5453,3.548,3.5642,3.5398,3.4923,3.4405,3.3301,3.2307,3.1807,3.1817,3.1817,3.1817,3.183,3.1817,3.1817,3.183,3.178,3.178,3.178,3.178,3.178,3.1817,3.1817,3.1817,3.1817,3.1817,3.1817,3.1817,3.1817,3.1817,3.1767,3.1753,3.1753,3.1246,3.088,2.9848,2.9004,2.8533,2.8033,2.7699,2.7514,2.7416,2.7377,2.7377,2.7377,2.731,2.7255,2.7154,2.7019,2.6939,2.6722,2.662,2.6496,2.6393,2.607,2.5838,2.5756,2.5652,2.5511,2.5382,2.4993,2.4611,2.4514,2.4454,2.4298,2.4152,2.3886,2.3703,2.3556,2.3446,2.3409,2.3298,2.3139,2.2964,2.2606,2.2344,2.1993,2.1451,2.0885,2.0226,1.9562,1.8836,1.8073,1.7179,1.6109,1.5168,1.4618,1.4283,3.5113,3.5113,3.5113,3.5236,3.5304,3.484,3.4701,3.4839,3.4839,3.4921,3.5113,3.5154,3.5195,3.5195,3.5358,3.5467,3.5521,3.5683,3.5764,3.579,3.5884,3.5844,3.5844,3.5871,3.5951,3.5911,3.5951,3.6165,3.6085,3.6204,3.5694,3.4764,3.4489,3.3512,3.2682,3.2205,3.2169,3.2109,3.2132,3.2132,3.2132,3.2169,3.2218,3.2205,3.2205,3.2205,3.2205,3.2205,3.2205,3.2205,3.2205,3.2205,3.2205,3.2205,3.2205,3.2205,3.2205,3.2205,3.2205,3.2205,3.2264,3.1969,3.1352,3.0279,2.9528,2.91,2.8699,2.8372,2.8238,2.8139,2.8099,2.802,2.7921,2.7822,2.7709,2.7643,2.7577,2.751,2.741,2.7343,2.7263,2.7015,2.6722,2.6586,2.6471,2.6346,2.6208,2.5953,2.5546,2.5111,2.5052,2.4921,2.4766,2.4622,2.4478,2.4394,2.4322,2.4202,2.4129,2.3984,2.3813,2.3593,2.325,2.2868,2.2429,2.189,2.1231,2.0653,2.0031,1.9291,1.8601,1.7618,1.6524,1.5878,1.5423,3.5764,3.575,3.5897,3.599,3.599,3.583,3.5642,3.544,3.5318,3.5399,3.575,3.5764,3.5857,3.595,3.6004,3.6163,3.6256,3.6389,3.6508,3.6547,3.6626,3.664,3.6679,3.6744,3.6797,3.6836,3.69,3.69,3.69,3.6954,3.6193,3.5097,3.4817,3.3942,3.3168,3.2646,3.248,3.235,3.2372,3.2372,3.2431,3.2503,3.2552,3.2574,3.2574,3.2574,3.2574,3.2574,3.2538,3.2574,3.2574,3.2574,3.2538,3.2574,3.2574,3.2574,3.2574,3.2538,3.2561,3.2561,3.2632,3.281,3.2447,3.1969,3.1082,3.0336,2.9755,2.9321,2.9021,2.8893,2.8724,2.8605,2.8509,2.8444,2.8333,2.8268,2.8222,2.817,2.8105,2.8072,2.7993,2.7762,2.7497,2.741,2.7297,2.7162,2.7027,2.6812,2.6436,2.5978,2.5641,2.5548,2.5477,2.5359,2.5288,2.5218,2.5111,2.5028,2.4921,2.4814,2.4623,2.4419,2.4141,2.374,2.3239,2.2745,2.2258,2.1652,2.1078,2.0547,1.9886,1.8881,1.7957,1.7302,1.6657,3.6652,3.6638,3.6741,3.6858,3.6936,3.6936,3.6833,3.6598,3.6177,3.6217,3.6508,3.6612,3.6716,3.6819,3.6897,3.7028,3.7159,3.7275,3.739,3.7429,3.7481,3.7481,3.7534,3.7596,3.7596,3.7672,3.7672,3.7634,3.7634,3.7444,3.684,3.554,3.5359,3.4488,3.3599,3.3129,3.2988,3.2824,3.2717,3.2668,3.2739,3.2846,3.2917,3.2952,3.2952,3.2952,3.2952,3.2952,3.2952,3.2952,3.2952,3.2952,3.2952,3.2938,3.2952,3.2952,3.2952,3.2952,3.2952,3.3023,3.3129,3.3269,3.3395,3.3218,3.2595,3.1834,3.0945,3.0202,2.9873,2.9581,2.9351,2.9149,2.9117,2.9067,2.899,2.8912,2.8849,2.8798,2.8766,2.8734,2.8592,2.8384,2.8254,2.817,2.8072,2.7941,2.7842,2.7729,2.7263,2.6701,2.6371,2.6176,2.6164,2.6129,2.6094,2.606,2.5978,2.5838,2.5664,2.5511,2.5406,2.5146,2.4802,2.4432,2.3986,2.3585,2.3228,2.267,2.2117,2.1624,2.1165,2.045,1.9541,1.8767,1.8118,3.772,3.772,3.7734,3.7872,3.8,3.8037,3.8113,3.8202,3.7515,3.726,3.7481,3.762,3.7734,3.782,3.7933,3.7985,3.8037,3.8127,3.8127,3.8277,3.824,3.8202,3.8254,3.8329,3.8427,3.8352,3.8352,3.8375,3.8277,3.8072,3.7504,3.6144,3.6,3.5246,3.397,3.3716,3.3583,3.3563,3.3409,3.3325,3.3234,3.3269,3.3374,3.3409,3.3409,3.3409,3.3409,3.3409,3.3374,3.3409,3.3409,3.3409,3.3409,3.3444,3.3409,3.3444,3.3444,3.3514,3.3534,3.3638,3.3776,3.3962,3.4099,3.4211,3.3816,3.2939,3.1938,3.1391,3.1083,3.0556,3.027,3.0006,2.9887,2.9638,2.9432,2.9401,2.9338,2.932,2.932,2.9275,2.9212,2.904,2.8931,2.8835,2.8785,2.8702,2.8573,2.8495,2.8203,2.7564,2.7209,2.6939,2.6905,2.6892,2.6871,2.6837,2.6803,2.6667,2.6449,2.6255,2.6139,2.5814,2.5452,2.5134,2.4779,2.4528,2.419,2.3632,2.3117,2.2718,2.2295,2.1928,2.1193,2.0343,1.9559,3.876,3.876,3.8929,3.9002,3.9038,3.9038,3.9075,3.9126,3.9075,3.8767,3.8538,3.8634,3.8782,3.8877,3.8914,3.8892,3.8833,3.8848,3.8811,3.8811,3.8811,3.8885,3.8958,3.9104,3.925,3.9343,3.9307,3.9126,3.8943,3.8723,3.8171,3.6846,3.6585,3.5816,3.4608,3.439,3.4249,3.4249,3.4351,3.4187,3.4016,3.4045,3.4128,3.4162,3.4147,3.4147,3.4162,3.4128,3.4162,3.4162,3.4128,3.4128,3.4128,3.4128,3.4128,3.4128,3.4147,3.4201,3.4274,3.4375,3.4543,3.4758,3.4938,3.5121,3.4815,3.3849,3.3147,3.271,3.2245,3.1697,3.1188,3.0936,3.0654,3.0318,2.9955,2.9924,2.9893,2.9834,2.9834,2.9789,2.9775,2.9668,2.956,2.9481,2.9463,2.9324,2.9198,2.9089,2.904,2.8643,2.8254,2.7993,2.7762,2.7696,2.7696,2.7663,2.7663,2.753,2.733,2.7095,2.6858,2.6607,2.6308,2.5946,2.5597,2.5451,2.5158,2.4576,2.4107,2.3706,2.3313,2.2894,2.2681,2.1993,2.1145,3.9517,3.9517,3.961,3.9646,3.9646,3.9646,3.9646,3.9681,3.9874,3.9788,3.9487,3.9502,3.9538,3.9646,3.9646,3.961,3.9481,3.9517,3.9445,3.9445,3.9394,3.9466,3.961,3.9732,3.9732,3.9839,3.9803,3.9661,3.9481,3.9406,3.8891,3.7874,3.7392,3.6669,3.5626,3.5226,3.4953,3.5001,3.5264,3.5201,3.4909,3.5004,3.4986,3.4986,3.4953,3.4953,3.4953,3.492,3.4839,3.4839,3.4824,3.4839,3.4839,3.4824,3.4839,3.4887,3.4938,3.499,3.5106,3.5204,3.5382,3.5559,3.5752,3.5911,3.5926,3.5075,3.4631,3.4211,3.3767,3.3201,3.2619,3.2245,3.1999,3.1683,3.1127,3.0805,3.0542,3.028,3.028,3.0249,3.0205,3.0129,3.0023,2.9946,2.9898,2.982,2.9682,2.9682,2.962,2.9557,2.923,2.8976,2.8707,2.8565,2.8565,2.8565,2.8532,2.8352,2.8124,2.7861,2.7564,2.7397,2.7157,2.6853,2.6638,2.6535,2.6161,2.5557,2.5075,2.4647,2.4263,2.3863,2.3692,2.3471,2.2782,4.0066,4.0066,4.0066,4.0066,4.0066,4.0066,4.0066,4.0101,4.0242,4.0312,4.0226,4.0101,4.0066,4.0081,4.0081,4.0046,3.9996,3.991,3.996,3.9925,3.9945,3.991,3.9945,4.0066,4.0086,4.0086,4.0101,4.0066,3.9975,3.99,3.9596,3.9032,3.8329,3.7594,3.6862,3.6224,3.5752,3.5767,3.5926,3.61,3.6053,3.5975,3.5831,3.5799,3.5784,3.5816,3.5752,3.5672,3.5529,3.5529,3.5544,3.5544,3.5559,3.5544,3.5544,3.5591,3.5671,3.5752,3.5847,3.6006,3.6133,3.6305,3.6476,3.6538,3.6554,3.6338,3.5907,3.5599,3.5154,3.4634,3.4013,3.3574,3.3343,3.295,3.2326,3.1733,3.1305,3.0922,3.0893,3.0864,3.0702,3.0672,3.0553,3.0463,3.0387,3.028,3.0203,3.0203,3.0172,3.0097,2.9898,2.9761,2.9591,2.9484,2.939,2.931,2.9216,2.9089,2.8821,2.8546,2.832,2.8208,2.8071,2.7827,2.7644,2.7504,2.7142,2.662,2.6104,2.5616,2.5135,2.4778,2.4659,2.4455,2.4286,4.0385,4.0401,4.0401,4.0401,4.0401,4.0401,4.0401,4.0401,4.042,4.0455,4.042,4.0436,4.0401,4.0401,4.0401,4.0366,4.0242,4.0226,4.0137,4.0031,4.0156,4.0207,4.0242,4.0296,4.0366,4.0366,4.0366,4.0331,4.0312,4.0231,3.9956,3.9329,3.8565,3.7925,3.7411,3.6796,3.632,3.6352,3.643,3.6569,3.6538,3.6476,3.6383,3.6352,3.6352,3.6352,3.632,3.632,3.6289,3.6289,3.6258,3.6258,3.6211,3.6211,3.6211,3.6211,3.6289,3.6367,3.6461,3.6585,3.6677,3.68,3.6892,3.6953,3.6968,3.7013,3.6735,3.6781,3.6351,3.5799,3.5263,3.4942,3.4652,3.4106,3.3532,3.2946,3.2422,3.2169,3.2035,3.1781,3.1469,3.1351,3.1248,3.116,3.1058,3.0925,3.0762,3.0732,3.0672,3.0582,3.0522,3.0447,3.0342,3.0174,2.9991,2.9898,2.9806,2.9699,2.9529,2.9261,2.9089,2.9121,2.8939,2.8753,2.8575,2.8417,2.8006,2.753,2.7095,2.6586,2.6025,2.5653,2.5535,2.5382,2.517]}]]